<?xml version="1.0" encoding="UTF-8"?>
<gpx xmlns="http://www.topografix.com/GPX/1/1" xmlns:xsi="http://www.w3.org/2001/XMLSchema-instance" version="1.1" xsi:schemaLocation="http://www.topografix.com/GPX/1/1 http://www.topografix.com/GPX/1/1/gpx.xsd">
  <metadata>
    <name>Ironbourne Middle Distance</name>
  </metadata>
  <trk>
    <name>Ironbourne Middle Distance</name>
    <trkseg>
      <trkpt lat="50.760985" lon="0.284799">
        <ele>11.057244</ele>
        <time>2024-07-14T06:38:00.000Z</time>
      </trkpt>
      <trkpt lat="50.760977" lon="0.284806">
        <ele>11.057237</ele>
        <time>2024-07-14T06:38:00.000Z</time>
      </trkpt>
      <trkpt lat="50.761405" lon="0.285248">
        <ele>11.05724</ele>
        <time>2024-07-14T06:38:06.000Z</time>
      </trkpt>
      <trkpt lat="50.761499" lon="0.285378">
        <ele>11.057246</ele>
        <time>2024-07-14T06:38:07.000Z</time>
      </trkpt>
      <trkpt lat="50.761629" lon="0.28552">
        <ele>11.057232</ele>
        <time>2024-07-14T06:38:09.000Z</time>
      </trkpt>
      <trkpt lat="50.761637" lon="0.285523">
        <ele>11.057237</ele>
        <time>2024-07-14T06:38:09.000Z</time>
      </trkpt>
      <trkpt lat="50.762469" lon="0.286547">
        <ele>11.601512</ele>
        <time>2024-07-14T06:38:21.000Z</time>
      </trkpt>
      <trkpt lat="50.762474" lon="0.286541">
        <ele>11.601529</ele>
        <time>2024-07-14T06:38:21.000Z</time>
      </trkpt>
      <trkpt lat="50.762581" lon="0.286689">
        <ele>11.679096</ele>
        <time>2024-07-14T06:38:23.000Z</time>
      </trkpt>
      <trkpt lat="50.762728" lon="0.28686">
        <ele>11.785915</ele>
        <time>2024-07-14T06:38:25.000Z</time>
      </trkpt>
      <trkpt lat="50.762819" lon="0.286971">
        <ele>11.855009</ele>
        <time>2024-07-14T06:38:26.000Z</time>
      </trkpt>
      <trkpt lat="50.763328" lon="0.287554">
        <ele>12.205437</ele>
        <time>2024-07-14T06:38:33.000Z</time>
      </trkpt>
      <trkpt lat="50.763473" lon="0.287731">
        <ele>12.314948</ele>
        <time>2024-07-14T06:38:35.000Z</time>
      </trkpt>
      <trkpt lat="50.763967" lon="0.288326">
        <ele>12.664494</ele>
        <time>2024-07-14T06:38:42.000Z</time>
      </trkpt>
      <trkpt lat="50.764202" lon="0.288607">
        <ele>12.833474</ele>
        <time>2024-07-14T06:38:45.000Z</time>
      </trkpt>
      <trkpt lat="50.764204" lon="0.288596">
        <ele>12.834158</ele>
        <time>2024-07-14T06:38:45.000Z</time>
      </trkpt>
      <trkpt lat="50.764193" lon="0.2886">
        <ele>12.834149</ele>
        <time>2024-07-14T06:38:45.000Z</time>
      </trkpt>
      <trkpt lat="50.764598" lon="0.289069">
        <ele>13.091864</ele>
        <time>2024-07-14T06:38:51.000Z</time>
      </trkpt>
      <trkpt lat="50.764635" lon="0.289122">
        <ele>13.056474</ele>
        <time>2024-07-14T06:38:52.000Z</time>
      </trkpt>
      <trkpt lat="50.764673" lon="0.289175">
        <ele>13.016605</ele>
        <time>2024-07-14T06:38:53.000Z</time>
      </trkpt>
      <trkpt lat="50.765301" lon="0.289899">
        <ele>12.43471</ele>
        <time>2024-07-14T06:39:02.000Z</time>
      </trkpt>
      <trkpt lat="50.765305" lon="0.289896">
        <ele>12.434719</ele>
        <time>2024-07-14T06:39:02.000Z</time>
      </trkpt>
      <trkpt lat="50.765584" lon="0.29025">
        <ele>12.15568</ele>
        <time>2024-07-14T06:39:06.000Z</time>
      </trkpt>
      <trkpt lat="50.766245" lon="0.291058">
        <ele>11.236852</ele>
        <time>2024-07-14T06:39:15.000Z</time>
      </trkpt>
      <trkpt lat="50.766231" lon="0.291054">
        <ele>11.236867</ele>
        <time>2024-07-14T06:39:15.000Z</time>
      </trkpt>
      <trkpt lat="50.766797" lon="0.291686">
        <ele>10.01782</ele>
        <time>2024-07-14T06:39:23.000Z</time>
      </trkpt>
      <trkpt lat="50.767359" lon="0.292354">
        <ele>8.766625</ele>
        <time>2024-07-14T06:39:31.000Z</time>
      </trkpt>
      <trkpt lat="50.76774" lon="0.293074">
        <ele>7.903749</ele>
        <time>2024-07-14T06:39:38.000Z</time>
      </trkpt>
      <trkpt lat="50.767963" lon="0.293563">
        <ele>7.394625</ele>
        <time>2024-07-14T06:39:42.000Z</time>
      </trkpt>
      <trkpt lat="50.767952" lon="0.293548">
        <ele>7.394621</ele>
        <time>2024-07-14T06:39:42.000Z</time>
      </trkpt>
      <trkpt lat="50.767955" lon="0.293564">
        <ele>7.393016</ele>
        <time>2024-07-14T06:39:42.000Z</time>
      </trkpt>
      <trkpt lat="50.767962" lon="0.293563">
        <ele>7.391641</ele>
        <time>2024-07-14T06:39:42.000Z</time>
      </trkpt>
      <trkpt lat="50.767964" lon="0.293541">
        <ele>7.384092</ele>
        <time>2024-07-14T06:39:42.000Z</time>
      </trkpt>
      <trkpt lat="50.768102" lon="0.293845">
        <ele>7.059767</ele>
        <time>2024-07-14T06:39:45.000Z</time>
      </trkpt>
      <trkpt lat="50.768224" lon="0.294006">
        <ele>6.844916</ele>
        <time>2024-07-14T06:39:47.000Z</time>
      </trkpt>
      <trkpt lat="50.768353" lon="0.294125">
        <ele>6.634362</ele>
        <time>2024-07-14T06:39:49.000Z</time>
      </trkpt>
      <trkpt lat="50.768737" lon="0.294438">
        <ele>6.104209</ele>
        <time>2024-07-14T06:39:54.000Z</time>
      </trkpt>
      <trkpt lat="50.768932" lon="0.294595">
        <ele>6.184568</ele>
        <time>2024-07-14T06:39:56.000Z</time>
      </trkpt>
      <trkpt lat="50.769666" lon="0.295062">
        <ele>6.467312</ele>
        <time>2024-07-14T06:40:05.000Z</time>
      </trkpt>
      <trkpt lat="50.769882" lon="0.295258">
        <ele>6.561508</ele>
        <time>2024-07-14T06:40:08.000Z</time>
      </trkpt>
      <trkpt lat="50.770933" lon="0.296247">
        <ele>6.589013</ele>
        <time>2024-07-14T06:40:22.000Z</time>
      </trkpt>
      <trkpt lat="50.771551" lon="0.297053">
        <ele>6.413866</ele>
        <time>2024-07-14T06:40:31.000Z</time>
      </trkpt>
      <trkpt lat="50.771811" lon="0.297457">
        <ele>6.356436</ele>
        <time>2024-07-14T06:40:35.000Z</time>
      </trkpt>
      <trkpt lat="50.772421" lon="0.298479">
        <ele>6.387224</ele>
        <time>2024-07-14T06:40:45.000Z</time>
      </trkpt>
      <trkpt lat="50.772747" lon="0.298994">
        <ele>6.403169</ele>
        <time>2024-07-14T06:40:50.000Z</time>
      </trkpt>
      <trkpt lat="50.772815" lon="0.299076">
        <ele>6.406147</ele>
        <time>2024-07-14T06:40:51.000Z</time>
      </trkpt>
      <trkpt lat="50.772913" lon="0.299133">
        <ele>6.409419</ele>
        <time>2024-07-14T06:40:52.000Z</time>
      </trkpt>
      <trkpt lat="50.773023" lon="0.299154">
        <ele>6.413587</ele>
        <time>2024-07-14T06:40:53.000Z</time>
      </trkpt>
      <trkpt lat="50.773222" lon="0.29913">
        <ele>6.358794</ele>
        <time>2024-07-14T06:40:55.000Z</time>
      </trkpt>
      <trkpt lat="50.773373" lon="0.29914">
        <ele>6.302974</ele>
        <time>2024-07-14T06:40:57.000Z</time>
      </trkpt>
      <trkpt lat="50.773373" lon="0.299142">
        <ele>6.30298</ele>
        <time>2024-07-14T06:40:57.000Z</time>
      </trkpt>
      <trkpt lat="50.773373" lon="0.299142">
        <ele>6.302156</ele>
        <time>2024-07-14T06:40:57.000Z</time>
      </trkpt>
      <trkpt lat="50.773382" lon="0.299135">
        <ele>6.296778</ele>
        <time>2024-07-14T06:40:57.000Z</time>
      </trkpt>
      <trkpt lat="50.773508" lon="0.299176">
        <ele>6.242065</ele>
        <time>2024-07-14T06:40:58.000Z</time>
      </trkpt>
      <trkpt lat="50.773659" lon="0.299252">
        <ele>6.18141</ele>
        <time>2024-07-14T06:41:00.000Z</time>
      </trkpt>
      <trkpt lat="50.774217" lon="0.299626">
        <ele>5.926855</ele>
        <time>2024-07-14T06:41:07.000Z</time>
      </trkpt>
      <trkpt lat="50.774848" lon="0.30002">
        <ele>5.647598</ele>
        <time>2024-07-14T06:41:15.000Z</time>
      </trkpt>
      <trkpt lat="50.775369" lon="0.300362">
        <ele>5.387774</ele>
        <time>2024-07-14T06:41:21.000Z</time>
      </trkpt>
      <trkpt lat="50.775485" lon="0.300503">
        <ele>5.318927</ele>
        <time>2024-07-14T06:41:23.000Z</time>
      </trkpt>
      <trkpt lat="50.775654" lon="0.300882">
        <ele>5.180287</ele>
        <time>2024-07-14T06:41:26.000Z</time>
      </trkpt>
      <trkpt lat="50.77636" lon="0.302431">
        <ele>4.666357</ele>
        <time>2024-07-14T06:41:39.000Z</time>
      </trkpt>
      <trkpt lat="50.776574" lon="0.302747">
        <ele>4.555075</ele>
        <time>2024-07-14T06:41:42.000Z</time>
      </trkpt>
      <trkpt lat="50.776829" lon="0.303009">
        <ele>4.448054</ele>
        <time>2024-07-14T06:41:45.000Z</time>
      </trkpt>
      <trkpt lat="50.776963" lon="0.303157">
        <ele>4.383743</ele>
        <time>2024-07-14T06:41:47.000Z</time>
      </trkpt>
      <trkpt lat="50.777087" lon="0.303367">
        <ele>4.314562</ele>
        <time>2024-07-14T06:41:49.000Z</time>
      </trkpt>
      <trkpt lat="50.777304" lon="0.303983">
        <ele>4.161819</ele>
        <time>2024-07-14T06:41:54.000Z</time>
      </trkpt>
      <trkpt lat="50.777976" lon="0.306112">
        <ele>3.905023</ele>
        <time>2024-07-14T06:42:11.000Z</time>
      </trkpt>
      <trkpt lat="50.778321" lon="0.307221">
        <ele>3.843171</ele>
        <time>2024-07-14T06:42:20.000Z</time>
      </trkpt>
      <trkpt lat="50.77852" lon="0.307656">
        <ele>3.829574</ele>
        <time>2024-07-14T06:42:24.000Z</time>
      </trkpt>
      <trkpt lat="50.778763" lon="0.308235">
        <ele>3.811859</ele>
        <time>2024-07-14T06:42:29.000Z</time>
      </trkpt>
      <trkpt lat="50.778772" lon="0.308245">
        <ele>3.811869</ele>
        <time>2024-07-14T06:42:29.000Z</time>
      </trkpt>
      <trkpt lat="50.778757" lon="0.308231">
        <ele>3.811811</ele>
        <time>2024-07-14T06:42:29.000Z</time>
      </trkpt>
      <trkpt lat="50.778786" lon="0.308263">
        <ele>3.810817</ele>
        <time>2024-07-14T06:42:29.000Z</time>
      </trkpt>
      <trkpt lat="50.778957" lon="0.308616">
        <ele>3.799749</ele>
        <time>2024-07-14T06:42:32.000Z</time>
      </trkpt>
      <trkpt lat="50.779254" lon="0.309113">
        <ele>3.950193</ele>
        <time>2024-07-14T06:42:37.000Z</time>
      </trkpt>
      <trkpt lat="50.779982" lon="0.310166">
        <ele>4.509938</ele>
        <time>2024-07-14T06:42:48.000Z</time>
      </trkpt>
      <trkpt lat="50.780415" lon="0.310762">
        <ele>4.812494</ele>
        <time>2024-07-14T06:42:54.000Z</time>
      </trkpt>
      <trkpt lat="50.780759" lon="0.311232">
        <ele>4.800633</ele>
        <time>2024-07-14T06:42:59.000Z</time>
      </trkpt>
      <trkpt lat="50.781044" lon="0.311573">
        <ele>4.791064</ele>
        <time>2024-07-14T06:43:03.000Z</time>
      </trkpt>
      <trkpt lat="50.781294" lon="0.311871">
        <ele>4.782703</ele>
        <time>2024-07-14T06:43:06.000Z</time>
      </trkpt>
      <trkpt lat="50.781596" lon="0.312129">
        <ele>4.773724</ele>
        <time>2024-07-14T06:43:10.000Z</time>
      </trkpt>
      <trkpt lat="50.781787" lon="0.312289">
        <ele>4.768307</ele>
        <time>2024-07-14T06:43:12.000Z</time>
      </trkpt>
      <trkpt lat="50.782107" lon="0.312526">
        <ele>4.650055</ele>
        <time>2024-07-14T06:43:16.000Z</time>
      </trkpt>
      <trkpt lat="50.782235" lon="0.312604">
        <ele>4.5892</ele>
        <time>2024-07-14T06:43:18.000Z</time>
      </trkpt>
      <trkpt lat="50.782341" lon="0.312647">
        <ele>4.535704</ele>
        <time>2024-07-14T06:43:19.000Z</time>
      </trkpt>
      <trkpt lat="50.782483" lon="0.312729">
        <ele>4.474857</ele>
        <time>2024-07-14T06:43:21.000Z</time>
      </trkpt>
      <trkpt lat="50.782558" lon="0.312735">
        <ele>4.444189</ele>
        <time>2024-07-14T06:43:22.000Z</time>
      </trkpt>
      <trkpt lat="50.782615" lon="0.312714">
        <ele>4.417451</ele>
        <time>2024-07-14T06:43:23.000Z</time>
      </trkpt>
      <trkpt lat="50.782683" lon="0.312658">
        <ele>4.37757</ele>
        <time>2024-07-14T06:43:24.000Z</time>
      </trkpt>
      <trkpt lat="50.782736" lon="0.312572">
        <ele>4.351538</ele>
        <time>2024-07-14T06:43:25.000Z</time>
      </trkpt>
      <trkpt lat="50.782821" lon="0.312478">
        <ele>4.299934</ele>
        <time>2024-07-14T06:43:26.000Z</time>
      </trkpt>
      <trkpt lat="50.782983" lon="0.312436">
        <ele>4.229259</ele>
        <time>2024-07-14T06:43:28.000Z</time>
      </trkpt>
      <trkpt lat="50.783139" lon="0.312453">
        <ele>4.163597</ele>
        <time>2024-07-14T06:43:30.000Z</time>
      </trkpt>
      <trkpt lat="50.783276" lon="0.312307">
        <ele>4.091742</ele>
        <time>2024-07-14T06:43:32.000Z</time>
      </trkpt>
      <trkpt lat="50.783471" lon="0.311878">
        <ele>3.954644</ele>
        <time>2024-07-14T06:43:36.000Z</time>
      </trkpt>
      <trkpt lat="50.784308" lon="0.310101">
        <ele>3.543499</ele>
        <time>2024-07-14T06:43:52.000Z</time>
      </trkpt>
      <trkpt lat="50.784962" lon="0.30881">
        <ele>3.365447</ele>
        <time>2024-07-14T06:44:04.000Z</time>
      </trkpt>
      <trkpt lat="50.785226" lon="0.308345">
        <ele>3.320199</ele>
        <time>2024-07-14T06:44:08.000Z</time>
      </trkpt>
      <trkpt lat="50.785314" lon="0.308088">
        <ele>3.298487</ele>
        <time>2024-07-14T06:44:10.000Z</time>
      </trkpt>
      <trkpt lat="50.785414" lon="0.307884">
        <ele>3.279778</ele>
        <time>2024-07-14T06:44:12.000Z</time>
      </trkpt>
      <trkpt lat="50.785644" lon="0.307425">
        <ele>3.238231</ele>
        <time>2024-07-14T06:44:16.000Z</time>
      </trkpt>
      <trkpt lat="50.785793" lon="0.307017">
        <ele>3.209083</ele>
        <time>2024-07-14T06:44:19.000Z</time>
      </trkpt>
      <trkpt lat="50.785812" lon="0.306855">
        <ele>3.198223</ele>
        <time>2024-07-14T06:44:20.000Z</time>
      </trkpt>
      <trkpt lat="50.785815" lon="0.306812">
        <ele>3.195574</ele>
        <time>2024-07-14T06:44:20.000Z</time>
      </trkpt>
      <trkpt lat="50.785812" lon="0.306723">
        <ele>3.190033</ele>
        <time>2024-07-14T06:44:21.000Z</time>
      </trkpt>
      <trkpt lat="50.785856" lon="0.306591">
        <ele>3.181676</ele>
        <time>2024-07-14T06:44:22.000Z</time>
      </trkpt>
      <trkpt lat="50.7859" lon="0.306532">
        <ele>3.175576</ele>
        <time>2024-07-14T06:44:23.000Z</time>
      </trkpt>
      <trkpt lat="50.785957" lon="0.306498">
        <ele>3.169242</ele>
        <time>2024-07-14T06:44:24.000Z</time>
      </trkpt>
      <trkpt lat="50.786098" lon="0.306401">
        <ele>3.154277</ele>
        <time>2024-07-14T06:44:26.000Z</time>
      </trkpt>
      <trkpt lat="50.786227" lon="0.306234">
        <ele>3.137862</ele>
        <time>2024-07-14T06:44:28.000Z</time>
      </trkpt>
      <trkpt lat="50.787018" lon="0.304759">
        <ele>2.963358</ele>
        <time>2024-07-14T06:44:42.000Z</time>
      </trkpt>
      <trkpt lat="50.787086" lon="0.304582">
        <ele>2.937389</ele>
        <time>2024-07-14T06:44:43.000Z</time>
      </trkpt>
      <trkpt lat="50.78711" lon="0.304433">
        <ele>2.91643</ele>
        <time>2024-07-14T06:44:44.000Z</time>
      </trkpt>
      <trkpt lat="50.787106" lon="0.304298">
        <ele>2.896426</ele>
        <time>2024-07-14T06:44:45.000Z</time>
      </trkpt>
      <trkpt lat="50.787131" lon="0.30421">
        <ele>2.884018</ele>
        <time>2024-07-14T06:44:46.000Z</time>
      </trkpt>
      <trkpt lat="50.787182" lon="0.304167">
        <ele>2.87404</ele>
        <time>2024-07-14T06:44:47.000Z</time>
      </trkpt>
      <trkpt lat="50.787236" lon="0.304177">
        <ele>2.863497</ele>
        <time>2024-07-14T06:44:48.000Z</time>
      </trkpt>
      <trkpt lat="50.78727" lon="0.304174">
        <ele>2.854966</ele>
        <time>2024-07-14T06:44:48.000Z</time>
      </trkpt>
      <trkpt lat="50.787518" lon="0.303782">
        <ele>2.779971</ele>
        <time>2024-07-14T06:44:52.000Z</time>
      </trkpt>
      <trkpt lat="50.787853" lon="0.303058">
        <ele>2.693024</ele>
        <time>2024-07-14T06:44:58.000Z</time>
      </trkpt>
      <trkpt lat="50.788093" lon="0.302456">
        <ele>2.711574</ele>
        <time>2024-07-14T06:45:03.000Z</time>
      </trkpt>
      <trkpt lat="50.788346" lon="0.301772">
        <ele>2.731927</ele>
        <time>2024-07-14T06:45:09.000Z</time>
      </trkpt>
      <trkpt lat="50.788827" lon="0.300592">
        <ele>2.747585</ele>
        <time>2024-07-14T06:45:19.000Z</time>
      </trkpt>
      <trkpt lat="50.789003" lon="0.300178">
        <ele>2.719485</ele>
        <time>2024-07-14T06:45:23.000Z</time>
      </trkpt>
      <trkpt lat="50.78976" lon="0.298504">
        <ele>2.604959</ele>
        <time>2024-07-14T06:45:37.000Z</time>
      </trkpt>
      <trkpt lat="50.789762" lon="0.298497">
        <ele>2.604947</ele>
        <time>2024-07-14T06:45:37.000Z</time>
      </trkpt>
      <trkpt lat="50.789765" lon="0.298491">
        <ele>2.604803</ele>
        <time>2024-07-14T06:45:37.000Z</time>
      </trkpt>
      <trkpt lat="50.789779" lon="0.298476">
        <ele>2.597394</ele>
        <time>2024-07-14T06:45:37.000Z</time>
      </trkpt>
      <trkpt lat="50.789782" lon="0.298434">
        <ele>2.58713</ele>
        <time>2024-07-14T06:45:37.000Z</time>
      </trkpt>
      <trkpt lat="50.792105" lon="0.293197">
        <ele>0.70639</ele>
        <time>2024-07-14T06:46:22.000Z</time>
      </trkpt>
      <trkpt lat="50.792672" lon="0.291899">
        <ele>0.543143</ele>
        <time>2024-07-14T06:46:33.000Z</time>
      </trkpt>
      <trkpt lat="50.793278" lon="0.290615">
        <ele>0.791822</ele>
        <time>2024-07-14T06:46:44.000Z</time>
      </trkpt>
      <trkpt lat="50.793726" lon="0.289583">
        <ele>1.12933</ele>
        <time>2024-07-14T06:46:53.000Z</time>
      </trkpt>
      <trkpt lat="50.793867" lon="0.289147">
        <ele>1.262664</ele>
        <time>2024-07-14T06:46:56.000Z</time>
      </trkpt>
      <trkpt lat="50.793915" lon="0.288928">
        <ele>1.422642</ele>
        <time>2024-07-14T06:46:58.000Z</time>
      </trkpt>
      <trkpt lat="50.793925" lon="0.288702">
        <ele>1.587581</ele>
        <time>2024-07-14T06:47:00.000Z</time>
      </trkpt>
      <trkpt lat="50.793882" lon="0.288667">
        <ele>1.631996</ele>
        <time>2024-07-14T06:47:01.000Z</time>
      </trkpt>
      <trkpt lat="50.793845" lon="0.288597">
        <ele>1.694384</ele>
        <time>2024-07-14T06:47:02.000Z</time>
      </trkpt>
      <trkpt lat="50.793812" lon="0.288458">
        <ele>1.804312</ele>
        <time>2024-07-14T06:47:03.000Z</time>
      </trkpt>
      <trkpt lat="50.793802" lon="0.288372">
        <ele>1.86969</ele>
        <time>2024-07-14T06:47:04.000Z</time>
      </trkpt>
      <trkpt lat="50.79375" lon="0.288244">
        <ele>1.978566</ele>
        <time>2024-07-14T06:47:05.000Z</time>
      </trkpt>
      <trkpt lat="50.793683" lon="0.287932">
        <ele>2.207362</ele>
        <time>2024-07-14T06:47:07.000Z</time>
      </trkpt>
      <trkpt lat="50.793629" lon="0.287738">
        <ele>2.372261</ele>
        <time>2024-07-14T06:47:08.000Z</time>
      </trkpt>
      <trkpt lat="50.793617" lon="0.287625">
        <ele>2.444686</ele>
        <time>2024-07-14T06:47:09.000Z</time>
      </trkpt>
      <trkpt lat="50.793343" lon="0.287041">
        <ele>2.960063</ele>
        <time>2024-07-14T06:47:14.000Z</time>
      </trkpt>
      <trkpt lat="50.792707" lon="0.285816">
        <ele>3.451444</ele>
        <time>2024-07-14T06:47:25.000Z</time>
      </trkpt>
      <trkpt lat="50.792272" lon="0.284947">
        <ele>3.601998</ele>
        <time>2024-07-14T06:47:33.000Z</time>
      </trkpt>
      <trkpt lat="50.792264" lon="0.284933">
        <ele>3.602004</ele>
        <time>2024-07-14T06:47:33.000Z</time>
      </trkpt>
      <trkpt lat="50.79227" lon="0.284942">
        <ele>3.602356</ele>
        <time>2024-07-14T06:47:33.000Z</time>
      </trkpt>
      <trkpt lat="50.792223" lon="0.284856">
        <ele>3.615786</ele>
        <time>2024-07-14T06:47:34.000Z</time>
      </trkpt>
      <trkpt lat="50.791822" lon="0.284065">
        <ele>3.442878</ele>
        <time>2024-07-14T06:47:41.000Z</time>
      </trkpt>
      <trkpt lat="50.791589" lon="0.283479">
        <ele>3.116683</ele>
        <time>2024-07-14T06:47:46.000Z</time>
      </trkpt>
      <trkpt lat="50.791394" lon="0.282858">
        <ele>2.795673</ele>
        <time>2024-07-14T06:47:51.000Z</time>
      </trkpt>
      <trkpt lat="50.791241" lon="0.282046">
        <ele>2.398507</ele>
        <time>2024-07-14T06:47:57.000Z</time>
      </trkpt>
      <trkpt lat="50.791173" lon="0.281168">
        <ele>2.35084</ele>
        <time>2024-07-14T06:48:03.000Z</time>
      </trkpt>
      <trkpt lat="50.791194" lon="0.279956">
        <ele>2.357443</ele>
        <time>2024-07-14T06:48:12.000Z</time>
      </trkpt>
      <trkpt lat="50.791207" lon="0.279147">
        <ele>2.361976</ele>
        <time>2024-07-14T06:48:18.000Z</time>
      </trkpt>
      <trkpt lat="50.791177" lon="0.278981">
        <ele>2.429414</ele>
        <time>2024-07-14T06:48:19.000Z</time>
      </trkpt>
      <trkpt lat="50.791154" lon="0.278792">
        <ele>2.543125</ele>
        <time>2024-07-14T06:48:20.000Z</time>
      </trkpt>
      <trkpt lat="50.791147" lon="0.278665">
        <ele>2.618935</ele>
        <time>2024-07-14T06:48:21.000Z</time>
      </trkpt>
      <trkpt lat="50.791104" lon="0.278467">
        <ele>2.729934</ele>
        <time>2024-07-14T06:48:22.000Z</time>
      </trkpt>
      <trkpt lat="50.791073" lon="0.278426">
        <ele>2.765097</ele>
        <time>2024-07-14T06:48:22.000Z</time>
      </trkpt>
      <trkpt lat="50.791024" lon="0.27833">
        <ele>2.83736</ele>
        <time>2024-07-14T06:48:23.000Z</time>
      </trkpt>
      <trkpt lat="50.791004" lon="0.27821">
        <ele>2.907676</ele>
        <time>2024-07-14T06:48:24.000Z</time>
      </trkpt>
      <trkpt lat="50.791018" lon="0.278092">
        <ele>2.976288</ele>
        <time>2024-07-14T06:48:25.000Z</time>
      </trkpt>
      <trkpt lat="50.791083" lon="0.277947">
        <ele>3.072129</ele>
        <time>2024-07-14T06:48:26.000Z</time>
      </trkpt>
      <trkpt lat="50.791105" lon="0.277665">
        <ele>3.231817</ele>
        <time>2024-07-14T06:48:28.000Z</time>
      </trkpt>
      <trkpt lat="50.791144" lon="0.277302">
        <ele>3.438963</ele>
        <time>2024-07-14T06:48:31.000Z</time>
      </trkpt>
      <trkpt lat="50.791165" lon="0.277216">
        <ele>3.493038</ele>
        <time>2024-07-14T06:48:32.000Z</time>
      </trkpt>
      <trkpt lat="50.791141" lon="0.276934">
        <ele>3.652722</ele>
        <time>2024-07-14T06:48:34.000Z</time>
      </trkpt>
      <trkpt lat="50.791084" lon="0.276547">
        <ele>3.880198</ele>
        <time>2024-07-14T06:48:37.000Z</time>
      </trkpt>
      <trkpt lat="50.790982" lon="0.276179">
        <ele>4.046265</ele>
        <time>2024-07-14T06:48:40.000Z</time>
      </trkpt>
      <trkpt lat="50.790828" lon="0.275743">
        <ele>4.200513</ele>
        <time>2024-07-14T06:48:44.000Z</time>
      </trkpt>
      <trkpt lat="50.790684" lon="0.275446">
        <ele>4.313809</ele>
        <time>2024-07-14T06:48:47.000Z</time>
      </trkpt>
      <trkpt lat="50.790495" lon="0.275105">
        <ele>4.449451</ele>
        <time>2024-07-14T06:48:50.000Z</time>
      </trkpt>
      <trkpt lat="50.790214" lon="0.274738">
        <ele>4.626771</ele>
        <time>2024-07-14T06:48:54.000Z</time>
      </trkpt>
      <trkpt lat="50.789939" lon="0.274423">
        <ele>4.791053</ele>
        <time>2024-07-14T06:48:58.000Z</time>
      </trkpt>
      <trkpt lat="50.789463" lon="0.274038">
        <ele>4.721049</ele>
        <time>2024-07-14T06:49:04.000Z</time>
      </trkpt>
      <trkpt lat="50.789126" lon="0.273893">
        <ele>4.621938</ele>
        <time>2024-07-14T06:49:08.000Z</time>
      </trkpt>
      <trkpt lat="50.788591" lon="0.273764">
        <ele>4.47035</ele>
        <time>2024-07-14T06:49:14.000Z</time>
      </trkpt>
      <trkpt lat="50.785051" lon="0.273058">
        <ele>2.973131</ele>
        <time>2024-07-14T06:49:54.000Z</time>
      </trkpt>
      <trkpt lat="50.784578" lon="0.272931">
        <ele>2.821277</ele>
        <time>2024-07-14T06:49:59.000Z</time>
      </trkpt>
      <trkpt lat="50.78433" lon="0.272838">
        <ele>2.941862</ele>
        <time>2024-07-14T06:50:02.000Z</time>
      </trkpt>
      <trkpt lat="50.784063" lon="0.272663">
        <ele>3.10687</ele>
        <time>2024-07-14T06:50:05.000Z</time>
      </trkpt>
      <trkpt lat="50.783685" lon="0.272328">
        <ele>3.361136</ele>
        <time>2024-07-14T06:50:10.000Z</time>
      </trkpt>
      <trkpt lat="50.783538" lon="0.272223">
        <ele>3.462039</ele>
        <time>2024-07-14T06:50:12.000Z</time>
      </trkpt>
      <trkpt lat="50.783459" lon="0.272163">
        <ele>3.513981</ele>
        <time>2024-07-14T06:50:13.000Z</time>
      </trkpt>
      <trkpt lat="50.783346" lon="0.272105">
        <ele>3.5767</ele>
        <time>2024-07-14T06:50:14.000Z</time>
      </trkpt>
      <trkpt lat="50.783263" lon="0.27212">
        <ele>3.629619</ele>
        <time>2024-07-14T06:50:15.000Z</time>
      </trkpt>
      <trkpt lat="50.783177" lon="0.272071">
        <ele>3.680067</ele>
        <time>2024-07-14T06:50:16.000Z</time>
      </trkpt>
      <trkpt lat="50.783104" lon="0.271972">
        <ele>3.732985</ele>
        <time>2024-07-14T06:50:17.000Z</time>
      </trkpt>
      <trkpt lat="50.783077" lon="0.271869">
        <ele>3.777409</ele>
        <time>2024-07-14T06:50:18.000Z</time>
      </trkpt>
      <trkpt lat="50.783083" lon="0.271788">
        <ele>3.811337</ele>
        <time>2024-07-14T06:50:19.000Z</time>
      </trkpt>
      <trkpt lat="50.783069" lon="0.271771">
        <ele>3.81133</ele>
        <time>2024-07-14T06:50:19.000Z</time>
      </trkpt>
      <trkpt lat="50.78307" lon="0.271773">
        <ele>3.812284</ele>
        <time>2024-07-14T06:50:19.000Z</time>
      </trkpt>
      <trkpt lat="50.783074" lon="0.271725">
        <ele>3.829803</ele>
        <time>2024-07-14T06:50:19.000Z</time>
      </trkpt>
      <trkpt lat="50.783089" lon="0.271645">
        <ele>3.860046</ele>
        <time>2024-07-14T06:50:20.000Z</time>
      </trkpt>
      <trkpt lat="50.783147" lon="0.271491">
        <ele>3.798168</ele>
        <time>2024-07-14T06:50:21.000Z</time>
      </trkpt>
      <trkpt lat="50.783263" lon="0.271384">
        <ele>3.709468</ele>
        <time>2024-07-14T06:50:22.000Z</time>
      </trkpt>
      <trkpt lat="50.783362" lon="0.271391">
        <ele>3.654231</ele>
        <time>2024-07-14T06:50:23.000Z</time>
      </trkpt>
      <trkpt lat="50.783405" lon="0.271414">
        <ele>3.628489</ele>
        <time>2024-07-14T06:50:24.000Z</time>
      </trkpt>
      <trkpt lat="50.783457" lon="0.271482">
        <ele>3.580341</ele>
        <time>2024-07-14T06:50:25.000Z</time>
      </trkpt>
      <trkpt lat="50.783509" lon="0.271591">
        <ele>3.531107</ele>
        <time>2024-07-14T06:50:26.000Z</time>
      </trkpt>
      <trkpt lat="50.78352" lon="0.271716">
        <ele>3.48296</ele>
        <time>2024-07-14T06:50:27.000Z</time>
      </trkpt>
      <trkpt lat="50.783523" lon="0.271803">
        <ele>3.451908</ele>
        <time>2024-07-14T06:50:28.000Z</time>
      </trkpt>
      <trkpt lat="50.783505" lon="0.271847">
        <ele>3.431567</ele>
        <time>2024-07-14T06:50:28.000Z</time>
      </trkpt>
      <trkpt lat="50.783629" lon="0.272136">
        <ele>3.30036</ele>
        <time>2024-07-14T06:50:30.000Z</time>
      </trkpt>
      <trkpt lat="50.783695" lon="0.272323">
        <ele>3.215033</ele>
        <time>2024-07-14T06:50:32.000Z</time>
      </trkpt>
      <trkpt lat="50.783777" lon="0.272406">
        <ele>3.156955</ele>
        <time>2024-07-14T06:50:33.000Z</time>
      </trkpt>
      <trkpt lat="50.783948" lon="0.272578">
        <ele>3.030259</ele>
        <time>2024-07-14T06:50:35.000Z</time>
      </trkpt>
      <trkpt lat="50.784201" lon="0.272763">
        <ele>2.860048</ele>
        <time>2024-07-14T06:50:38.000Z</time>
      </trkpt>
      <trkpt lat="50.784485" lon="0.272891">
        <ele>2.796418</ele>
        <time>2024-07-14T06:50:41.000Z</time>
      </trkpt>
      <trkpt lat="50.784869" lon="0.273029">
        <ele>2.901379</ele>
        <time>2024-07-14T06:50:45.000Z</time>
      </trkpt>
      <trkpt lat="50.788423" lon="0.273719">
        <ele>4.305654</ele>
        <time>2024-07-14T06:51:25.000Z</time>
      </trkpt>
      <trkpt lat="50.789047" lon="0.273863">
        <ele>4.511855</ele>
        <time>2024-07-14T06:51:32.000Z</time>
      </trkpt>
      <trkpt lat="50.789209" lon="0.273927">
        <ele>4.566788</ele>
        <time>2024-07-14T06:51:34.000Z</time>
      </trkpt>
      <trkpt lat="50.789466" lon="0.274036">
        <ele>4.659908</ele>
        <time>2024-07-14T06:51:37.000Z</time>
      </trkpt>
      <trkpt lat="50.789577" lon="0.274102">
        <ele>4.696439</ele>
        <time>2024-07-14T06:51:38.000Z</time>
      </trkpt>
      <trkpt lat="50.789939" lon="0.274428">
        <ele>4.645081</ele>
        <time>2024-07-14T06:51:43.000Z</time>
      </trkpt>
      <trkpt lat="50.790207" lon="0.274727">
        <ele>4.545739</ele>
        <time>2024-07-14T06:51:47.000Z</time>
      </trkpt>
      <trkpt lat="50.790484" lon="0.275118">
        <ele>4.438499</ele>
        <time>2024-07-14T06:51:51.000Z</time>
      </trkpt>
      <trkpt lat="50.790685" lon="0.275443">
        <ele>4.356483</ele>
        <time>2024-07-14T06:51:54.000Z</time>
      </trkpt>
      <trkpt lat="50.790898" lon="0.275942">
        <ele>4.243033</ele>
        <time>2024-07-14T06:51:58.000Z</time>
      </trkpt>
      <trkpt lat="50.791032" lon="0.276374">
        <ele>4.017421</ele>
        <time>2024-07-14T06:52:01.000Z</time>
      </trkpt>
      <trkpt lat="50.791101" lon="0.276682">
        <ele>3.808478</ele>
        <time>2024-07-14T06:52:03.000Z</time>
      </trkpt>
      <trkpt lat="50.791162" lon="0.277212">
        <ele>3.468329</ele>
        <time>2024-07-14T06:52:07.000Z</time>
      </trkpt>
      <trkpt lat="50.791178" lon="0.277291">
        <ele>3.418954</ele>
        <time>2024-07-14T06:52:08.000Z</time>
      </trkpt>
      <trkpt lat="50.791182" lon="0.277288">
        <ele>3.418956</ele>
        <time>2024-07-14T06:52:08.000Z</time>
      </trkpt>
      <trkpt lat="50.791171" lon="0.27729">
        <ele>3.417336</ele>
        <time>2024-07-14T06:52:08.000Z</time>
      </trkpt>
      <trkpt lat="50.791206" lon="0.277391">
        <ele>3.353124</ele>
        <time>2024-07-14T06:52:09.000Z</time>
      </trkpt>
      <trkpt lat="50.791208" lon="0.277435">
        <ele>3.325819</ele>
        <time>2024-07-14T06:52:09.000Z</time>
      </trkpt>
      <trkpt lat="50.791263" lon="0.277701">
        <ele>3.147231</ele>
        <time>2024-07-14T06:52:11.000Z</time>
      </trkpt>
      <trkpt lat="50.791328" lon="0.277898">
        <ele>3.012422</ele>
        <time>2024-07-14T06:52:13.000Z</time>
      </trkpt>
      <trkpt lat="50.791344" lon="0.277911">
        <ele>2.976789</ele>
        <time>2024-07-14T06:52:13.000Z</time>
      </trkpt>
      <trkpt lat="50.791398" lon="0.277982">
        <ele>2.916896</ele>
        <time>2024-07-14T06:52:14.000Z</time>
      </trkpt>
      <trkpt lat="50.791436" lon="0.278134">
        <ele>2.81938</ele>
        <time>2024-07-14T06:52:15.000Z</time>
      </trkpt>
      <trkpt lat="50.791411" lon="0.278315">
        <ele>2.698351</ele>
        <time>2024-07-14T06:52:16.000Z</time>
      </trkpt>
      <trkpt lat="50.791381" lon="0.278411">
        <ele>2.623243</ele>
        <time>2024-07-14T06:52:17.000Z</time>
      </trkpt>
      <trkpt lat="50.791324" lon="0.278474">
        <ele>2.560231</ele>
        <time>2024-07-14T06:52:18.000Z</time>
      </trkpt>
      <trkpt lat="50.791254" lon="0.278979">
        <ele>2.376389</ele>
        <time>2024-07-14T06:52:22.000Z</time>
      </trkpt>
      <trkpt lat="50.791203" lon="0.279138">
        <ele>2.356553</ele>
        <time>2024-07-14T06:52:23.000Z</time>
      </trkpt>
      <trkpt lat="50.791189" lon="0.279951">
        <ele>2.269814</ele>
        <time>2024-07-14T06:52:29.000Z</time>
      </trkpt>
      <trkpt lat="50.791188" lon="0.281169">
        <ele>2.142876</ele>
        <time>2024-07-14T06:52:38.000Z</time>
      </trkpt>
      <trkpt lat="50.791209" lon="0.281674">
        <ele>2.178529</ele>
        <time>2024-07-14T06:52:42.000Z</time>
      </trkpt>
      <trkpt lat="50.791245" lon="0.282043">
        <ele>2.37513</ele>
        <time>2024-07-14T06:52:45.000Z</time>
      </trkpt>
      <trkpt lat="50.791392" lon="0.282868">
        <ele>2.817187</ele>
        <time>2024-07-14T06:52:51.000Z</time>
      </trkpt>
      <trkpt lat="50.791589" lon="0.283488">
        <ele>3.174522</ele>
        <time>2024-07-14T06:52:56.000Z</time>
      </trkpt>
      <trkpt lat="50.791815" lon="0.28406">
        <ele>3.537586</ele>
        <time>2024-07-14T06:53:01.000Z</time>
      </trkpt>
      <trkpt lat="50.793025" lon="0.286403">
        <ele>3.643827</ele>
        <time>2024-07-14T06:53:22.000Z</time>
      </trkpt>
      <trkpt lat="50.793611" lon="0.287627">
        <ele>2.830426</ele>
        <time>2024-07-14T06:53:33.000Z</time>
      </trkpt>
      <trkpt lat="50.793678" lon="0.287669">
        <ele>2.777974</ele>
        <time>2024-07-14T06:53:34.000Z</time>
      </trkpt>
      <trkpt lat="50.793711" lon="0.287719">
        <ele>2.725675</ele>
        <time>2024-07-14T06:53:35.000Z</time>
      </trkpt>
      <trkpt lat="50.793803" lon="0.287807">
        <ele>2.643864</ele>
        <time>2024-07-14T06:53:36.000Z</time>
      </trkpt>
      <trkpt lat="50.793925" lon="0.287906">
        <ele>2.525608</ele>
        <time>2024-07-14T06:53:38.000Z</time>
      </trkpt>
      <trkpt lat="50.794007" lon="0.287931">
        <ele>2.463584</ele>
        <time>2024-07-14T06:53:39.000Z</time>
      </trkpt>
      <trkpt lat="50.794031" lon="0.287922">
        <ele>2.438033</ele>
        <time>2024-07-14T06:53:39.000Z</time>
      </trkpt>
      <trkpt lat="50.794088" lon="0.287921">
        <ele>2.396363</ele>
        <time>2024-07-14T06:53:40.000Z</time>
      </trkpt>
      <trkpt lat="50.794201" lon="0.287976">
        <ele>2.292955</ele>
        <time>2024-07-14T06:53:41.000Z</time>
      </trkpt>
      <trkpt lat="50.794274" lon="0.288081">
        <ele>2.204614</ele>
        <time>2024-07-14T06:53:42.000Z</time>
      </trkpt>
      <trkpt lat="50.794321" lon="0.288241">
        <ele>2.136666</ele>
        <time>2024-07-14T06:53:43.000Z</time>
      </trkpt>
      <trkpt lat="50.794337" lon="0.2883">
        <ele>2.115936</ele>
        <time>2024-07-14T06:53:43.000Z</time>
      </trkpt>
      <trkpt lat="50.794333" lon="0.28835">
        <ele>2.097805</ele>
        <time>2024-07-14T06:53:43.000Z</time>
      </trkpt>
      <trkpt lat="50.794588" lon="0.288823">
        <ele>1.882924</ele>
        <time>2024-07-14T06:53:47.000Z</time>
      </trkpt>
      <trkpt lat="50.795153" lon="0.289828">
        <ele>1.421329</ele>
        <time>2024-07-14T06:53:56.000Z</time>
      </trkpt>
      <trkpt lat="50.795592" lon="0.290605">
        <ele>1.310199</ele>
        <time>2024-07-14T06:54:03.000Z</time>
      </trkpt>
      <trkpt lat="50.795757" lon="0.29083">
        <ele>1.404645</ele>
        <time>2024-07-14T06:54:05.000Z</time>
      </trkpt>
      <trkpt lat="50.795747" lon="0.290828">
        <ele>1.404645</ele>
        <time>2024-07-14T06:54:05.000Z</time>
      </trkpt>
      <trkpt lat="50.795757" lon="0.290821">
        <ele>1.405615</ele>
        <time>2024-07-14T06:54:05.000Z</time>
      </trkpt>
      <trkpt lat="50.79583" lon="0.290929">
        <ele>1.45113</ele>
        <time>2024-07-14T06:54:06.000Z</time>
      </trkpt>
      <trkpt lat="50.796221" lon="0.291339">
        <ele>1.670285</ele>
        <time>2024-07-14T06:54:11.000Z</time>
      </trkpt>
      <trkpt lat="50.796658" lon="0.291647">
        <ele>1.883407</ele>
        <time>2024-07-14T06:54:16.000Z</time>
      </trkpt>
      <trkpt lat="50.796955" lon="0.291799">
        <ele>2.020782</ele>
        <time>2024-07-14T06:54:19.000Z</time>
      </trkpt>
      <trkpt lat="50.797162" lon="0.291887">
        <ele>2.012151</ele>
        <time>2024-07-14T06:54:21.000Z</time>
      </trkpt>
      <trkpt lat="50.797394" lon="0.29193">
        <ele>2.003657</ele>
        <time>2024-07-14T06:54:24.000Z</time>
      </trkpt>
      <trkpt lat="50.797574" lon="0.291941">
        <ele>1.996372</ele>
        <time>2024-07-14T06:54:26.000Z</time>
      </trkpt>
      <trkpt lat="50.797733" lon="0.291935">
        <ele>1.990649</ele>
        <time>2024-07-14T06:54:28.000Z</time>
      </trkpt>
      <trkpt lat="50.797974" lon="0.291867">
        <ele>1.980932</ele>
        <time>2024-07-14T06:54:31.000Z</time>
      </trkpt>
      <trkpt lat="50.798165" lon="0.291798">
        <ele>1.973785</ele>
        <time>2024-07-14T06:54:33.000Z</time>
      </trkpt>
      <trkpt lat="50.798291" lon="0.291708">
        <ele>1.968439</ele>
        <time>2024-07-14T06:54:35.000Z</time>
      </trkpt>
      <trkpt lat="50.798439" lon="0.291529">
        <ele>1.961247</ele>
        <time>2024-07-14T06:54:37.000Z</time>
      </trkpt>
      <trkpt lat="50.798437" lon="0.291387">
        <ele>1.957829</ele>
        <time>2024-07-14T06:54:38.000Z</time>
      </trkpt>
      <trkpt lat="50.798465" lon="0.291222">
        <ele>1.953804</ele>
        <time>2024-07-14T06:54:39.000Z</time>
      </trkpt>
      <trkpt lat="50.798533" lon="0.291084">
        <ele>1.936709</ele>
        <time>2024-07-14T06:54:40.000Z</time>
      </trkpt>
      <trkpt lat="50.798624" lon="0.291028">
        <ele>1.919982</ele>
        <time>2024-07-14T06:54:41.000Z</time>
      </trkpt>
      <trkpt lat="50.798703" lon="0.291002">
        <ele>1.905283</ele>
        <time>2024-07-14T06:54:42.000Z</time>
      </trkpt>
      <trkpt lat="50.798736" lon="0.291015">
        <ele>1.899795</ele>
        <time>2024-07-14T06:54:42.000Z</time>
      </trkpt>
      <trkpt lat="50.799095" lon="0.290918">
        <ele>1.832872</ele>
        <time>2024-07-14T06:54:46.000Z</time>
      </trkpt>
      <trkpt lat="50.799897" lon="0.290573">
        <ele>1.679478</ele>
        <time>2024-07-14T06:54:55.000Z</time>
      </trkpt>
      <trkpt lat="50.800764" lon="0.290155">
        <ele>1.613292</ele>
        <time>2024-07-14T06:55:05.000Z</time>
      </trkpt>
      <trkpt lat="50.801119" lon="0.289983">
        <ele>1.607182</ele>
        <time>2024-07-14T06:55:09.000Z</time>
      </trkpt>
      <trkpt lat="50.801903" lon="0.289481">
        <ele>1.59113</ele>
        <time>2024-07-14T06:55:18.000Z</time>
      </trkpt>
      <trkpt lat="50.802345" lon="0.289126">
        <ele>1.538674</ele>
        <time>2024-07-14T06:55:24.000Z</time>
      </trkpt>
      <trkpt lat="50.802765" lon="0.288769">
        <ele>1.488732</ele>
        <time>2024-07-14T06:55:29.000Z</time>
      </trkpt>
      <trkpt lat="50.803253" lon="0.288263">
        <ele>1.425727</ele>
        <time>2024-07-14T06:55:35.000Z</time>
      </trkpt>
      <trkpt lat="50.803841" lon="0.287566">
        <ele>1.664026</ele>
        <time>2024-07-14T06:55:43.000Z</time>
      </trkpt>
      <trkpt lat="50.804479" lon="0.286662">
        <ele>2.094923</ele>
        <time>2024-07-14T06:55:53.000Z</time>
      </trkpt>
      <trkpt lat="50.804943" lon="0.285857">
        <ele>2.366989</ele>
        <time>2024-07-14T06:56:01.000Z</time>
      </trkpt>
      <trkpt lat="50.805624" lon="0.284594">
        <ele>2.580159</ele>
        <time>2024-07-14T06:56:13.000Z</time>
      </trkpt>
      <trkpt lat="50.806274" lon="0.283457">
        <ele>2.864098</ele>
        <time>2024-07-14T06:56:24.000Z</time>
      </trkpt>
      <trkpt lat="50.806891" lon="0.282506">
        <ele>3.191385</ele>
        <time>2024-07-14T06:56:34.000Z</time>
      </trkpt>
      <trkpt lat="50.807105" lon="0.282191">
        <ele>3.305058</ele>
        <time>2024-07-14T06:56:37.000Z</time>
      </trkpt>
      <trkpt lat="50.807108" lon="0.282195">
        <ele>3.305064</ele>
        <time>2024-07-14T06:56:37.000Z</time>
      </trkpt>
      <trkpt lat="50.807113" lon="0.282189">
        <ele>3.305672</ele>
        <time>2024-07-14T06:56:37.000Z</time>
      </trkpt>
      <trkpt lat="50.807184" lon="0.282071">
        <ele>3.348605</ele>
        <time>2024-07-14T06:56:38.000Z</time>
      </trkpt>
      <trkpt lat="50.807801" lon="0.281321">
        <ele>3.272882</ele>
        <time>2024-07-14T06:56:47.000Z</time>
      </trkpt>
      <trkpt lat="50.808129" lon="0.280951">
        <ele>3.21912</ele>
        <time>2024-07-14T06:56:51.000Z</time>
      </trkpt>
      <trkpt lat="50.808744" lon="0.280304">
        <ele>3.110304</ele>
        <time>2024-07-14T06:56:59.000Z</time>
      </trkpt>
      <trkpt lat="50.809517" lon="0.279578">
        <ele>2.901154</ele>
        <time>2024-07-14T06:57:09.000Z</time>
      </trkpt>
      <trkpt lat="50.810394" lon="0.278841">
        <ele>2.730388</ele>
        <time>2024-07-14T06:57:20.000Z</time>
      </trkpt>
      <trkpt lat="50.811375" lon="0.278113">
        <ele>2.902968</ele>
        <time>2024-07-14T06:57:32.000Z</time>
      </trkpt>
      <trkpt lat="50.812379" lon="0.277521">
        <ele>4.023005</ele>
        <time>2024-07-14T06:57:44.000Z</time>
      </trkpt>
      <trkpt lat="50.813046" lon="0.277132">
        <ele>5.514001</ele>
        <time>2024-07-14T06:57:52.000Z</time>
      </trkpt>
      <trkpt lat="50.813507" lon="0.276927">
        <ele>6.487752</ele>
        <time>2024-07-14T06:57:57.000Z</time>
      </trkpt>
      <trkpt lat="50.814438" lon="0.276532">
        <ele>8.880903</ele>
        <time>2024-07-14T06:58:08.000Z</time>
      </trkpt>
      <trkpt lat="50.815533" lon="0.276172">
        <ele>11.36678</ele>
        <time>2024-07-14T06:58:20.000Z</time>
      </trkpt>
      <trkpt lat="50.816056" lon="0.276025">
        <ele>11.584596</ele>
        <time>2024-07-14T06:58:26.000Z</time>
      </trkpt>
      <trkpt lat="50.816067" lon="0.276029">
        <ele>11.5846</ele>
        <time>2024-07-14T06:58:26.000Z</time>
      </trkpt>
      <trkpt lat="50.816068" lon="0.276015">
        <ele>11.585448</ele>
        <time>2024-07-14T06:58:26.000Z</time>
      </trkpt>
      <trkpt lat="50.816176" lon="0.275986">
        <ele>11.633339</ele>
        <time>2024-07-14T06:58:27.000Z</time>
      </trkpt>
      <trkpt lat="50.818165" lon="0.275421">
        <ele>10.648394</ele>
        <time>2024-07-14T06:58:49.000Z</time>
      </trkpt>
      <trkpt lat="50.818981" lon="0.27522">
        <ele>9.451299</ele>
        <time>2024-07-14T06:58:58.000Z</time>
      </trkpt>
      <trkpt lat="50.819226" lon="0.275136">
        <ele>8.802248</ele>
        <time>2024-07-14T06:59:01.000Z</time>
      </trkpt>
      <trkpt lat="50.819304" lon="0.274954">
        <ele>8.436357</ele>
        <time>2024-07-14T06:59:03.000Z</time>
      </trkpt>
      <trkpt lat="50.819362" lon="0.274893">
        <ele>8.226875</ele>
        <time>2024-07-14T06:59:04.000Z</time>
      </trkpt>
      <trkpt lat="50.819468" lon="0.274885">
        <ele>7.989464</ele>
        <time>2024-07-14T06:59:05.000Z</time>
      </trkpt>
      <trkpt lat="50.819538" lon="0.274928">
        <ele>7.76868</ele>
        <time>2024-07-14T06:59:06.000Z</time>
      </trkpt>
      <trkpt lat="50.819608" lon="0.275013">
        <ele>7.551149</ele>
        <time>2024-07-14T06:59:07.000Z</time>
      </trkpt>
      <trkpt lat="50.819752" lon="0.275036">
        <ele>7.15328</ele>
        <time>2024-07-14T06:59:09.000Z</time>
      </trkpt>
      <trkpt lat="50.820152" lon="0.275073">
        <ele>6.104664</ele>
        <time>2024-07-14T06:59:13.000Z</time>
      </trkpt>
      <trkpt lat="50.820147" lon="0.275068">
        <ele>6.102024</ele>
        <time>2024-07-14T06:59:13.000Z</time>
      </trkpt>
      <trkpt lat="50.820144" lon="0.275079">
        <ele>6.099402</ele>
        <time>2024-07-14T06:59:13.000Z</time>
      </trkpt>
      <trkpt lat="50.820261" lon="0.275084">
        <ele>5.809542</ele>
        <time>2024-07-14T06:59:14.000Z</time>
      </trkpt>
      <trkpt lat="50.820709" lon="0.275109">
        <ele>4.883</ele>
        <time>2024-07-14T06:59:19.000Z</time>
      </trkpt>
      <trkpt lat="50.820885" lon="0.2751">
        <ele>4.789624</ele>
        <time>2024-07-14T06:59:21.000Z</time>
      </trkpt>
      <trkpt lat="50.821052" lon="0.275019">
        <ele>4.707192</ele>
        <time>2024-07-14T06:59:23.000Z</time>
      </trkpt>
      <trkpt lat="50.82106" lon="0.274997">
        <ele>4.696664</ele>
        <time>2024-07-14T06:59:23.000Z</time>
      </trkpt>
      <trkpt lat="50.821101" lon="0.274956">
        <ele>4.669135</ele>
        <time>2024-07-14T06:59:24.000Z</time>
      </trkpt>
      <trkpt lat="50.821218" lon="0.274779">
        <ele>4.593621</ele>
        <time>2024-07-14T06:59:26.000Z</time>
      </trkpt>
      <trkpt lat="50.821386" lon="0.274463">
        <ele>4.469381</ele>
        <time>2024-07-14T06:59:29.000Z</time>
      </trkpt>
      <trkpt lat="50.821712" lon="0.273721">
        <ele>4.185743</ele>
        <time>2024-07-14T06:59:35.000Z</time>
      </trkpt>
      <trkpt lat="50.822247" lon="0.272614">
        <ele>4.239922</ele>
        <time>2024-07-14T06:59:45.000Z</time>
      </trkpt>
      <trkpt lat="50.822753" lon="0.271625">
        <ele>4.486691</ele>
        <time>2024-07-14T06:59:54.000Z</time>
      </trkpt>
      <trkpt lat="50.823325" lon="0.270571">
        <ele>4.573628</ele>
        <time>2024-07-14T07:00:04.000Z</time>
      </trkpt>
      <trkpt lat="50.823332" lon="0.270576">
        <ele>4.573553</ele>
        <time>2024-07-14T07:00:04.000Z</time>
      </trkpt>
      <trkpt lat="50.823331" lon="0.270566">
        <ele>4.573455</ele>
        <time>2024-07-14T07:00:04.000Z</time>
      </trkpt>
      <trkpt lat="50.823405" lon="0.270432">
        <ele>4.565525</ele>
        <time>2024-07-14T07:00:05.000Z</time>
      </trkpt>
      <trkpt lat="50.823417" lon="0.270443">
        <ele>4.565105</ele>
        <time>2024-07-14T07:00:05.000Z</time>
      </trkpt>
      <trkpt lat="50.823702" lon="0.269901">
        <ele>4.535531</ele>
        <time>2024-07-14T07:00:10.000Z</time>
      </trkpt>
      <trkpt lat="50.824173" lon="0.268997">
        <ele>4.48835</ele>
        <time>2024-07-14T07:00:18.000Z</time>
      </trkpt>
      <trkpt lat="50.824746" lon="0.267729">
        <ele>4.523369</ele>
        <time>2024-07-14T07:00:29.000Z</time>
      </trkpt>
      <trkpt lat="50.825126" lon="0.266726">
        <ele>4.549926</ele>
        <time>2024-07-14T07:00:37.000Z</time>
      </trkpt>
      <trkpt lat="50.825414" lon="0.265919">
        <ele>5.327781</ele>
        <time>2024-07-14T07:00:44.000Z</time>
      </trkpt>
      <trkpt lat="50.825697" lon="0.264995">
        <ele>6.26853</ele>
        <time>2024-07-14T07:00:51.000Z</time>
      </trkpt>
      <trkpt lat="50.82608" lon="0.263496">
        <ele>7.649865</ele>
        <time>2024-07-14T07:01:02.000Z</time>
      </trkpt>
      <trkpt lat="50.826282" lon="0.262587">
        <ele>8.332657</ele>
        <time>2024-07-14T07:01:09.000Z</time>
      </trkpt>
      <trkpt lat="50.826404" lon="0.261911">
        <ele>8.841118</ele>
        <time>2024-07-14T07:01:14.000Z</time>
      </trkpt>
      <trkpt lat="50.826622" lon="0.260648">
        <ele>8.686384</ele>
        <time>2024-07-14T07:01:23.000Z</time>
      </trkpt>
      <trkpt lat="50.826806" lon="0.25913">
        <ele>7.554037</ele>
        <time>2024-07-14T07:01:34.000Z</time>
      </trkpt>
      <trkpt lat="50.82701" lon="0.256844">
        <ele>6.256033</ele>
        <time>2024-07-14T07:01:50.000Z</time>
      </trkpt>
      <trkpt lat="50.827166" lon="0.255569">
        <ele>5.846644</ele>
        <time>2024-07-14T07:01:59.000Z</time>
      </trkpt>
      <trkpt lat="50.827452" lon="0.253925">
        <ele>6.981313</ele>
        <time>2024-07-14T07:02:11.000Z</time>
      </trkpt>
      <trkpt lat="50.827883" lon="0.252089">
        <ele>8.645787</ele>
        <time>2024-07-14T07:02:25.000Z</time>
      </trkpt>
      <trkpt lat="50.828569" lon="0.249716">
        <ele>11.05418</ele>
        <time>2024-07-14T07:02:43.000Z</time>
      </trkpt>
      <trkpt lat="50.82878" lon="0.248696">
        <ele>11.857363</ele>
        <time>2024-07-14T07:02:51.000Z</time>
      </trkpt>
      <trkpt lat="50.82895" lon="0.247868">
        <ele>12.520458</ele>
        <time>2024-07-14T07:02:57.000Z</time>
      </trkpt>
      <trkpt lat="50.829052" lon="0.247152">
        <ele>12.666603</ele>
        <time>2024-07-14T07:03:02.000Z</time>
      </trkpt>
      <trkpt lat="50.829117" lon="0.246483">
        <ele>12.740455</ele>
        <time>2024-07-14T07:03:07.000Z</time>
      </trkpt>
      <trkpt lat="50.829157" lon="0.245906">
        <ele>12.802271</ele>
        <time>2024-07-14T07:03:11.000Z</time>
      </trkpt>
      <trkpt lat="50.829146" lon="0.245914">
        <ele>12.802363</ele>
        <time>2024-07-14T07:03:11.000Z</time>
      </trkpt>
      <trkpt lat="50.82915" lon="0.245898">
        <ele>12.802596</ele>
        <time>2024-07-14T07:03:11.000Z</time>
      </trkpt>
      <trkpt lat="50.829179" lon="0.245637">
        <ele>12.831975</ele>
        <time>2024-07-14T07:03:13.000Z</time>
      </trkpt>
      <trkpt lat="50.829179" lon="0.24514">
        <ele>12.884505</ele>
        <time>2024-07-14T07:03:16.000Z</time>
      </trkpt>
      <trkpt lat="50.829147" lon="0.244139">
        <ele>12.970984</ele>
        <time>2024-07-14T07:03:23.000Z</time>
      </trkpt>
      <trkpt lat="50.829032" lon="0.243089">
        <ele>13.057841</ele>
        <time>2024-07-14T07:03:30.000Z</time>
      </trkpt>
      <trkpt lat="50.828811" lon="0.24156">
        <ele>13.273396</ele>
        <time>2024-07-14T07:03:41.000Z</time>
      </trkpt>
      <trkpt lat="50.828707" lon="0.240623">
        <ele>13.495548</ele>
        <time>2024-07-14T07:03:48.000Z</time>
      </trkpt>
      <trkpt lat="50.828675" lon="0.240499">
        <ele>13.528057</ele>
        <time>2024-07-14T07:03:49.000Z</time>
      </trkpt>
      <trkpt lat="50.82862" lon="0.240343">
        <ele>13.569734</ele>
        <time>2024-07-14T07:03:50.000Z</time>
      </trkpt>
      <trkpt lat="50.828517" lon="0.240154">
        <ele>13.627801</ele>
        <time>2024-07-14T07:03:52.000Z</time>
      </trkpt>
      <trkpt lat="50.828487" lon="0.240149">
        <ele>13.639202</ele>
        <time>2024-07-14T07:03:52.000Z</time>
      </trkpt>
      <trkpt lat="50.828437" lon="0.240139">
        <ele>13.657933</ele>
        <time>2024-07-14T07:03:53.000Z</time>
      </trkpt>
      <trkpt lat="50.828351" lon="0.240078">
        <ele>13.694223</ele>
        <time>2024-07-14T07:03:54.000Z</time>
      </trkpt>
      <trkpt lat="50.828205" lon="0.239926">
        <ele>13.760181</ele>
        <time>2024-07-14T07:03:56.000Z</time>
      </trkpt>
      <trkpt lat="50.828075" lon="0.239677">
        <ele>13.821943</ele>
        <time>2024-07-14T07:03:58.000Z</time>
      </trkpt>
      <trkpt lat="50.828023" lon="0.239528">
        <ele>13.842251</ele>
        <time>2024-07-14T07:03:59.000Z</time>
      </trkpt>
      <trkpt lat="50.827987" lon="0.239274">
        <ele>13.875599</ele>
        <time>2024-07-14T07:04:01.000Z</time>
      </trkpt>
      <trkpt lat="50.828023" lon="0.238938">
        <ele>13.918408</ele>
        <time>2024-07-14T07:04:03.000Z</time>
      </trkpt>
      <trkpt lat="50.828082" lon="0.238679">
        <ele>13.951753</ele>
        <time>2024-07-14T07:04:05.000Z</time>
      </trkpt>
      <trkpt lat="50.828241" lon="0.238396">
        <ele>14.001084</ele>
        <time>2024-07-14T07:04:08.000Z</time>
      </trkpt>
      <trkpt lat="50.828349" lon="0.238283">
        <ele>14.02442</ele>
        <time>2024-07-14T07:04:09.000Z</time>
      </trkpt>
      <trkpt lat="50.828464" lon="0.23823">
        <ele>14.049267</ele>
        <time>2024-07-14T07:04:10.000Z</time>
      </trkpt>
      <trkpt lat="50.828553" lon="0.238208">
        <ele>14.064932</ele>
        <time>2024-07-14T07:04:11.000Z</time>
      </trkpt>
      <trkpt lat="50.828554" lon="0.238222">
        <ele>14.064937</ele>
        <time>2024-07-14T07:04:11.000Z</time>
      </trkpt>
      <trkpt lat="50.828547" lon="0.238218">
        <ele>14.065339</ele>
        <time>2024-07-14T07:04:11.000Z</time>
      </trkpt>
      <trkpt lat="50.828596" lon="0.238213">
        <ele>14.073074</ele>
        <time>2024-07-14T07:04:12.000Z</time>
      </trkpt>
      <trkpt lat="50.828716" lon="0.238211">
        <ele>14.096806</ele>
        <time>2024-07-14T07:04:13.000Z</time>
      </trkpt>
      <trkpt lat="50.828738" lon="0.238223">
        <ele>14.100752</ele>
        <time>2024-07-14T07:04:13.000Z</time>
      </trkpt>
      <trkpt lat="50.828859" lon="0.238275">
        <ele>14.12747</ele>
        <time>2024-07-14T07:04:14.000Z</time>
      </trkpt>
      <trkpt lat="50.828893" lon="0.238306">
        <ele>14.136203</ele>
        <time>2024-07-14T07:04:14.000Z</time>
      </trkpt>
      <trkpt lat="50.828999" lon="0.238405">
        <ele>14.157217</ele>
        <time>2024-07-14T07:04:15.000Z</time>
      </trkpt>
      <trkpt lat="50.829076" lon="0.238538">
        <ele>14.031584</ele>
        <time>2024-07-14T07:04:16.000Z</time>
      </trkpt>
      <trkpt lat="50.829342" lon="0.238692">
        <ele>13.672227</ele>
        <time>2024-07-14T07:04:19.000Z</time>
      </trkpt>
      <trkpt lat="50.829494" lon="0.238768">
        <ele>13.474924</ele>
        <time>2024-07-14T07:04:21.000Z</time>
      </trkpt>
      <trkpt lat="50.829642" lon="0.238814">
        <ele>13.297587</ele>
        <time>2024-07-14T07:04:23.000Z</time>
      </trkpt>
      <trkpt lat="50.829907" lon="0.23879">
        <ele>12.960678</ele>
        <time>2024-07-14T07:04:26.000Z</time>
      </trkpt>
      <trkpt lat="50.829939" lon="0.238776">
        <ele>12.922463</ele>
        <time>2024-07-14T07:04:26.000Z</time>
      </trkpt>
      <trkpt lat="50.831016" lon="0.238614">
        <ele>11.913727</ele>
        <time>2024-07-14T07:04:38.000Z</time>
      </trkpt>
      <trkpt lat="50.832522" lon="0.238403">
        <ele>11.886199</ele>
        <time>2024-07-14T07:04:55.000Z</time>
      </trkpt>
      <trkpt lat="50.833386" lon="0.238336">
        <ele>14.251222</ele>
        <time>2024-07-14T07:05:05.000Z</time>
      </trkpt>
      <trkpt lat="50.834077" lon="0.238306">
        <ele>16.153002</ele>
        <time>2024-07-14T07:05:13.000Z</time>
      </trkpt>
      <trkpt lat="50.835001" lon="0.238303">
        <ele>19.398001</ele>
        <time>2024-07-14T07:05:23.000Z</time>
      </trkpt>
      <trkpt lat="50.836215" lon="0.238394">
        <ele>23.876823</ele>
        <time>2024-07-14T07:05:37.000Z</time>
      </trkpt>
      <trkpt lat="50.836527" lon="0.238448">
        <ele>24.436427</ele>
        <time>2024-07-14T07:05:40.000Z</time>
      </trkpt>
      <trkpt lat="50.836517" lon="0.238441">
        <ele>24.436421</ele>
        <time>2024-07-14T07:05:40.000Z</time>
      </trkpt>
      <trkpt lat="50.836519" lon="0.238447">
        <ele>24.438298</ele>
        <time>2024-07-14T07:05:40.000Z</time>
      </trkpt>
      <trkpt lat="50.836694" lon="0.238486">
        <ele>24.778128</ele>
        <time>2024-07-14T07:05:42.000Z</time>
      </trkpt>
      <trkpt lat="50.837447" lon="0.238613">
        <ele>26.169824</ele>
        <time>2024-07-14T07:05:50.000Z</time>
      </trkpt>
      <trkpt lat="50.838394" lon="0.238844">
        <ele>28.169143</ele>
        <time>2024-07-14T07:06:01.000Z</time>
      </trkpt>
      <trkpt lat="50.839205" lon="0.2391">
        <ele>29.999903</ele>
        <time>2024-07-14T07:06:10.000Z</time>
      </trkpt>
      <trkpt lat="50.839582" lon="0.239257">
        <ele>30.879166</ele>
        <time>2024-07-14T07:06:14.000Z</time>
      </trkpt>
      <trkpt lat="50.839855" lon="0.239379">
        <ele>31.326165</ele>
        <time>2024-07-14T07:06:17.000Z</time>
      </trkpt>
      <trkpt lat="50.840165" lon="0.239564">
        <ele>31.700749</ele>
        <time>2024-07-14T07:06:21.000Z</time>
      </trkpt>
      <trkpt lat="50.840627" lon="0.239924">
        <ele>32.299846</ele>
        <time>2024-07-14T07:06:27.000Z</time>
      </trkpt>
      <trkpt lat="50.841229" lon="0.240413">
        <ele>33.101839</ele>
        <time>2024-07-14T07:06:35.000Z</time>
      </trkpt>
      <trkpt lat="50.841584" lon="0.240623">
        <ele>33.444197</ele>
        <time>2024-07-14T07:06:39.000Z</time>
      </trkpt>
      <trkpt lat="50.842299" lon="0.240866">
        <ele>34.067473</ele>
        <time>2024-07-14T07:06:47.000Z</time>
      </trkpt>
      <trkpt lat="50.84275" lon="0.241023">
        <ele>34.458162</ele>
        <time>2024-07-14T07:06:52.000Z</time>
      </trkpt>
      <trkpt lat="50.843806" lon="0.241337">
        <ele>34.94276</ele>
        <time>2024-07-14T07:07:04.000Z</time>
      </trkpt>
      <trkpt lat="50.844198" lon="0.24142">
        <ele>35.05801</ele>
        <time>2024-07-14T07:07:08.000Z</time>
      </trkpt>
      <trkpt lat="50.844193" lon="0.241413">
        <ele>35.058008</ele>
        <time>2024-07-14T07:07:08.000Z</time>
      </trkpt>
      <trkpt lat="50.844204" lon="0.241418">
        <ele>35.05836</ele>
        <time>2024-07-14T07:07:08.000Z</time>
      </trkpt>
      <trkpt lat="50.844382" lon="0.241454">
        <ele>35.112466</ele>
        <time>2024-07-14T07:07:10.000Z</time>
      </trkpt>
      <trkpt lat="50.846199" lon="0.241842">
        <ele>33.645787</ele>
        <time>2024-07-14T07:07:30.000Z</time>
      </trkpt>
      <trkpt lat="50.847153" lon="0.24218">
        <ele>32.125555</ele>
        <time>2024-07-14T07:07:41.000Z</time>
      </trkpt>
      <trkpt lat="50.848166" lon="0.242604">
        <ele>30.169916</ele>
        <time>2024-07-14T07:07:53.000Z</time>
      </trkpt>
      <trkpt lat="50.848798" lon="0.242843">
        <ele>29.188464</ele>
        <time>2024-07-14T07:08:00.000Z</time>
      </trkpt>
      <trkpt lat="50.849506" lon="0.243014">
        <ele>28.245321</ele>
        <time>2024-07-14T07:08:08.000Z</time>
      </trkpt>
      <trkpt lat="50.850217" lon="0.243139">
        <ele>27.304313</ele>
        <time>2024-07-14T07:08:16.000Z</time>
      </trkpt>
      <trkpt lat="50.850993" lon="0.243174">
        <ele>26.450646</ele>
        <time>2024-07-14T07:08:25.000Z</time>
      </trkpt>
      <trkpt lat="50.852018" lon="0.243234">
        <ele>25.46759</ele>
        <time>2024-07-14T07:08:36.000Z</time>
      </trkpt>
      <trkpt lat="50.852141" lon="0.243194">
        <ele>25.512493</ele>
        <time>2024-07-14T07:08:37.000Z</time>
      </trkpt>
      <trkpt lat="50.852244" lon="0.243115">
        <ele>25.557822</ele>
        <time>2024-07-14T07:08:38.000Z</time>
      </trkpt>
      <trkpt lat="50.852281" lon="0.243025">
        <ele>25.57933</ele>
        <time>2024-07-14T07:08:39.000Z</time>
      </trkpt>
      <trkpt lat="50.852313" lon="0.242987">
        <ele>25.595263</ele>
        <time>2024-07-14T07:08:39.000Z</time>
      </trkpt>
      <trkpt lat="50.852387" lon="0.242934">
        <ele>25.623379</ele>
        <time>2024-07-14T07:08:40.000Z</time>
      </trkpt>
      <trkpt lat="50.852475" lon="0.242902">
        <ele>25.656644</ele>
        <time>2024-07-14T07:08:41.000Z</time>
      </trkpt>
      <trkpt lat="50.852539" lon="0.242958">
        <ele>25.68389</ele>
        <time>2024-07-14T07:08:42.000Z</time>
      </trkpt>
      <trkpt lat="50.852625" lon="0.243055">
        <ele>25.722673</ele>
        <time>2024-07-14T07:08:43.000Z</time>
      </trkpt>
      <trkpt lat="50.852888" lon="0.243167">
        <ele>25.820854</ele>
        <time>2024-07-14T07:08:46.000Z</time>
      </trkpt>
      <trkpt lat="50.852885" lon="0.243175">
        <ele>25.820838</ele>
        <time>2024-07-14T07:08:46.000Z</time>
      </trkpt>
      <trkpt lat="50.852888" lon="0.243166">
        <ele>25.821207</ele>
        <time>2024-07-14T07:08:46.000Z</time>
      </trkpt>
      <trkpt lat="50.852879" lon="0.24317">
        <ele>25.821203</ele>
        <time>2024-07-14T07:08:46.000Z</time>
      </trkpt>
      <trkpt lat="50.853064" lon="0.243201">
        <ele>25.891378</ele>
        <time>2024-07-14T07:08:48.000Z</time>
      </trkpt>
      <trkpt lat="50.853309" lon="0.243213">
        <ele>25.975578</ele>
        <time>2024-07-14T07:08:51.000Z</time>
      </trkpt>
      <trkpt lat="50.854366" lon="0.243151">
        <ele>26.658019</ele>
        <time>2024-07-14T07:09:03.000Z</time>
      </trkpt>
      <trkpt lat="50.855946" lon="0.243006">
        <ele>26.678947</ele>
        <time>2024-07-14T07:09:21.000Z</time>
      </trkpt>
      <trkpt lat="50.856299" lon="0.242964">
        <ele>26.165248</ele>
        <time>2024-07-14T07:09:25.000Z</time>
      </trkpt>
      <trkpt lat="50.858476" lon="0.24254">
        <ele>21.705036</ele>
        <time>2024-07-14T07:09:49.000Z</time>
      </trkpt>
      <trkpt lat="50.859242" lon="0.24242">
        <ele>20.149756</ele>
        <time>2024-07-14T07:09:58.000Z</time>
      </trkpt>
      <trkpt lat="50.860151" lon="0.242337">
        <ele>19.024762</ele>
        <time>2024-07-14T07:10:08.000Z</time>
      </trkpt>
      <trkpt lat="50.861376" lon="0.242258">
        <ele>17.940832</ele>
        <time>2024-07-14T07:10:22.000Z</time>
      </trkpt>
      <trkpt lat="50.861363" lon="0.242266">
        <ele>17.940822</ele>
        <time>2024-07-14T07:10:22.000Z</time>
      </trkpt>
      <trkpt lat="50.861367" lon="0.242268">
        <ele>17.939761</ele>
        <time>2024-07-14T07:10:22.000Z</time>
      </trkpt>
      <trkpt lat="50.861569" lon="0.242256">
        <ele>17.840453</ele>
        <time>2024-07-14T07:10:24.000Z</time>
      </trkpt>
      <trkpt lat="50.862002" lon="0.242192">
        <ele>17.622122</ele>
        <time>2024-07-14T07:10:29.000Z</time>
      </trkpt>
      <trkpt lat="50.86217" lon="0.242117">
        <ele>17.531367</ele>
        <time>2024-07-14T07:10:31.000Z</time>
      </trkpt>
      <trkpt lat="50.862179" lon="0.242096">
        <ele>17.523206</ele>
        <time>2024-07-14T07:10:31.000Z</time>
      </trkpt>
      <trkpt lat="50.862186" lon="0.242043">
        <ele>17.509465</ele>
        <time>2024-07-14T07:10:31.000Z</time>
      </trkpt>
      <trkpt lat="50.862209" lon="0.242014">
        <ele>17.493146</ele>
        <time>2024-07-14T07:10:31.000Z</time>
      </trkpt>
      <trkpt lat="50.862248" lon="0.241956">
        <ele>17.471103</ele>
        <time>2024-07-14T07:10:32.000Z</time>
      </trkpt>
      <trkpt lat="50.862373" lon="0.241969">
        <ele>17.400216</ele>
        <time>2024-07-14T07:10:33.000Z</time>
      </trkpt>
      <trkpt lat="50.862404" lon="0.241971">
        <ele>17.388235</ele>
        <time>2024-07-14T07:10:33.000Z</time>
      </trkpt>
      <trkpt lat="50.862444" lon="0.242023">
        <ele>17.362432</ele>
        <time>2024-07-14T07:10:34.000Z</time>
      </trkpt>
      <trkpt lat="50.862455" lon="0.242062">
        <ele>17.351585</ele>
        <time>2024-07-14T07:10:34.000Z</time>
      </trkpt>
      <trkpt lat="50.86267" lon="0.242144">
        <ele>17.600794</ele>
        <time>2024-07-14T07:10:36.000Z</time>
      </trkpt>
      <trkpt lat="50.862846" lon="0.242153">
        <ele>17.864735</ele>
        <time>2024-07-14T07:10:38.000Z</time>
      </trkpt>
      <trkpt lat="50.863158" lon="0.242103">
        <ele>18.363127</ele>
        <time>2024-07-14T07:10:41.000Z</time>
      </trkpt>
      <trkpt lat="50.864384" lon="0.241908">
        <ele>20.282614</ele>
        <time>2024-07-14T07:10:55.000Z</time>
      </trkpt>
      <trkpt lat="50.865659" lon="0.241576">
        <ele>22.503834</ele>
        <time>2024-07-14T07:11:09.000Z</time>
      </trkpt>
      <trkpt lat="50.866454" lon="0.241315">
        <ele>24.605382</ele>
        <time>2024-07-14T07:11:18.000Z</time>
      </trkpt>
      <trkpt lat="50.867387" lon="0.240958">
        <ele>27.99468</ele>
        <time>2024-07-14T07:11:29.000Z</time>
      </trkpt>
      <trkpt lat="50.868337" lon="0.240518">
        <ele>29.929774</ele>
        <time>2024-07-14T07:11:40.000Z</time>
      </trkpt>
      <trkpt lat="50.868347" lon="0.240511">
        <ele>29.930238</ele>
        <time>2024-07-14T07:11:40.000Z</time>
      </trkpt>
      <trkpt lat="50.868355" lon="0.240507">
        <ele>29.931775</ele>
        <time>2024-07-14T07:11:40.000Z</time>
      </trkpt>
      <trkpt lat="50.868393" lon="0.240492">
        <ele>29.974666</ele>
        <time>2024-07-14T07:11:40.000Z</time>
      </trkpt>
      <trkpt lat="50.868526" lon="0.240428">
        <ele>30.077884</ele>
        <time>2024-07-14T07:11:42.000Z</time>
      </trkpt>
      <trkpt lat="50.869388" lon="0.239976">
        <ele>30.769855</ele>
        <time>2024-07-14T07:11:52.000Z</time>
      </trkpt>
      <trkpt lat="50.871156" lon="0.23891">
        <ele>24.497074</ele>
        <time>2024-07-14T07:12:13.000Z</time>
      </trkpt>
      <trkpt lat="50.871816" lon="0.238518">
        <ele>23.131139</ele>
        <time>2024-07-14T07:12:21.000Z</time>
      </trkpt>
      <trkpt lat="50.872699" lon="0.238003">
        <ele>21.432932</ele>
        <time>2024-07-14T07:12:31.000Z</time>
      </trkpt>
      <trkpt lat="50.873838" lon="0.237319">
        <ele>19.611835</ele>
        <time>2024-07-14T07:12:45.000Z</time>
      </trkpt>
      <trkpt lat="50.874407" lon="0.236913">
        <ele>18.727662</ele>
        <time>2024-07-14T07:12:52.000Z</time>
      </trkpt>
      <trkpt lat="50.875217" lon="0.236295">
        <ele>17.464749</ele>
        <time>2024-07-14T07:13:02.000Z</time>
      </trkpt>
      <trkpt lat="50.875412" lon="0.236123">
        <ele>17.156014</ele>
        <time>2024-07-14T07:13:04.000Z</time>
      </trkpt>
      <trkpt lat="50.875406" lon="0.236125">
        <ele>17.156006</ele>
        <time>2024-07-14T07:13:04.000Z</time>
      </trkpt>
      <trkpt lat="50.875404" lon="0.236111">
        <ele>17.154366</ele>
        <time>2024-07-14T07:13:04.000Z</time>
      </trkpt>
      <trkpt lat="50.875572" lon="0.235961">
        <ele>16.872756</ele>
        <time>2024-07-14T07:13:06.000Z</time>
      </trkpt>
      <trkpt lat="50.876125" lon="0.235447">
        <ele>15.991731</ele>
        <time>2024-07-14T07:13:13.000Z</time>
      </trkpt>
      <trkpt lat="50.877086" lon="0.234403">
        <ele>16.684414</ele>
        <time>2024-07-14T07:13:26.000Z</time>
      </trkpt>
      <trkpt lat="50.877925" lon="0.233353">
        <ele>17.485046</ele>
        <time>2024-07-14T07:13:38.000Z</time>
      </trkpt>
      <trkpt lat="50.878518" lon="0.232551">
        <ele>18.244782</ele>
        <time>2024-07-14T07:13:47.000Z</time>
      </trkpt>
      <trkpt lat="50.878629" lon="0.232398">
        <ele>18.386878</ele>
        <time>2024-07-14T07:13:49.000Z</time>
      </trkpt>
      <trkpt lat="50.878623" lon="0.232325">
        <ele>18.430753</ele>
        <time>2024-07-14T07:13:50.000Z</time>
      </trkpt>
      <trkpt lat="50.878642" lon="0.232034">
        <ele>18.608308</ele>
        <time>2024-07-14T07:13:52.000Z</time>
      </trkpt>
      <trkpt lat="50.878693" lon="0.231818">
        <ele>18.749262</ele>
        <time>2024-07-14T07:13:54.000Z</time>
      </trkpt>
      <trkpt lat="50.878775" lon="0.231718">
        <ele>18.830741</ele>
        <time>2024-07-14T07:13:55.000Z</time>
      </trkpt>
      <trkpt lat="50.878804" lon="0.231439">
        <ele>18.910139</ele>
        <time>2024-07-14T07:13:57.000Z</time>
      </trkpt>
      <trkpt lat="50.878791" lon="0.231084">
        <ele>19.008742</ele>
        <time>2024-07-14T07:13:59.000Z</time>
      </trkpt>
      <trkpt lat="50.878787" lon="0.230781">
        <ele>19.093688</ele>
        <time>2024-07-14T07:14:01.000Z</time>
      </trkpt>
      <trkpt lat="50.878782" lon="0.230775">
        <ele>19.093972</ele>
        <time>2024-07-14T07:14:01.000Z</time>
      </trkpt>
      <trkpt lat="50.878788" lon="0.230781">
        <ele>19.094692</ele>
        <time>2024-07-14T07:14:01.000Z</time>
      </trkpt>
      <trkpt lat="50.878757" lon="0.230464">
        <ele>19.184445</ele>
        <time>2024-07-14T07:14:03.000Z</time>
      </trkpt>
      <trkpt lat="50.878757" lon="0.230067">
        <ele>19.297221</ele>
        <time>2024-07-14T07:14:06.000Z</time>
      </trkpt>
      <trkpt lat="50.878785" lon="0.229539">
        <ele>19.444799</ele>
        <time>2024-07-14T07:14:10.000Z</time>
      </trkpt>
      <trkpt lat="50.878837" lon="0.229131">
        <ele>19.562454</ele>
        <time>2024-07-14T07:14:13.000Z</time>
      </trkpt>
      <trkpt lat="50.878996" lon="0.228485">
        <ele>20.052016</ele>
        <time>2024-07-14T07:14:18.000Z</time>
      </trkpt>
      <trkpt lat="50.879659" lon="0.2261">
        <ele>22.183624</ele>
        <time>2024-07-14T07:14:36.000Z</time>
      </trkpt>
      <trkpt lat="50.879914" lon="0.22494">
        <ele>22.76563</ele>
        <time>2024-07-14T07:14:45.000Z</time>
      </trkpt>
      <trkpt lat="50.880125" lon="0.223687">
        <ele>23.37533</ele>
        <time>2024-07-14T07:14:54.000Z</time>
      </trkpt>
      <trkpt lat="50.880509" lon="0.221137">
        <ele>24.856565</ele>
        <time>2024-07-14T07:15:12.000Z</time>
      </trkpt>
      <trkpt lat="50.880706" lon="0.220105">
        <ele>25.718988</ele>
        <time>2024-07-14T07:15:20.000Z</time>
      </trkpt>
      <trkpt lat="50.880973" lon="0.219043">
        <ele>26.724486</ele>
        <time>2024-07-14T07:15:28.000Z</time>
      </trkpt>
      <trkpt lat="50.882318" lon="0.214379">
        <ele>31.210262</ele>
        <time>2024-07-14T07:16:04.000Z</time>
      </trkpt>
      <trkpt lat="50.882925" lon="0.2122">
        <ele>32.413183</ele>
        <time>2024-07-14T07:16:21.000Z</time>
      </trkpt>
      <trkpt lat="50.882931" lon="0.212206">
        <ele>32.413174</ele>
        <time>2024-07-14T07:16:21.000Z</time>
      </trkpt>
      <trkpt lat="50.882925" lon="0.212209">
        <ele>32.413264</ele>
        <time>2024-07-14T07:16:21.000Z</time>
      </trkpt>
      <trkpt lat="50.883013" lon="0.211866">
        <ele>32.430448</ele>
        <time>2024-07-14T07:16:24.000Z</time>
      </trkpt>
      <trkpt lat="50.884313" lon="0.207439">
        <ele>31.159883</ele>
        <time>2024-07-14T07:16:58.000Z</time>
      </trkpt>
      <trkpt lat="50.886779" lon="0.199075">
        <ele>23.134919</ele>
        <time>2024-07-14T07:18:03.000Z</time>
      </trkpt>
      <trkpt lat="50.887726" lon="0.195827">
        <ele>20.885863</ele>
        <time>2024-07-14T07:18:28.000Z</time>
      </trkpt>
      <trkpt lat="50.88771" lon="0.195832">
        <ele>20.885858</ele>
        <time>2024-07-14T07:18:28.000Z</time>
      </trkpt>
      <trkpt lat="50.887727" lon="0.195813">
        <ele>20.884483</ele>
        <time>2024-07-14T07:18:28.000Z</time>
      </trkpt>
      <trkpt lat="50.887831" lon="0.195431">
        <ele>20.692229</ele>
        <time>2024-07-14T07:18:31.000Z</time>
      </trkpt>
      <trkpt lat="50.889142" lon="0.190921">
        <ele>21.928411</ele>
        <time>2024-07-14T07:19:06.000Z</time>
      </trkpt>
      <trkpt lat="50.890471" lon="0.186238">
        <ele>24.454179</ele>
        <time>2024-07-14T07:19:42.000Z</time>
      </trkpt>
      <trkpt lat="50.891631" lon="0.182238">
        <ele>24.257772</ele>
        <time>2024-07-14T07:20:13.000Z</time>
      </trkpt>
      <trkpt lat="50.892006" lon="0.180941">
        <ele>24.400515</ele>
        <time>2024-07-14T07:20:23.000Z</time>
      </trkpt>
      <trkpt lat="50.892202" lon="0.180434">
        <ele>24.512275</ele>
        <time>2024-07-14T07:20:27.000Z</time>
      </trkpt>
      <trkpt lat="50.892389" lon="0.180093">
        <ele>24.593725</ele>
        <time>2024-07-14T07:20:30.000Z</time>
      </trkpt>
      <trkpt lat="50.892652" lon="0.17965">
        <ele>24.706353</ele>
        <time>2024-07-14T07:20:34.000Z</time>
      </trkpt>
      <trkpt lat="50.892892" lon="0.179311">
        <ele>25.279579</ele>
        <time>2024-07-14T07:20:38.000Z</time>
      </trkpt>
      <trkpt lat="50.892924" lon="0.179276">
        <ele>25.353631</ele>
        <time>2024-07-14T07:20:38.000Z</time>
      </trkpt>
      <trkpt lat="50.892931" lon="0.179268">
        <ele>25.353632</ele>
        <time>2024-07-14T07:20:38.000Z</time>
      </trkpt>
      <trkpt lat="50.89292" lon="0.179268">
        <ele>25.356164</ele>
        <time>2024-07-14T07:20:38.000Z</time>
      </trkpt>
      <trkpt lat="50.893163" lon="0.178973">
        <ele>25.994862</ele>
        <time>2024-07-14T07:20:41.000Z</time>
      </trkpt>
      <trkpt lat="50.893165" lon="0.178993">
        <ele>26.008407</ele>
        <time>2024-07-14T07:20:41.000Z</time>
      </trkpt>
      <trkpt lat="50.894374" lon="0.17758">
        <ele>29.582405</ele>
        <time>2024-07-14T07:20:58.000Z</time>
      </trkpt>
      <trkpt lat="50.894899" lon="0.177023">
        <ele>31.653148</ele>
        <time>2024-07-14T07:21:05.000Z</time>
      </trkpt>
      <trkpt lat="50.895163" lon="0.176782">
        <ele>32.67857</ele>
        <time>2024-07-14T07:21:08.000Z</time>
      </trkpt>
      <trkpt lat="50.895502" lon="0.176533">
        <ele>33.929041</ele>
        <time>2024-07-14T07:21:12.000Z</time>
      </trkpt>
      <trkpt lat="50.895785" lon="0.176354">
        <ele>34.501493</ele>
        <time>2024-07-14T07:21:15.000Z</time>
      </trkpt>
      <trkpt lat="50.896117" lon="0.176181">
        <ele>34.375103</ele>
        <time>2024-07-14T07:21:19.000Z</time>
      </trkpt>
      <trkpt lat="50.896931" lon="0.175914">
        <ele>34.059117</ele>
        <time>2024-07-14T07:21:28.000Z</time>
      </trkpt>
      <trkpt lat="50.897957" lon="0.175595">
        <ele>32.776032</ele>
        <time>2024-07-14T07:21:40.000Z</time>
      </trkpt>
      <trkpt lat="50.898383" lon="0.175408">
        <ele>31.909615</ele>
        <time>2024-07-14T07:21:45.000Z</time>
      </trkpt>
      <trkpt lat="50.898727" lon="0.175194">
        <ele>31.164369</ele>
        <time>2024-07-14T07:21:49.000Z</time>
      </trkpt>
      <trkpt lat="50.899309" lon="0.174818">
        <ele>30.18121</ele>
        <time>2024-07-14T07:21:56.000Z</time>
      </trkpt>
      <trkpt lat="50.900092" lon="0.174207">
        <ele>29.658885</ele>
        <time>2024-07-14T07:22:06.000Z</time>
      </trkpt>
      <trkpt lat="50.9013" lon="0.173273">
        <ele>29.596531</ele>
        <time>2024-07-14T07:22:21.000Z</time>
      </trkpt>
      <trkpt lat="50.901299" lon="0.173265">
        <ele>29.596544</ele>
        <time>2024-07-14T07:22:21.000Z</time>
      </trkpt>
      <trkpt lat="50.901291" lon="0.173269">
        <ele>29.597283</ele>
        <time>2024-07-14T07:22:21.000Z</time>
      </trkpt>
      <trkpt lat="50.901579" lon="0.173045">
        <ele>29.79825</ele>
        <time>2024-07-14T07:22:25.000Z</time>
      </trkpt>
      <trkpt lat="50.902269" lon="0.172496">
        <ele>30.280888</ele>
        <time>2024-07-14T07:22:34.000Z</time>
      </trkpt>
      <trkpt lat="50.903061" lon="0.171793">
        <ele>32.142069</ele>
        <time>2024-07-14T07:22:44.000Z</time>
      </trkpt>
      <trkpt lat="50.903616" lon="0.171395">
        <ele>33.527443</ele>
        <time>2024-07-14T07:22:51.000Z</time>
      </trkpt>
      <trkpt lat="50.905073" lon="0.170343">
        <ele>38.219612</ele>
        <time>2024-07-14T07:23:09.000Z</time>
      </trkpt>
      <trkpt lat="50.905353" lon="0.170133">
        <ele>39.166561</ele>
        <time>2024-07-14T07:23:12.000Z</time>
      </trkpt>
      <trkpt lat="50.906023" lon="0.169594">
        <ele>40.729528</ele>
        <time>2024-07-14T07:23:20.000Z</time>
      </trkpt>
      <trkpt lat="50.906226" lon="0.169392">
        <ele>41.066877</ele>
        <time>2024-07-14T07:23:23.000Z</time>
      </trkpt>
      <trkpt lat="50.906401" lon="0.16914">
        <ele>41.419137</ele>
        <time>2024-07-14T07:23:26.000Z</time>
      </trkpt>
      <trkpt lat="50.906575" lon="0.168925">
        <ele>41.720335</ele>
        <time>2024-07-14T07:23:28.000Z</time>
      </trkpt>
      <trkpt lat="50.906566" lon="0.168914">
        <ele>41.720339</ele>
        <time>2024-07-14T07:23:28.000Z</time>
      </trkpt>
      <trkpt lat="50.906561" lon="0.168913">
        <ele>41.723327</ele>
        <time>2024-07-14T07:23:28.000Z</time>
      </trkpt>
      <trkpt lat="50.906806" lon="0.168587">
        <ele>42.180706</ele>
        <time>2024-07-14T07:23:32.000Z</time>
      </trkpt>
      <trkpt lat="50.906808" lon="0.168583">
        <ele>42.189699</ele>
        <time>2024-07-14T07:23:32.000Z</time>
      </trkpt>
      <trkpt lat="50.907098" lon="0.168266">
        <ele>42.532969</ele>
        <time>2024-07-14T07:23:36.000Z</time>
      </trkpt>
      <trkpt lat="50.907302" lon="0.168119">
        <ele>42.034076</ele>
        <time>2024-07-14T07:23:38.000Z</time>
      </trkpt>
      <trkpt lat="50.907505" lon="0.167983">
        <ele>41.551336</ele>
        <time>2024-07-14T07:23:40.000Z</time>
      </trkpt>
      <trkpt lat="50.907914" lon="0.167799">
        <ele>40.660963</ele>
        <time>2024-07-14T07:23:45.000Z</time>
      </trkpt>
      <trkpt lat="50.908394" lon="0.167529">
        <ele>39.570374</ele>
        <time>2024-07-14T07:23:51.000Z</time>
      </trkpt>
      <trkpt lat="50.908617" lon="0.167366">
        <ele>39.052094</ele>
        <time>2024-07-14T07:23:54.000Z</time>
      </trkpt>
      <trkpt lat="50.908808" lon="0.167174">
        <ele>38.721349</ele>
        <time>2024-07-14T07:23:57.000Z</time>
      </trkpt>
      <trkpt lat="50.908974" lon="0.166974">
        <ele>38.621517</ele>
        <time>2024-07-14T07:23:59.000Z</time>
      </trkpt>
      <trkpt lat="50.909105" lon="0.166771">
        <ele>38.541569</ele>
        <time>2024-07-14T07:24:01.000Z</time>
      </trkpt>
      <trkpt lat="50.909229" lon="0.166529">
        <ele>38.445197</ele>
        <time>2024-07-14T07:24:03.000Z</time>
      </trkpt>
      <trkpt lat="50.909348" lon="0.166257">
        <ele>38.349617</ele>
        <time>2024-07-14T07:24:05.000Z</time>
      </trkpt>
      <trkpt lat="50.909531" lon="0.165539">
        <ele>38.114784</ele>
        <time>2024-07-14T07:24:10.000Z</time>
      </trkpt>
      <trkpt lat="50.909676" lon="0.164594">
        <ele>38.050864</ele>
        <time>2024-07-14T07:24:17.000Z</time>
      </trkpt>
      <trkpt lat="50.910074" lon="0.161897">
        <ele>39.206039</ele>
        <time>2024-07-14T07:24:36.000Z</time>
      </trkpt>
      <trkpt lat="50.910295" lon="0.160441">
        <ele>39.944673</ele>
        <time>2024-07-14T07:24:47.000Z</time>
      </trkpt>
      <trkpt lat="50.910566" lon="0.159019">
        <ele>40.65448</ele>
        <time>2024-07-14T07:24:57.000Z</time>
      </trkpt>
      <trkpt lat="50.910864" lon="0.157927">
        <ele>41.15736</ele>
        <time>2024-07-14T07:25:05.000Z</time>
      </trkpt>
      <trkpt lat="50.911049" lon="0.157421">
        <ele>41.39997</ele>
        <time>2024-07-14T07:25:09.000Z</time>
      </trkpt>
      <trkpt lat="50.911169" lon="0.157206">
        <ele>41.525881</ele>
        <time>2024-07-14T07:25:11.000Z</time>
      </trkpt>
      <trkpt lat="50.911306" lon="0.156995">
        <ele>41.651907</ele>
        <time>2024-07-14T07:25:13.000Z</time>
      </trkpt>
      <trkpt lat="50.91141" lon="0.156886">
        <ele>41.747374</ele>
        <time>2024-07-14T07:25:14.000Z</time>
      </trkpt>
      <trkpt lat="50.911416" lon="0.156897">
        <ele>41.747374</ele>
        <time>2024-07-14T07:25:14.000Z</time>
      </trkpt>
      <trkpt lat="50.911423" lon="0.156883">
        <ele>41.748486</ele>
        <time>2024-07-14T07:25:14.000Z</time>
      </trkpt>
      <trkpt lat="50.911508" lon="0.156806">
        <ele>41.845416</ele>
        <time>2024-07-14T07:25:15.000Z</time>
      </trkpt>
      <trkpt lat="50.911707" lon="0.156631">
        <ele>42.066468</ele>
        <time>2024-07-14T07:25:18.000Z</time>
      </trkpt>
      <trkpt lat="50.911724" lon="0.156637">
        <ele>42.085229</ele>
        <time>2024-07-14T07:25:18.000Z</time>
      </trkpt>
      <trkpt lat="50.911918" lon="0.156541">
        <ele>42.271144</ele>
        <time>2024-07-14T07:25:20.000Z</time>
      </trkpt>
      <trkpt lat="50.912106" lon="0.156499">
        <ele>42.451723</ele>
        <time>2024-07-14T07:25:22.000Z</time>
      </trkpt>
      <trkpt lat="50.912288" lon="0.156468">
        <ele>42.611549</ele>
        <time>2024-07-14T07:25:24.000Z</time>
      </trkpt>
      <trkpt lat="50.912491" lon="0.156494">
        <ele>42.808804</ele>
        <time>2024-07-14T07:25:26.000Z</time>
      </trkpt>
      <trkpt lat="50.912723" lon="0.156561">
        <ele>43.02958</ele>
        <time>2024-07-14T07:25:29.000Z</time>
      </trkpt>
      <trkpt lat="50.913113" lon="0.156734">
        <ele>43.414685</ele>
        <time>2024-07-14T07:25:34.000Z</time>
      </trkpt>
      <trkpt lat="50.913381" lon="0.156843">
        <ele>43.651626</ele>
        <time>2024-07-14T07:25:37.000Z</time>
      </trkpt>
      <trkpt lat="50.914084" lon="0.157082">
        <ele>44.290833</ele>
        <time>2024-07-14T07:25:45.000Z</time>
      </trkpt>
      <trkpt lat="50.914723" lon="0.157188">
        <ele>44.848344</ele>
        <time>2024-07-14T07:25:52.000Z</time>
      </trkpt>
      <trkpt lat="50.915174" lon="0.157183">
        <ele>45.574664</ele>
        <time>2024-07-14T07:25:57.000Z</time>
      </trkpt>
      <trkpt lat="50.915624" lon="0.15717">
        <ele>46.471529</ele>
        <time>2024-07-14T07:26:02.000Z</time>
      </trkpt>
      <trkpt lat="50.91637" lon="0.157135">
        <ele>47.91462</ele>
        <time>2024-07-14T07:26:10.000Z</time>
      </trkpt>
      <trkpt lat="50.917357" lon="0.157114">
        <ele>49.917451</ele>
        <time>2024-07-14T07:26:21.000Z</time>
      </trkpt>
      <trkpt lat="50.918011" lon="0.157065">
        <ele>51.314103</ele>
        <time>2024-07-14T07:26:28.000Z</time>
      </trkpt>
      <trkpt lat="50.918769" lon="0.156988">
        <ele>52.786668</ele>
        <time>2024-07-14T07:26:36.000Z</time>
      </trkpt>
      <trkpt lat="50.919681" lon="0.156782">
        <ele>54.44171</ele>
        <time>2024-07-14T07:26:46.000Z</time>
      </trkpt>
      <trkpt lat="50.920299" lon="0.156622">
        <ele>55.446425</ele>
        <time>2024-07-14T07:26:53.000Z</time>
      </trkpt>
      <trkpt lat="50.920887" lon="0.156395">
        <ele>55.568199</ele>
        <time>2024-07-14T07:27:00.000Z</time>
      </trkpt>
      <trkpt lat="50.920943" lon="0.156351">
        <ele>55.583227</ele>
        <time>2024-07-14T07:27:01.000Z</time>
      </trkpt>
      <trkpt lat="50.920958" lon="0.156346">
        <ele>55.58323</ele>
        <time>2024-07-14T07:27:01.000Z</time>
      </trkpt>
      <trkpt lat="50.920953" lon="0.156349">
        <ele>55.583443</ele>
        <time>2024-07-14T07:27:01.000Z</time>
      </trkpt>
      <trkpt lat="50.921306" lon="0.156176">
        <ele>55.658314</ele>
        <time>2024-07-14T07:27:05.000Z</time>
      </trkpt>
      <trkpt lat="50.921291" lon="0.156163">
        <ele>55.659592</ele>
        <time>2024-07-14T07:27:05.000Z</time>
      </trkpt>
      <trkpt lat="50.921583" lon="0.155994">
        <ele>55.720668</ele>
        <time>2024-07-14T07:27:08.000Z</time>
      </trkpt>
      <trkpt lat="50.922159" lon="0.155533">
        <ele>55.648358</ele>
        <time>2024-07-14T07:27:15.000Z</time>
      </trkpt>
      <trkpt lat="50.922587" lon="0.155114">
        <ele>55.334248</ele>
        <time>2024-07-14T07:27:21.000Z</time>
      </trkpt>
      <trkpt lat="50.923159" lon="0.154482">
        <ele>54.907082</ele>
        <time>2024-07-14T07:27:29.000Z</time>
      </trkpt>
      <trkpt lat="50.923824" lon="0.1537">
        <ele>53.91752</ele>
        <time>2024-07-14T07:27:38.000Z</time>
      </trkpt>
      <trkpt lat="50.925001" lon="0.152332">
        <ele>51.756364</ele>
        <time>2024-07-14T07:27:54.000Z</time>
      </trkpt>
      <trkpt lat="50.926917" lon="0.150101">
        <ele>51.058996</ele>
        <time>2024-07-14T07:28:20.000Z</time>
      </trkpt>
      <trkpt lat="50.927426" lon="0.149484">
        <ele>51.275346</ele>
        <time>2024-07-14T07:28:27.000Z</time>
      </trkpt>
      <trkpt lat="50.927605" lon="0.149299">
        <ele>51.348857</ele>
        <time>2024-07-14T07:28:29.000Z</time>
      </trkpt>
      <trkpt lat="50.927709" lon="0.149101">
        <ele>51.397296</ele>
        <time>2024-07-14T07:28:31.000Z</time>
      </trkpt>
      <trkpt lat="50.927757" lon="0.148983">
        <ele>51.475332</ele>
        <time>2024-07-14T07:28:32.000Z</time>
      </trkpt>
      <trkpt lat="50.927781" lon="0.148903">
        <ele>51.569804</ele>
        <time>2024-07-14T07:28:33.000Z</time>
      </trkpt>
      <trkpt lat="50.927782" lon="0.148821">
        <ele>51.642648</ele>
        <time>2024-07-14T07:28:34.000Z</time>
      </trkpt>
      <trkpt lat="50.927775" lon="0.148729">
        <ele>51.744143</ele>
        <time>2024-07-14T07:28:35.000Z</time>
      </trkpt>
      <trkpt lat="50.927789" lon="0.148643">
        <ele>51.836878</ele>
        <time>2024-07-14T07:28:36.000Z</time>
      </trkpt>
      <trkpt lat="50.92785" lon="0.148475">
        <ele>52.02581</ele>
        <time>2024-07-14T07:28:37.000Z</time>
      </trkpt>
      <trkpt lat="50.927958" lon="0.148372">
        <ele>52.216144</ele>
        <time>2024-07-14T07:28:38.000Z</time>
      </trkpt>
      <trkpt lat="50.928139" lon="0.147838">
        <ele>52.843764</ele>
        <time>2024-07-14T07:28:42.000Z</time>
      </trkpt>
      <trkpt lat="50.928166" lon="0.147512">
        <ele>53.182124</ele>
        <time>2024-07-14T07:28:44.000Z</time>
      </trkpt>
      <trkpt lat="50.928228" lon="0.146651">
        <ele>54.058586</ele>
        <time>2024-07-14T07:28:50.000Z</time>
      </trkpt>
      <trkpt lat="50.928215" lon="0.146078">
        <ele>54.246971</ele>
        <time>2024-07-14T07:28:54.000Z</time>
      </trkpt>
      <trkpt lat="50.928205" lon="0.145865">
        <ele>54.202021</ele>
        <time>2024-07-14T07:28:55.000Z</time>
      </trkpt>
      <trkpt lat="50.928208" lon="0.14586">
        <ele>54.20139</ele>
        <time>2024-07-14T07:28:55.000Z</time>
      </trkpt>
      <trkpt lat="50.928154" lon="0.144774">
        <ele>53.971165</ele>
        <time>2024-07-14T07:29:03.000Z</time>
      </trkpt>
      <trkpt lat="50.928023" lon="0.143064">
        <ele>53.678858</ele>
        <time>2024-07-14T07:29:15.000Z</time>
      </trkpt>
      <trkpt lat="50.927882" lon="0.141953">
        <ele>53.595393</ele>
        <time>2024-07-14T07:29:23.000Z</time>
      </trkpt>
      <trkpt lat="50.927713" lon="0.140672">
        <ele>53.523937</ele>
        <time>2024-07-14T07:29:32.000Z</time>
      </trkpt>
      <trkpt lat="50.927714" lon="0.140141">
        <ele>53.627777</ele>
        <time>2024-07-14T07:29:36.000Z</time>
      </trkpt>
      <trkpt lat="50.927719" lon="0.139997">
        <ele>53.657875</ele>
        <time>2024-07-14T07:29:37.000Z</time>
      </trkpt>
      <trkpt lat="50.927685" lon="0.139896">
        <ele>53.67997</ele>
        <time>2024-07-14T07:29:38.000Z</time>
      </trkpt>
      <trkpt lat="50.927679" lon="0.13969">
        <ele>53.722376</ele>
        <time>2024-07-14T07:29:39.000Z</time>
      </trkpt>
      <trkpt lat="50.927669" lon="0.138725">
        <ele>53.915973</ele>
        <time>2024-07-14T07:29:46.000Z</time>
      </trkpt>
      <trkpt lat="50.927661" lon="0.137853">
        <ele>54.069847</ele>
        <time>2024-07-14T07:29:52.000Z</time>
      </trkpt>
      <trkpt lat="50.927653" lon="0.136096">
        <ele>53.900225</ele>
        <time>2024-07-14T07:30:04.000Z</time>
      </trkpt>
      <trkpt lat="50.927595" lon="0.13387">
        <ele>54.397312</ele>
        <time>2024-07-14T07:30:20.000Z</time>
      </trkpt>
      <trkpt lat="50.927529" lon="0.133451">
        <ele>54.613111</ele>
        <time>2024-07-14T07:30:23.000Z</time>
      </trkpt>
      <trkpt lat="50.927477" lon="0.133123">
        <ele>54.783734</ele>
        <time>2024-07-14T07:30:25.000Z</time>
      </trkpt>
      <trkpt lat="50.927387" lon="0.132998">
        <ele>54.870502</ele>
        <time>2024-07-14T07:30:26.000Z</time>
      </trkpt>
      <trkpt lat="50.927195" lon="0.132737">
        <ele>55.071534</ele>
        <time>2024-07-14T07:30:29.000Z</time>
      </trkpt>
      <trkpt lat="50.926955" lon="0.132402">
        <ele>54.955557</ele>
        <time>2024-07-14T07:30:33.000Z</time>
      </trkpt>
      <trkpt lat="50.926666" lon="0.132132">
        <ele>54.288779</ele>
        <time>2024-07-14T07:30:37.000Z</time>
      </trkpt>
      <trkpt lat="50.926355" lon="0.13181">
        <ele>53.548477</ele>
        <time>2024-07-14T07:30:41.000Z</time>
      </trkpt>
      <trkpt lat="50.926223" lon="0.131692">
        <ele>53.256312</ele>
        <time>2024-07-14T07:30:43.000Z</time>
      </trkpt>
      <trkpt lat="50.926152" lon="0.131595">
        <ele>53.074482</ele>
        <time>2024-07-14T07:30:44.000Z</time>
      </trkpt>
      <trkpt lat="50.926085" lon="0.131411">
        <ele>52.82068</ele>
        <time>2024-07-14T07:30:45.000Z</time>
      </trkpt>
      <trkpt lat="50.925951" lon="0.131049">
        <ele>52.281261</ele>
        <time>2024-07-14T07:30:48.000Z</time>
      </trkpt>
      <trkpt lat="50.925801" lon="0.130576">
        <ele>51.563633</ele>
        <time>2024-07-14T07:30:52.000Z</time>
      </trkpt>
      <trkpt lat="50.925663" lon="0.130283">
        <ele>50.216993</ele>
        <time>2024-07-14T07:30:55.000Z</time>
      </trkpt>
      <trkpt lat="50.925346" lon="0.129668">
        <ele>47.215313</ele>
        <time>2024-07-14T07:31:01.000Z</time>
      </trkpt>
      <trkpt lat="50.925205" lon="0.129463">
        <ele>46.10973</ele>
        <time>2024-07-14T07:31:03.000Z</time>
      </trkpt>
      <trkpt lat="50.924011" lon="0.128229">
        <ele>37.759894</ele>
        <time>2024-07-14T07:31:19.000Z</time>
      </trkpt>
      <trkpt lat="50.923205" lon="0.127395">
        <ele>31.939969</ele>
        <time>2024-07-14T07:31:30.000Z</time>
      </trkpt>
      <trkpt lat="50.922866" lon="0.127087">
        <ele>29.981646</ele>
        <time>2024-07-14T07:31:34.000Z</time>
      </trkpt>
      <trkpt lat="50.922568" lon="0.126869">
        <ele>28.967876</ele>
        <time>2024-07-14T07:31:38.000Z</time>
      </trkpt>
      <trkpt lat="50.922537" lon="0.126834">
        <ele>28.8973</ele>
        <time>2024-07-14T07:31:38.000Z</time>
      </trkpt>
      <trkpt lat="50.922539" lon="0.126855">
        <ele>28.877548</ele>
        <time>2024-07-14T07:31:38.000Z</time>
      </trkpt>
      <trkpt lat="50.922547" lon="0.126847">
        <ele>28.874568</ele>
        <time>2024-07-14T07:31:38.000Z</time>
      </trkpt>
      <trkpt lat="50.922531" lon="0.126849">
        <ele>28.871033</ele>
        <time>2024-07-14T07:31:38.000Z</time>
      </trkpt>
      <trkpt lat="50.922412" lon="0.126776">
        <ele>28.461813</ele>
        <time>2024-07-14T07:31:39.000Z</time>
      </trkpt>
      <trkpt lat="50.922172" lon="0.126681">
        <ele>27.754656</ele>
        <time>2024-07-14T07:31:42.000Z</time>
      </trkpt>
      <trkpt lat="50.922152" lon="0.126672">
        <ele>27.663134</ele>
        <time>2024-07-14T07:31:42.000Z</time>
      </trkpt>
      <trkpt lat="50.921774" lon="0.126606">
        <ele>26.548411</ele>
        <time>2024-07-14T07:31:46.000Z</time>
      </trkpt>
      <trkpt lat="50.921335" lon="0.126473">
        <ele>25.215661</ele>
        <time>2024-07-14T07:31:51.000Z</time>
      </trkpt>
      <trkpt lat="50.920999" lon="0.126371">
        <ele>25.072777</ele>
        <time>2024-07-14T07:31:55.000Z</time>
      </trkpt>
      <trkpt lat="50.920527" lon="0.126268">
        <ele>25.2649</ele>
        <time>2024-07-14T07:32:00.000Z</time>
      </trkpt>
      <trkpt lat="50.920076" lon="0.126124">
        <ele>25.450843</ele>
        <time>2024-07-14T07:32:05.000Z</time>
      </trkpt>
      <trkpt lat="50.919663" lon="0.125851">
        <ele>25.634109</ele>
        <time>2024-07-14T07:32:10.000Z</time>
      </trkpt>
      <trkpt lat="50.918947" lon="0.125312">
        <ele>26.642795</ele>
        <time>2024-07-14T07:32:19.000Z</time>
      </trkpt>
      <trkpt lat="50.918254" lon="0.124805">
        <ele>27.782258</ele>
        <time>2024-07-14T07:32:27.000Z</time>
      </trkpt>
      <trkpt lat="50.917919" lon="0.124556">
        <ele>28.338487</ele>
        <time>2024-07-14T07:32:31.000Z</time>
      </trkpt>
      <trkpt lat="50.917517" lon="0.124187">
        <ele>29.267839</ele>
        <time>2024-07-14T07:32:36.000Z</time>
      </trkpt>
      <trkpt lat="50.916794" lon="0.123411">
        <ele>30.991591</ele>
        <time>2024-07-14T07:32:46.000Z</time>
      </trkpt>
      <trkpt lat="50.916155" lon="0.122816">
        <ele>32.378994</ele>
        <time>2024-07-14T07:32:54.000Z</time>
      </trkpt>
      <trkpt lat="50.915615" lon="0.122264">
        <ele>33.350887</ele>
        <time>2024-07-14T07:33:01.000Z</time>
      </trkpt>
      <trkpt lat="50.915354" lon="0.121862">
        <ele>33.908215</ele>
        <time>2024-07-14T07:33:05.000Z</time>
      </trkpt>
      <trkpt lat="50.915227" lon="0.121668">
        <ele>34.173863</ele>
        <time>2024-07-14T07:33:07.000Z</time>
      </trkpt>
      <trkpt lat="50.915004" lon="0.121181">
        <ele>34.708576</ele>
        <time>2024-07-14T07:33:11.000Z</time>
      </trkpt>
      <trkpt lat="50.914715" lon="0.120452">
        <ele>34.068843</ele>
        <time>2024-07-14T07:33:17.000Z</time>
      </trkpt>
      <trkpt lat="50.914719" lon="0.120447">
        <ele>34.068847</ele>
        <time>2024-07-14T07:33:17.000Z</time>
      </trkpt>
      <trkpt lat="50.914708" lon="0.120444">
        <ele>34.066942</ele>
        <time>2024-07-14T07:33:17.000Z</time>
      </trkpt>
      <trkpt lat="50.914663" lon="0.120318">
        <ele>33.943382</ele>
        <time>2024-07-14T07:33:18.000Z</time>
      </trkpt>
      <trkpt lat="50.914505" lon="0.119883">
        <ele>33.585512</ele>
        <time>2024-07-14T07:33:22.000Z</time>
      </trkpt>
      <trkpt lat="50.913734" lon="0.117698">
        <ele>31.869786</ele>
        <time>2024-07-14T07:33:40.000Z</time>
      </trkpt>
      <trkpt lat="50.913175" lon="0.116204">
        <ele>30.826782</ele>
        <time>2024-07-14T07:33:52.000Z</time>
      </trkpt>
      <trkpt lat="50.912876" lon="0.115387">
        <ele>30.363457</ele>
        <time>2024-07-14T07:33:59.000Z</time>
      </trkpt>
      <trkpt lat="50.912564" lon="0.114484">
        <ele>29.875119</ele>
        <time>2024-07-14T07:34:06.000Z</time>
      </trkpt>
      <trkpt lat="50.912128" lon="0.113348">
        <ele>29.516966</ele>
        <time>2024-07-14T07:34:15.000Z</time>
      </trkpt>
      <trkpt lat="50.910881" lon="0.109978">
        <ele>30.282081</ele>
        <time>2024-07-14T07:34:42.000Z</time>
      </trkpt>
      <trkpt lat="50.909547" lon="0.106381">
        <ele>32.532795</ele>
        <time>2024-07-14T07:35:11.000Z</time>
      </trkpt>
      <trkpt lat="50.908857" lon="0.104504">
        <ele>31.873084</ele>
        <time>2024-07-14T07:35:26.000Z</time>
      </trkpt>
      <trkpt lat="50.908502" lon="0.103567">
        <ele>30.972391</ele>
        <time>2024-07-14T07:35:34.000Z</time>
      </trkpt>
      <trkpt lat="50.907905" lon="0.101963">
        <ele>28.240147</ele>
        <time>2024-07-14T07:35:47.000Z</time>
      </trkpt>
      <trkpt lat="50.907309" lon="0.100316">
        <ele>25.398832</ele>
        <time>2024-07-14T07:36:00.000Z</time>
      </trkpt>
      <trkpt lat="50.907275" lon="0.100235">
        <ele>25.285402</ele>
        <time>2024-07-14T07:36:01.000Z</time>
      </trkpt>
      <trkpt lat="50.907279" lon="0.10025">
        <ele>25.285399</ele>
        <time>2024-07-14T07:36:01.000Z</time>
      </trkpt>
      <trkpt lat="50.907283" lon="0.100243">
        <ele>25.281603</ele>
        <time>2024-07-14T07:36:01.000Z</time>
      </trkpt>
      <trkpt lat="50.907051" lon="0.099639">
        <ele>24.22686</ele>
        <time>2024-07-14T07:36:06.000Z</time>
      </trkpt>
      <trkpt lat="50.905786" lon="0.09627">
        <ele>19.656933</ele>
        <time>2024-07-14T07:36:33.000Z</time>
      </trkpt>
      <trkpt lat="50.904878" lon="0.093797">
        <ele>18.202128</ele>
        <time>2024-07-14T07:36:53.000Z</time>
      </trkpt>
      <trkpt lat="50.902492" lon="0.087335">
        <ele>19.017996</ele>
        <time>2024-07-14T07:37:46.000Z</time>
      </trkpt>
      <trkpt lat="50.901118" lon="0.083557">
        <ele>17.504887</ele>
        <time>2024-07-14T07:38:17.000Z</time>
      </trkpt>
      <trkpt lat="50.900212" lon="0.081153">
        <ele>16.379266</ele>
        <time>2024-07-14T07:38:37.000Z</time>
      </trkpt>
      <trkpt lat="50.8998" lon="0.079984">
        <ele>15.919256</ele>
        <time>2024-07-14T07:38:46.000Z</time>
      </trkpt>
      <trkpt lat="50.899804" lon="0.079974">
        <ele>15.919257</ele>
        <time>2024-07-14T07:38:46.000Z</time>
      </trkpt>
      <trkpt lat="50.899792" lon="0.079984">
        <ele>15.91838</ele>
        <time>2024-07-14T07:38:46.000Z</time>
      </trkpt>
      <trkpt lat="50.899557" lon="0.079313">
        <ele>15.661586</ele>
        <time>2024-07-14T07:38:51.000Z</time>
      </trkpt>
      <trkpt lat="50.898815" lon="0.077205">
        <ele>15.169375</ele>
        <time>2024-07-14T07:39:08.000Z</time>
      </trkpt>
      <trkpt lat="50.898414" lon="0.07615">
        <ele>15.067505</ele>
        <time>2024-07-14T07:39:17.000Z</time>
      </trkpt>
      <trkpt lat="50.898128" lon="0.075408">
        <ele>15.043431</ele>
        <time>2024-07-14T07:39:23.000Z</time>
      </trkpt>
      <trkpt lat="50.897434" lon="0.07352">
        <ele>15.160086</ele>
        <time>2024-07-14T07:39:38.000Z</time>
      </trkpt>
      <trkpt lat="50.897314" lon="0.073338">
        <ele>15.196762</ele>
        <time>2024-07-14T07:39:40.000Z</time>
      </trkpt>
      <trkpt lat="50.897282" lon="0.07337">
        <ele>15.20463</ele>
        <time>2024-07-14T07:39:40.000Z</time>
      </trkpt>
      <trkpt lat="50.897232" lon="0.073358">
        <ele>15.216092</ele>
        <time>2024-07-14T07:39:41.000Z</time>
      </trkpt>
      <trkpt lat="50.897148" lon="0.073582">
        <ele>15.252858</ele>
        <time>2024-07-14T07:39:43.000Z</time>
      </trkpt>
      <trkpt lat="50.897073" lon="0.074048">
        <ele>15.319924</ele>
        <time>2024-07-14T07:39:46.000Z</time>
      </trkpt>
      <trkpt lat="50.897086" lon="0.074036">
        <ele>15.319918</ele>
        <time>2024-07-14T07:39:46.000Z</time>
      </trkpt>
      <trkpt lat="50.897071" lon="0.074054">
        <ele>15.320398</ele>
        <time>2024-07-14T07:39:46.000Z</time>
      </trkpt>
      <trkpt lat="50.896958" lon="0.074809">
        <ele>15.405174</ele>
        <time>2024-07-14T07:39:51.000Z</time>
      </trkpt>
      <trkpt lat="50.895823" lon="0.082357">
        <ele>14.767117</ele>
        <time>2024-07-14T07:40:45.000Z</time>
      </trkpt>
      <trkpt lat="50.895724" lon="0.083742">
        <ele>14.384343</ele>
        <time>2024-07-14T07:40:55.000Z</time>
      </trkpt>
      <trkpt lat="50.895631" lon="0.085577">
        <ele>13.647192</ele>
        <time>2024-07-14T07:41:08.000Z</time>
      </trkpt>
      <trkpt lat="50.895325" lon="0.090198">
        <ele>11.390959</ele>
        <time>2024-07-14T07:41:41.000Z</time>
      </trkpt>
      <trkpt lat="50.895307" lon="0.090615">
        <ele>11.195857</ele>
        <time>2024-07-14T07:41:44.000Z</time>
      </trkpt>
      <trkpt lat="50.895305" lon="0.090622">
        <ele>11.19585</ele>
        <time>2024-07-14T07:41:44.000Z</time>
      </trkpt>
      <trkpt lat="50.895305" lon="0.09061">
        <ele>11.194948</ele>
        <time>2024-07-14T07:41:44.000Z</time>
      </trkpt>
      <trkpt lat="50.895254" lon="0.091431">
        <ele>10.817171</ele>
        <time>2024-07-14T07:41:50.000Z</time>
      </trkpt>
      <trkpt lat="50.895192" lon="0.092495">
        <ele>10.628771</ele>
        <time>2024-07-14T07:41:57.000Z</time>
      </trkpt>
      <trkpt lat="50.895055" lon="0.094112">
        <ele>10.387138</ele>
        <time>2024-07-14T07:42:08.000Z</time>
      </trkpt>
      <trkpt lat="50.894848" lon="0.096954">
        <ele>10.706853</ele>
        <time>2024-07-14T07:42:28.000Z</time>
      </trkpt>
      <trkpt lat="50.894779" lon="0.098039">
        <ele>10.641763</ele>
        <time>2024-07-14T07:42:36.000Z</time>
      </trkpt>
      <trkpt lat="50.894791" lon="0.100339">
        <ele>10.276539</ele>
        <time>2024-07-14T07:42:52.000Z</time>
      </trkpt>
      <trkpt lat="50.894831" lon="0.101874">
        <ele>9.574053</ele>
        <time>2024-07-14T07:43:03.000Z</time>
      </trkpt>
      <trkpt lat="50.894911" lon="0.102644">
        <ele>9.226257</ele>
        <time>2024-07-14T07:43:08.000Z</time>
      </trkpt>
      <trkpt lat="50.895061" lon="0.103414">
        <ele>9.34503</ele>
        <time>2024-07-14T07:43:14.000Z</time>
      </trkpt>
      <trkpt lat="50.895382" lon="0.104763">
        <ele>9.926475</ele>
        <time>2024-07-14T07:43:24.000Z</time>
      </trkpt>
      <trkpt lat="50.895816" lon="0.106497">
        <ele>11.343725</ele>
        <time>2024-07-14T07:43:37.000Z</time>
      </trkpt>
      <trkpt lat="50.895991" lon="0.107049">
        <ele>12.014319</ele>
        <time>2024-07-14T07:43:41.000Z</time>
      </trkpt>
      <trkpt lat="50.896232" lon="0.107584">
        <ele>12.720463</ele>
        <time>2024-07-14T07:43:46.000Z</time>
      </trkpt>
      <trkpt lat="50.896256" lon="0.107597">
        <ele>12.756128</ele>
        <time>2024-07-14T07:43:46.000Z</time>
      </trkpt>
      <trkpt lat="50.896263" lon="0.107606">
        <ele>12.756136</ele>
        <time>2024-07-14T07:43:46.000Z</time>
      </trkpt>
      <trkpt lat="50.896264" lon="0.107608">
        <ele>12.758859</ele>
        <time>2024-07-14T07:43:46.000Z</time>
      </trkpt>
      <trkpt lat="50.896516" lon="0.108072">
        <ele>13.380109</ele>
        <time>2024-07-14T07:43:50.000Z</time>
      </trkpt>
      <trkpt lat="50.896641" lon="0.108233">
        <ele>13.54169</ele>
        <time>2024-07-14T07:43:52.000Z</time>
      </trkpt>
      <trkpt lat="50.897176" lon="0.108984">
        <ele>14.262533</ele>
        <time>2024-07-14T07:44:00.000Z</time>
      </trkpt>
      <trkpt lat="50.897879" lon="0.110055">
        <ele>15.109008</ele>
        <time>2024-07-14T07:44:11.000Z</time>
      </trkpt>
      <trkpt lat="50.898454" lon="0.111132">
        <ele>15.027528</ele>
        <time>2024-07-14T07:44:21.000Z</time>
      </trkpt>
      <trkpt lat="50.898611" lon="0.111592">
        <ele>14.997864</ele>
        <time>2024-07-14T07:44:25.000Z</time>
      </trkpt>
      <trkpt lat="50.898811" lon="0.112304">
        <ele>14.99353</ele>
        <time>2024-07-14T07:44:30.000Z</time>
      </trkpt>
      <trkpt lat="50.898975" lon="0.112967">
        <ele>15.710879</ele>
        <time>2024-07-14T07:44:35.000Z</time>
      </trkpt>
      <trkpt lat="50.899122" lon="0.113747">
        <ele>16.516403</ele>
        <time>2024-07-14T07:44:41.000Z</time>
      </trkpt>
      <trkpt lat="50.899158" lon="0.114286">
        <ele>17.056479</ele>
        <time>2024-07-14T07:44:45.000Z</time>
      </trkpt>
      <trkpt lat="50.899104" lon="0.115962">
        <ele>18.818652</ele>
        <time>2024-07-14T07:44:57.000Z</time>
      </trkpt>
      <trkpt lat="50.899054" lon="0.116543">
        <ele>19.47458</ele>
        <time>2024-07-14T07:45:01.000Z</time>
      </trkpt>
      <trkpt lat="50.898988" lon="0.117029">
        <ele>20.021619</ele>
        <time>2024-07-14T07:45:04.000Z</time>
      </trkpt>
      <trkpt lat="50.898836" lon="0.117618">
        <ele>20.722539</ele>
        <time>2024-07-14T07:45:08.000Z</time>
      </trkpt>
      <trkpt lat="50.898678" lon="0.118043">
        <ele>20.853961</ele>
        <time>2024-07-14T07:45:11.000Z</time>
      </trkpt>
      <trkpt lat="50.898617" lon="0.118373">
        <ele>20.768374</ele>
        <time>2024-07-14T07:45:13.000Z</time>
      </trkpt>
      <trkpt lat="50.898565" lon="0.118624">
        <ele>20.699688</ele>
        <time>2024-07-14T07:45:15.000Z</time>
      </trkpt>
      <trkpt lat="50.898478" lon="0.119328">
        <ele>20.519943</ele>
        <time>2024-07-14T07:45:20.000Z</time>
      </trkpt>
      <trkpt lat="50.898438" lon="0.120204">
        <ele>20.296424</ele>
        <time>2024-07-14T07:45:26.000Z</time>
      </trkpt>
      <trkpt lat="50.898443" lon="0.120211">
        <ele>20.296411</ele>
        <time>2024-07-14T07:45:26.000Z</time>
      </trkpt>
      <trkpt lat="50.898439" lon="0.120217">
        <ele>20.295916</ele>
        <time>2024-07-14T07:45:26.000Z</time>
      </trkpt>
      <trkpt lat="50.89841" lon="0.121135">
        <ele>20.228979</ele>
        <time>2024-07-14T07:45:32.000Z</time>
      </trkpt>
      <trkpt lat="50.898352" lon="0.122624">
        <ele>20.278532</ele>
        <time>2024-07-14T07:45:42.000Z</time>
      </trkpt>
      <trkpt lat="50.898345" lon="0.123551">
        <ele>20.307224</ele>
        <time>2024-07-14T07:45:49.000Z</time>
      </trkpt>
      <trkpt lat="50.898304" lon="0.124168">
        <ele>20.318353</ele>
        <time>2024-07-14T07:45:53.000Z</time>
      </trkpt>
      <trkpt lat="50.898174" lon="0.125106">
        <ele>20.335806</ele>
        <time>2024-07-14T07:46:00.000Z</time>
      </trkpt>
      <trkpt lat="50.898027" lon="0.126031">
        <ele>20.353158</ele>
        <time>2024-07-14T07:46:07.000Z</time>
      </trkpt>
      <trkpt lat="50.897923" lon="0.127669">
        <ele>20.416603</ele>
        <time>2024-07-14T07:46:19.000Z</time>
      </trkpt>
      <trkpt lat="50.897817" lon="0.129591">
        <ele>20.322933</ele>
        <time>2024-07-14T07:46:33.000Z</time>
      </trkpt>
      <trkpt lat="50.897636" lon="0.131568">
        <ele>19.788258</ele>
        <time>2024-07-14T07:46:47.000Z</time>
      </trkpt>
      <trkpt lat="50.897622" lon="0.13233">
        <ele>19.297889</ele>
        <time>2024-07-14T07:46:52.000Z</time>
      </trkpt>
      <trkpt lat="50.897689" lon="0.132751">
        <ele>18.902659</ele>
        <time>2024-07-14T07:46:55.000Z</time>
      </trkpt>
      <trkpt lat="50.898039" lon="0.133652">
        <ele>17.961689</ele>
        <time>2024-07-14T07:47:02.000Z</time>
      </trkpt>
      <trkpt lat="50.898298" lon="0.134267">
        <ele>17.321704</ele>
        <time>2024-07-14T07:47:07.000Z</time>
      </trkpt>
      <trkpt lat="50.897945" lon="0.134492">
        <ele>16.829707</ele>
        <time>2024-07-14T07:47:11.000Z</time>
      </trkpt>
      <trkpt lat="50.89777" lon="0.134584">
        <ele>16.598194</ele>
        <time>2024-07-14T07:47:13.000Z</time>
      </trkpt>
      <trkpt lat="50.897763" lon="0.13459">
        <ele>16.598186</ele>
        <time>2024-07-14T07:47:13.000Z</time>
      </trkpt>
      <trkpt lat="50.897757" lon="0.134585">
        <ele>16.595556</ele>
        <time>2024-07-14T07:47:13.000Z</time>
      </trkpt>
      <trkpt lat="50.897477" lon="0.134752">
        <ele>16.217383</ele>
        <time>2024-07-14T07:47:16.000Z</time>
      </trkpt>
      <trkpt lat="50.897192" lon="0.134828">
        <ele>15.84958</ele>
        <time>2024-07-14T07:47:19.000Z</time>
      </trkpt>
      <trkpt lat="50.896885" lon="0.13485">
        <ele>15.472664</ele>
        <time>2024-07-14T07:47:22.000Z</time>
      </trkpt>
      <trkpt lat="50.896629" lon="0.134879">
        <ele>15.146278</ele>
        <time>2024-07-14T07:47:25.000Z</time>
      </trkpt>
      <trkpt lat="50.896369" lon="0.134849">
        <ele>14.846894</ele>
        <time>2024-07-14T07:47:28.000Z</time>
      </trkpt>
      <trkpt lat="50.895894" lon="0.134757">
        <ele>14.422976</ele>
        <time>2024-07-14T07:47:33.000Z</time>
      </trkpt>
      <trkpt lat="50.895129" lon="0.134533">
        <ele>13.722389</ele>
        <time>2024-07-14T07:47:42.000Z</time>
      </trkpt>
      <trkpt lat="50.894603" lon="0.134246">
        <ele>13.286831</ele>
        <time>2024-07-14T07:47:48.000Z</time>
      </trkpt>
      <trkpt lat="50.894002" lon="0.133784">
        <ele>13.168844</ele>
        <time>2024-07-14T07:47:55.000Z</time>
      </trkpt>
      <trkpt lat="50.893814" lon="0.133666">
        <ele>13.134116</ele>
        <time>2024-07-14T07:47:57.000Z</time>
      </trkpt>
      <trkpt lat="50.893703" lon="0.133633">
        <ele>13.112329</ele>
        <time>2024-07-14T07:47:58.000Z</time>
      </trkpt>
      <trkpt lat="50.893234" lon="0.133525">
        <ele>13.029786</ele>
        <time>2024-07-14T07:48:03.000Z</time>
      </trkpt>
      <trkpt lat="50.892812" lon="0.133377">
        <ele>12.830481</ele>
        <time>2024-07-14T07:48:08.000Z</time>
      </trkpt>
      <trkpt lat="50.892819" lon="0.133386">
        <ele>12.83048</ele>
        <time>2024-07-14T07:48:08.000Z</time>
      </trkpt>
      <trkpt lat="50.892826" lon="0.133374">
        <ele>12.829446</ele>
        <time>2024-07-14T07:48:08.000Z</time>
      </trkpt>
      <trkpt lat="50.892769" lon="0.133361">
        <ele>12.786126</ele>
        <time>2024-07-14T07:48:09.000Z</time>
      </trkpt>
      <trkpt lat="50.892456" lon="0.133329">
        <ele>12.503478</ele>
        <time>2024-07-14T07:48:12.000Z</time>
      </trkpt>
      <trkpt lat="50.892296" lon="0.133383">
        <ele>12.358718</ele>
        <time>2024-07-14T07:48:14.000Z</time>
      </trkpt>
      <trkpt lat="50.892222" lon="0.133405">
        <ele>12.303304</ele>
        <time>2024-07-14T07:48:15.000Z</time>
      </trkpt>
      <trkpt lat="50.892059" lon="0.133539">
        <ele>12.129137</ele>
        <time>2024-07-14T07:48:17.000Z</time>
      </trkpt>
      <trkpt lat="50.891914" lon="0.133662">
        <ele>11.993789</ele>
        <time>2024-07-14T07:48:19.000Z</time>
      </trkpt>
      <trkpt lat="50.891839" lon="0.133826">
        <ele>11.87472</ele>
        <time>2024-07-14T07:48:20.000Z</time>
      </trkpt>
      <trkpt lat="50.891635" lon="0.134448">
        <ele>11.487938</ele>
        <time>2024-07-14T07:48:25.000Z</time>
      </trkpt>
      <trkpt lat="50.891311" lon="0.135308">
        <ele>11.712905</ele>
        <time>2024-07-14T07:48:32.000Z</time>
      </trkpt>
      <trkpt lat="50.890975" lon="0.136077">
        <ele>12.069583</ele>
        <time>2024-07-14T07:48:39.000Z</time>
      </trkpt>
      <trkpt lat="50.890898" lon="0.136216">
        <ele>12.148157</ele>
        <time>2024-07-14T07:48:40.000Z</time>
      </trkpt>
      <trkpt lat="50.890828" lon="0.136263">
        <ele>12.194348</ele>
        <time>2024-07-14T07:48:41.000Z</time>
      </trkpt>
      <trkpt lat="50.890772" lon="0.136309">
        <ele>12.220963</ele>
        <time>2024-07-14T07:48:42.000Z</time>
      </trkpt>
      <trkpt lat="50.890721" lon="0.136281">
        <ele>12.251287</ele>
        <time>2024-07-14T07:48:43.000Z</time>
      </trkpt>
      <trkpt lat="50.890663" lon="0.136289">
        <ele>12.287591</ele>
        <time>2024-07-14T07:48:44.000Z</time>
      </trkpt>
      <trkpt lat="50.890441" lon="0.136073">
        <ele>12.445413</ele>
        <time>2024-07-14T07:48:47.000Z</time>
      </trkpt>
      <trkpt lat="50.889722" lon="0.135483">
        <ele>12.681226</ele>
        <time>2024-07-14T07:48:56.000Z</time>
      </trkpt>
      <trkpt lat="50.889178" lon="0.134967">
        <ele>12.852135</ele>
        <time>2024-07-14T07:49:03.000Z</time>
      </trkpt>
      <trkpt lat="50.888194" lon="0.133997">
        <ele>12.537965</ele>
        <time>2024-07-14T07:49:16.000Z</time>
      </trkpt>
      <trkpt lat="50.888098" lon="0.133903">
        <ele>12.479875</ele>
        <time>2024-07-14T07:49:17.000Z</time>
      </trkpt>
      <trkpt lat="50.888029" lon="0.133892">
        <ele>12.440316</ele>
        <time>2024-07-14T07:49:18.000Z</time>
      </trkpt>
      <trkpt lat="50.887961" lon="0.133919">
        <ele>12.406356</ele>
        <time>2024-07-14T07:49:19.000Z</time>
      </trkpt>
      <trkpt lat="50.887882" lon="0.133972">
        <ele>12.349919</ele>
        <time>2024-07-14T07:49:20.000Z</time>
      </trkpt>
      <trkpt lat="50.887437" lon="0.134922">
        <ele>11.949682</ele>
        <time>2024-07-14T07:49:28.000Z</time>
      </trkpt>
      <trkpt lat="50.886967" lon="0.135944">
        <ele>12.003159</ele>
        <time>2024-07-14T07:49:37.000Z</time>
      </trkpt>
      <trkpt lat="50.886775" lon="0.136325">
        <ele>12.023491</ele>
        <time>2024-07-14T07:49:40.000Z</time>
      </trkpt>
      <trkpt lat="50.886485" lon="0.136757">
        <ele>12.050634</ele>
        <time>2024-07-14T07:49:44.000Z</time>
      </trkpt>
      <trkpt lat="50.886181" lon="0.137166">
        <ele>12.08956</ele>
        <time>2024-07-14T07:49:48.000Z</time>
      </trkpt>
      <trkpt lat="50.885785" lon="0.137591">
        <ele>12.163302</ele>
        <time>2024-07-14T07:49:53.000Z</time>
      </trkpt>
      <trkpt lat="50.885696" lon="0.137728">
        <ele>12.183357</ele>
        <time>2024-07-14T07:49:54.000Z</time>
      </trkpt>
      <trkpt lat="50.885406" lon="0.138286">
        <ele>12.252551</ele>
        <time>2024-07-14T07:49:59.000Z</time>
      </trkpt>
      <trkpt lat="50.885091" lon="0.139077">
        <ele>12.343638</ele>
        <time>2024-07-14T07:50:06.000Z</time>
      </trkpt>
      <trkpt lat="50.884969" lon="0.139319">
        <ele>12.183272</ele>
        <time>2024-07-14T07:50:08.000Z</time>
      </trkpt>
      <trkpt lat="50.884706" lon="0.139027">
        <ele>11.895802</ele>
        <time>2024-07-14T07:50:12.000Z</time>
      </trkpt>
      <trkpt lat="50.884174" lon="0.138293">
        <ele>11.257155</ele>
        <time>2024-07-14T07:50:20.000Z</time>
      </trkpt>
      <trkpt lat="50.883681" lon="0.137649">
        <ele>10.655248</ele>
        <time>2024-07-14T07:50:27.000Z</time>
      </trkpt>
      <trkpt lat="50.883682" lon="0.137643">
        <ele>10.647961</ele>
        <time>2024-07-14T07:50:27.000Z</time>
      </trkpt>
      <trkpt lat="50.883544" lon="0.137463">
        <ele>10.381626</ele>
        <time>2024-07-14T07:50:29.000Z</time>
      </trkpt>
      <trkpt lat="50.883075" lon="0.136857">
        <ele>9.503784</ele>
        <time>2024-07-14T07:50:36.000Z</time>
      </trkpt>
      <trkpt lat="50.882752" lon="0.136344">
        <ele>8.847991</ele>
        <time>2024-07-14T07:50:41.000Z</time>
      </trkpt>
      <trkpt lat="50.882483" lon="0.135919">
        <ele>8.294873</ele>
        <time>2024-07-14T07:50:45.000Z</time>
      </trkpt>
      <trkpt lat="50.882134" lon="0.135261">
        <ele>8.076972</ele>
        <time>2024-07-14T07:50:51.000Z</time>
      </trkpt>
      <trkpt lat="50.882026" lon="0.135119">
        <ele>8.060586</ele>
        <time>2024-07-14T07:50:53.000Z</time>
      </trkpt>
      <trkpt lat="50.881848" lon="0.134916">
        <ele>8.036481</ele>
        <time>2024-07-14T07:50:55.000Z</time>
      </trkpt>
      <trkpt lat="50.881043" lon="0.1341">
        <ele>7.933272</ele>
        <time>2024-07-14T07:51:06.000Z</time>
      </trkpt>
      <trkpt lat="50.88022" lon="0.133112">
        <ele>8.971598</ele>
        <time>2024-07-14T07:51:17.000Z</time>
      </trkpt>
      <trkpt lat="50.879473" lon="0.132233">
        <ele>9.98831</ele>
        <time>2024-07-14T07:51:27.000Z</time>
      </trkpt>
      <trkpt lat="50.879154" lon="0.131908">
        <ele>10.379793</ele>
        <time>2024-07-14T07:51:31.000Z</time>
      </trkpt>
      <trkpt lat="50.878329" lon="0.131063">
        <ele>11.430788</ele>
        <time>2024-07-14T07:51:42.000Z</time>
      </trkpt>
      <trkpt lat="50.877875" lon="0.130635">
        <ele>11.775564</ele>
        <time>2024-07-14T07:51:48.000Z</time>
      </trkpt>
      <trkpt lat="50.877839" lon="0.130768">
        <ele>11.770296</ele>
        <time>2024-07-14T07:51:49.000Z</time>
      </trkpt>
      <trkpt lat="50.877781" lon="0.131213">
        <ele>11.754723</ele>
        <time>2024-07-14T07:51:52.000Z</time>
      </trkpt>
      <trkpt lat="50.877777" lon="0.131768">
        <ele>11.736185</ele>
        <time>2024-07-14T07:51:56.000Z</time>
      </trkpt>
      <trkpt lat="50.877685" lon="0.132216">
        <ele>11.72016</ele>
        <time>2024-07-14T07:51:59.000Z</time>
      </trkpt>
      <trkpt lat="50.877448" lon="0.133119">
        <ele>11.717681</ele>
        <time>2024-07-14T07:52:06.000Z</time>
      </trkpt>
      <trkpt lat="50.877054" lon="0.134089">
        <ele>12.327934</ele>
        <time>2024-07-14T07:52:14.000Z</time>
      </trkpt>
      <trkpt lat="50.876548" lon="0.135083">
        <ele>13.010097</ele>
        <time>2024-07-14T07:52:23.000Z</time>
      </trkpt>
      <trkpt lat="50.876134" lon="0.135746">
        <ele>13.623956</ele>
        <time>2024-07-14T07:52:30.000Z</time>
      </trkpt>
      <trkpt lat="50.875944" lon="0.135985">
        <ele>13.905845</ele>
        <time>2024-07-14T07:52:33.000Z</time>
      </trkpt>
      <trkpt lat="50.87569" lon="0.136211">
        <ele>14.241257</ele>
        <time>2024-07-14T07:52:36.000Z</time>
      </trkpt>
      <trkpt lat="50.875392" lon="0.136479">
        <ele>14.62428</ele>
        <time>2024-07-14T07:52:40.000Z</time>
      </trkpt>
      <trkpt lat="50.875281" lon="0.136629">
        <ele>14.801611</ele>
        <time>2024-07-14T07:52:42.000Z</time>
      </trkpt>
      <trkpt lat="50.875122" lon="0.136877">
        <ele>15.054178</ele>
        <time>2024-07-14T07:52:44.000Z</time>
      </trkpt>
      <trkpt lat="50.874891" lon="0.137333">
        <ele>15.380855</ele>
        <time>2024-07-14T07:52:48.000Z</time>
      </trkpt>
      <trkpt lat="50.874276" lon="0.138341">
        <ele>15.840816</ele>
        <time>2024-07-14T07:52:58.000Z</time>
      </trkpt>
      <trkpt lat="50.873852" lon="0.138965">
        <ele>16.137722</ele>
        <time>2024-07-14T07:53:04.000Z</time>
      </trkpt>
      <trkpt lat="50.873769" lon="0.139116">
        <ele>16.20035</ele>
        <time>2024-07-14T07:53:05.000Z</time>
      </trkpt>
      <trkpt lat="50.873759" lon="0.139147">
        <ele>16.216012</ele>
        <time>2024-07-14T07:53:05.000Z</time>
      </trkpt>
      <trkpt lat="50.873547" lon="0.139541">
        <ele>16.249469</ele>
        <time>2024-07-14T07:53:09.000Z</time>
      </trkpt>
      <trkpt lat="50.873208" lon="0.140261">
        <ele>16.304077</ele>
        <time>2024-07-14T07:53:15.000Z</time>
      </trkpt>
      <trkpt lat="50.872784" lon="0.141432">
        <ele>16.386548</ele>
        <time>2024-07-14T07:53:24.000Z</time>
      </trkpt>
      <trkpt lat="50.872568" lon="0.141914">
        <ele>16.735887</ele>
        <time>2024-07-14T07:53:28.000Z</time>
      </trkpt>
      <trkpt lat="50.872475" lon="0.141935">
        <ele>16.823537</ele>
        <time>2024-07-14T07:53:29.000Z</time>
      </trkpt>
      <trkpt lat="50.872429" lon="0.141945">
        <ele>16.877623</ele>
        <time>2024-07-14T07:53:30.000Z</time>
      </trkpt>
      <trkpt lat="50.871989" lon="0.141492">
        <ele>17.444272</ele>
        <time>2024-07-14T07:53:36.000Z</time>
      </trkpt>
      <trkpt lat="50.871899" lon="0.141445">
        <ele>17.54542</ele>
        <time>2024-07-14T07:53:37.000Z</time>
      </trkpt>
      <trkpt lat="50.871828" lon="0.141463">
        <ele>17.632264</ele>
        <time>2024-07-14T07:53:38.000Z</time>
      </trkpt>
      <trkpt lat="50.87162" lon="0.141513">
        <ele>17.851339</ele>
        <time>2024-07-14T07:53:40.000Z</time>
      </trkpt>
      <trkpt lat="50.871438" lon="0.14167">
        <ele>18.074659</ele>
        <time>2024-07-14T07:53:42.000Z</time>
      </trkpt>
      <trkpt lat="50.87128" lon="0.141988">
        <ele>18.341289</ele>
        <time>2024-07-14T07:53:45.000Z</time>
      </trkpt>
      <trkpt lat="50.870962" lon="0.142563">
        <ele>18.429783</ele>
        <time>2024-07-14T07:53:50.000Z</time>
      </trkpt>
      <trkpt lat="50.870674" lon="0.142941">
        <ele>18.498286</ele>
        <time>2024-07-14T07:53:54.000Z</time>
      </trkpt>
      <trkpt lat="50.870486" lon="0.143245">
        <ele>18.547116</ele>
        <time>2024-07-14T07:53:57.000Z</time>
      </trkpt>
      <trkpt lat="50.870566" lon="0.143613">
        <ele>18.590957</ele>
        <time>2024-07-14T07:54:00.000Z</time>
      </trkpt>
      <trkpt lat="50.870728" lon="0.144583">
        <ele>18.310459</ele>
        <time>2024-07-14T07:54:07.000Z</time>
      </trkpt>
      <trkpt lat="50.870751" lon="0.145002">
        <ele>17.896948</ele>
        <time>2024-07-14T07:54:10.000Z</time>
      </trkpt>
      <trkpt lat="50.870747" lon="0.145151">
        <ele>17.7466</ele>
        <time>2024-07-14T07:54:11.000Z</time>
      </trkpt>
      <trkpt lat="50.870776" lon="0.145211">
        <ele>17.662272</ele>
        <time>2024-07-14T07:54:12.000Z</time>
      </trkpt>
      <trkpt lat="50.870801" lon="0.145348">
        <ele>17.528892</ele>
        <time>2024-07-14T07:54:13.000Z</time>
      </trkpt>
      <trkpt lat="50.870807" lon="0.145397">
        <ele>17.48903</ele>
        <time>2024-07-14T07:54:13.000Z</time>
      </trkpt>
      <trkpt lat="50.870874" lon="0.14552">
        <ele>17.318699</ele>
        <time>2024-07-14T07:54:14.000Z</time>
      </trkpt>
      <trkpt lat="50.871113" lon="0.145805">
        <ele>16.82935</ele>
        <time>2024-07-14T07:54:17.000Z</time>
      </trkpt>
      <trkpt lat="50.871535" lon="0.146211">
        <ele>16.063605</ele>
        <time>2024-07-14T07:54:22.000Z</time>
      </trkpt>
      <trkpt lat="50.872392" lon="0.147017">
        <ele>14.717517</ele>
        <time>2024-07-14T07:54:33.000Z</time>
      </trkpt>
      <trkpt lat="50.872864" lon="0.147514">
        <ele>13.964821</ele>
        <time>2024-07-14T07:54:39.000Z</time>
      </trkpt>
      <trkpt lat="50.87289" lon="0.147537">
        <ele>13.931739</ele>
        <time>2024-07-14T07:54:39.000Z</time>
      </trkpt>
      <trkpt lat="50.8729" lon="0.147526">
        <ele>13.929614</ele>
        <time>2024-07-14T07:54:39.000Z</time>
      </trkpt>
      <trkpt lat="50.872884" lon="0.147532">
        <ele>13.929614</ele>
        <time>2024-07-14T07:54:39.000Z</time>
      </trkpt>
      <trkpt lat="50.872948" lon="0.147571">
        <ele>13.853935</ele>
        <time>2024-07-14T07:54:40.000Z</time>
      </trkpt>
      <trkpt lat="50.872935" lon="0.147582">
        <ele>13.848958</ele>
        <time>2024-07-14T07:54:40.000Z</time>
      </trkpt>
      <trkpt lat="50.873178" lon="0.147812">
        <ele>13.488962</ele>
        <time>2024-07-14T07:54:43.000Z</time>
      </trkpt>
      <trkpt lat="50.873505" lon="0.148125">
        <ele>13.611591</ele>
        <time>2024-07-14T07:54:47.000Z</time>
      </trkpt>
      <trkpt lat="50.874202" lon="0.148811">
        <ele>13.95055</ele>
        <time>2024-07-14T07:54:56.000Z</time>
      </trkpt>
      <trkpt lat="50.874354" lon="0.148993">
        <ele>14.029522</ele>
        <time>2024-07-14T07:54:58.000Z</time>
      </trkpt>
      <trkpt lat="50.87448" lon="0.149247">
        <ele>14.113571</ele>
        <time>2024-07-14T07:55:00.000Z</time>
      </trkpt>
      <trkpt lat="50.874708" lon="0.149627">
        <ele>14.227468</ele>
        <time>2024-07-14T07:55:04.000Z</time>
      </trkpt>
      <trkpt lat="50.875138" lon="0.150156">
        <ele>14.349302</ele>
        <time>2024-07-14T07:55:10.000Z</time>
      </trkpt>
      <trkpt lat="50.875849" lon="0.151039">
        <ele>14.553825</ele>
        <time>2024-07-14T07:55:20.000Z</time>
      </trkpt>
      <trkpt lat="50.876322" lon="0.151818">
        <ele>14.857868</ele>
        <time>2024-07-14T07:55:28.000Z</time>
      </trkpt>
      <trkpt lat="50.877551" lon="0.153593">
        <ele>16.021761</ele>
        <time>2024-07-14T07:55:46.000Z</time>
      </trkpt>
      <trkpt lat="50.878928" lon="0.155372">
        <ele>18.324984</ele>
        <time>2024-07-14T07:56:06.000Z</time>
      </trkpt>
      <trkpt lat="50.879245" lon="0.155857">
        <ele>18.817332</ele>
        <time>2024-07-14T07:56:11.000Z</time>
      </trkpt>
      <trkpt lat="50.879856" lon="0.156809">
        <ele>19.787447</ele>
        <time>2024-07-14T07:56:21.000Z</time>
      </trkpt>
      <trkpt lat="50.880838" lon="0.158434">
        <ele>21.059648</ele>
        <time>2024-07-14T07:56:37.000Z</time>
      </trkpt>
      <trkpt lat="50.881048" lon="0.158743">
        <ele>21.300857</ele>
        <time>2024-07-14T07:56:40.000Z</time>
      </trkpt>
      <trkpt lat="50.881295" lon="0.159031">
        <ele>21.568382</ele>
        <time>2024-07-14T07:56:43.000Z</time>
      </trkpt>
      <trkpt lat="50.881588" lon="0.159369">
        <ele>21.932714</ele>
        <time>2024-07-14T07:56:47.000Z</time>
      </trkpt>
      <trkpt lat="50.881616" lon="0.159449">
        <ele>21.991881</ele>
        <time>2024-07-14T07:56:48.000Z</time>
      </trkpt>
      <trkpt lat="50.881653" lon="0.159582">
        <ele>22.091923</ele>
        <time>2024-07-14T07:56:49.000Z</time>
      </trkpt>
      <trkpt lat="50.881641" lon="0.159722">
        <ele>22.174578</ele>
        <time>2024-07-14T07:56:50.000Z</time>
      </trkpt>
      <trkpt lat="50.881497" lon="0.160451">
        <ele>22.662693</ele>
        <time>2024-07-14T07:56:55.000Z</time>
      </trkpt>
      <trkpt lat="50.881246" lon="0.162016">
        <ele>23.306303</ele>
        <time>2024-07-14T07:57:06.000Z</time>
      </trkpt>
      <trkpt lat="50.881049" lon="0.162423">
        <ele>23.225457</ele>
        <time>2024-07-14T07:57:10.000Z</time>
      </trkpt>
      <trkpt lat="50.880235" lon="0.163812">
        <ele>22.932835</ele>
        <time>2024-07-14T07:57:23.000Z</time>
      </trkpt>
      <trkpt lat="50.880192" lon="0.163961">
        <ele>22.890693</ele>
        <time>2024-07-14T07:57:24.000Z</time>
      </trkpt>
      <trkpt lat="50.880196" lon="0.164155">
        <ele>22.845814</ele>
        <time>2024-07-14T07:57:25.000Z</time>
      </trkpt>
      <trkpt lat="50.880267" lon="0.164364">
        <ele>22.786286</ele>
        <time>2024-07-14T07:57:27.000Z</time>
      </trkpt>
      <trkpt lat="50.880806" lon="0.165279">
        <ele>22.473303</ele>
        <time>2024-07-14T07:57:36.000Z</time>
      </trkpt>
      <trkpt lat="50.881476" lon="0.166298">
        <ele>22.292585</ele>
        <time>2024-07-14T07:57:46.000Z</time>
      </trkpt>
      <trkpt lat="50.8815" lon="0.166328">
        <ele>22.297107</ele>
        <time>2024-07-14T07:57:46.000Z</time>
      </trkpt>
      <trkpt lat="50.881488" lon="0.166335">
        <ele>22.297117</ele>
        <time>2024-07-14T07:57:46.000Z</time>
      </trkpt>
      <trkpt lat="50.881541" lon="0.166408">
        <ele>22.307655</ele>
        <time>2024-07-14T07:57:47.000Z</time>
      </trkpt>
      <trkpt lat="50.881553" lon="0.166445">
        <ele>22.313407</ele>
        <time>2024-07-14T07:57:47.000Z</time>
      </trkpt>
      <trkpt lat="50.881818" lon="0.166939">
        <ele>22.38167</ele>
        <time>2024-07-14T07:57:52.000Z</time>
      </trkpt>
      <trkpt lat="50.881978" lon="0.167231">
        <ele>22.424224</ele>
        <time>2024-07-14T07:57:55.000Z</time>
      </trkpt>
      <trkpt lat="50.882911" lon="0.168987">
        <ele>22.974771</ele>
        <time>2024-07-14T07:58:11.000Z</time>
      </trkpt>
      <trkpt lat="50.883594" lon="0.170275">
        <ele>23.576328</ele>
        <time>2024-07-14T07:58:23.000Z</time>
      </trkpt>
      <trkpt lat="50.884037" lon="0.170971">
        <ele>23.194728</ele>
        <time>2024-07-14T07:58:30.000Z</time>
      </trkpt>
      <trkpt lat="50.884449" lon="0.171793">
        <ele>22.788203</ele>
        <time>2024-07-14T07:58:37.000Z</time>
      </trkpt>
      <trkpt lat="50.885253" lon="0.173421">
        <ele>21.857748</ele>
        <time>2024-07-14T07:58:52.000Z</time>
      </trkpt>
      <trkpt lat="50.885398" lon="0.173757">
        <ele>21.664288</ele>
        <time>2024-07-14T07:58:55.000Z</time>
      </trkpt>
      <trkpt lat="50.885745" lon="0.174563">
        <ele>21.1867</ele>
        <time>2024-07-14T07:59:02.000Z</time>
      </trkpt>
      <trkpt lat="50.886038" lon="0.175456">
        <ele>21.045988</ele>
        <time>2024-07-14T07:59:09.000Z</time>
      </trkpt>
      <trkpt lat="50.886283" lon="0.176344">
        <ele>20.991397</ele>
        <time>2024-07-14T07:59:16.000Z</time>
      </trkpt>
      <trkpt lat="50.886391" lon="0.176613">
        <ele>20.972761</ele>
        <time>2024-07-14T07:59:18.000Z</time>
      </trkpt>
      <trkpt lat="50.886688" lon="0.177144">
        <ele>20.93276</ele>
        <time>2024-07-14T07:59:23.000Z</time>
      </trkpt>
      <trkpt lat="50.887791" lon="0.178708">
        <ele>22.078416</ele>
        <time>2024-07-14T07:59:39.000Z</time>
      </trkpt>
      <trkpt lat="50.889126" lon="0.180715">
        <ele>24.689156</ele>
        <time>2024-07-14T07:59:59.000Z</time>
      </trkpt>
      <trkpt lat="50.890213" lon="0.18235">
        <ele>26.132287</ele>
        <time>2024-07-14T08:00:16.000Z</time>
      </trkpt>
      <trkpt lat="50.890228" lon="0.18238">
        <ele>26.153218</ele>
        <time>2024-07-14T08:00:16.000Z</time>
      </trkpt>
      <trkpt lat="50.890227" lon="0.182369">
        <ele>26.153216</ele>
        <time>2024-07-14T08:00:16.000Z</time>
      </trkpt>
      <trkpt lat="50.89028" lon="0.182441">
        <ele>26.203058</ele>
        <time>2024-07-14T08:00:17.000Z</time>
      </trkpt>
      <trkpt lat="50.890577" lon="0.182887">
        <ele>26.529052</ele>
        <time>2024-07-14T08:00:22.000Z</time>
      </trkpt>
      <trkpt lat="50.890806" lon="0.183201">
        <ele>26.661254</ele>
        <time>2024-07-14T08:00:25.000Z</time>
      </trkpt>
      <trkpt lat="50.890915" lon="0.183371">
        <ele>26.692163</ele>
        <time>2024-07-14T08:00:27.000Z</time>
      </trkpt>
      <trkpt lat="50.890926" lon="0.183489">
        <ele>26.706698</ele>
        <time>2024-07-14T08:00:28.000Z</time>
      </trkpt>
      <trkpt lat="50.890904" lon="0.18369">
        <ele>26.734039</ele>
        <time>2024-07-14T08:00:29.000Z</time>
      </trkpt>
      <trkpt lat="50.890687" lon="0.184507">
        <ele>26.847141</ele>
        <time>2024-07-14T08:00:35.000Z</time>
      </trkpt>
      <trkpt lat="50.890412" lon="0.184358">
        <ele>26.90328</ele>
        <time>2024-07-14T08:00:38.000Z</time>
      </trkpt>
      <trkpt lat="50.890259" lon="0.184276">
        <ele>26.938623</ele>
        <time>2024-07-14T08:00:40.000Z</time>
      </trkpt>
      <trkpt lat="50.890109" lon="0.184251">
        <ele>26.967057</ele>
        <time>2024-07-14T08:00:42.000Z</time>
      </trkpt>
      <trkpt lat="50.889915" lon="0.184265">
        <ele>26.926242</ele>
        <time>2024-07-14T08:00:44.000Z</time>
      </trkpt>
      <trkpt lat="50.889415" lon="0.184422">
        <ele>26.655321</ele>
        <time>2024-07-14T08:00:50.000Z</time>
      </trkpt>
      <trkpt lat="50.888161" lon="0.184838">
        <ele>25.951549</ele>
        <time>2024-07-14T08:01:04.000Z</time>
      </trkpt>
      <trkpt lat="50.886932" lon="0.185234">
        <ele>24.951175</ele>
        <time>2024-07-14T08:01:18.000Z</time>
      </trkpt>
      <trkpt lat="50.885625" lon="0.185649">
        <ele>23.901255</ele>
        <time>2024-07-14T08:01:33.000Z</time>
      </trkpt>
      <trkpt lat="50.88421" lon="0.186107">
        <ele>22.85066</ele>
        <time>2024-07-14T08:01:49.000Z</time>
      </trkpt>
      <trkpt lat="50.884179" lon="0.186113">
        <ele>22.833861</ele>
        <time>2024-07-14T08:01:49.000Z</time>
      </trkpt>
      <trkpt lat="50.88418" lon="0.186115">
        <ele>22.833878</ele>
        <time>2024-07-14T08:01:49.000Z</time>
      </trkpt>
      <trkpt lat="50.884114" lon="0.186133">
        <ele>22.795272</ele>
        <time>2024-07-14T08:01:50.000Z</time>
      </trkpt>
      <trkpt lat="50.883423" lon="0.186351">
        <ele>22.343226</ele>
        <time>2024-07-14T08:01:58.000Z</time>
      </trkpt>
      <trkpt lat="50.883329" lon="0.186386">
        <ele>22.285908</ele>
        <time>2024-07-14T08:01:59.000Z</time>
      </trkpt>
      <trkpt lat="50.882854" lon="0.185621">
        <ele>21.531073</ele>
        <time>2024-07-14T08:02:07.000Z</time>
      </trkpt>
      <trkpt lat="50.881657" lon="0.183713">
        <ele>18.866445</ele>
        <time>2024-07-14T08:02:26.000Z</time>
      </trkpt>
      <trkpt lat="50.880571" lon="0.182114">
        <ele>17.835149</ele>
        <time>2024-07-14T08:02:42.000Z</time>
      </trkpt>
      <trkpt lat="50.880206" lon="0.181568">
        <ele>18.006838</ele>
        <time>2024-07-14T08:02:48.000Z</time>
      </trkpt>
      <trkpt lat="50.879391" lon="0.180571">
        <ele>18.657339</ele>
        <time>2024-07-14T08:02:59.000Z</time>
      </trkpt>
      <trkpt lat="50.879054" lon="0.180168">
        <ele>18.905378</ele>
        <time>2024-07-14T08:03:04.000Z</time>
      </trkpt>
      <trkpt lat="50.878805" lon="0.179975">
        <ele>18.889024</ele>
        <time>2024-07-14T08:03:07.000Z</time>
      </trkpt>
      <trkpt lat="50.878374" lon="0.179637">
        <ele>18.860963</ele>
        <time>2024-07-14T08:03:12.000Z</time>
      </trkpt>
      <trkpt lat="50.878227" lon="0.17951">
        <ele>18.851154</ele>
        <time>2024-07-14T08:03:14.000Z</time>
      </trkpt>
      <trkpt lat="50.878093" lon="0.179318">
        <ele>18.840573</ele>
        <time>2024-07-14T08:03:16.000Z</time>
      </trkpt>
      <trkpt lat="50.877913" lon="0.179073">
        <ele>18.826852</ele>
        <time>2024-07-14T08:03:19.000Z</time>
      </trkpt>
      <trkpt lat="50.877675" lon="0.17865">
        <ele>18.805981</ele>
        <time>2024-07-14T08:03:23.000Z</time>
      </trkpt>
      <trkpt lat="50.877275" lon="0.177852">
        <ele>18.990883</ele>
        <time>2024-07-14T08:03:30.000Z</time>
      </trkpt>
      <trkpt lat="50.87695" lon="0.177067">
        <ele>19.182139</ele>
        <time>2024-07-14T08:03:37.000Z</time>
      </trkpt>
      <trkpt lat="50.876514" lon="0.176067">
        <ele>19.598074</ele>
        <time>2024-07-14T08:03:46.000Z</time>
      </trkpt>
      <trkpt lat="50.876242" lon="0.175462">
        <ele>20.287956</ele>
        <time>2024-07-14T08:03:51.000Z</time>
      </trkpt>
      <trkpt lat="50.876012" lon="0.175077">
        <ele>20.774723</ele>
        <time>2024-07-14T08:03:55.000Z</time>
      </trkpt>
      <trkpt lat="50.875005" lon="0.173721">
        <ele>23.145133</ele>
        <time>2024-07-14T08:04:10.000Z</time>
      </trkpt>
      <trkpt lat="50.87367" lon="0.171948">
        <ele>26.460293</ele>
        <time>2024-07-14T08:04:29.000Z</time>
      </trkpt>
      <trkpt lat="50.873186" lon="0.171072">
        <ele>26.631153</ele>
        <time>2024-07-14T08:04:37.000Z</time>
      </trkpt>
      <trkpt lat="50.872977" lon="0.170784">
        <ele>26.695319</ele>
        <time>2024-07-14T08:04:40.000Z</time>
      </trkpt>
      <trkpt lat="50.872951" lon="0.170771">
        <ele>26.701411</ele>
        <time>2024-07-14T08:04:40.000Z</time>
      </trkpt>
      <trkpt lat="50.872948" lon="0.170767">
        <ele>26.701413</ele>
        <time>2024-07-14T08:04:40.000Z</time>
      </trkpt>
      <trkpt lat="50.8729" lon="0.170694">
        <ele>26.715722</ele>
        <time>2024-07-14T08:04:41.000Z</time>
      </trkpt>
      <trkpt lat="50.872337" lon="0.169939">
        <ele>25.647332</ele>
        <time>2024-07-14T08:04:49.000Z</time>
      </trkpt>
      <trkpt lat="50.871236" lon="0.168492">
        <ele>22.307285</ele>
        <time>2024-07-14T08:05:05.000Z</time>
      </trkpt>
      <trkpt lat="50.870173" lon="0.166863">
        <ele>20.220598</ele>
        <time>2024-07-14T08:05:21.000Z</time>
      </trkpt>
      <trkpt lat="50.868164" lon="0.164148">
        <ele>20.116057</ele>
        <time>2024-07-14T08:05:50.000Z</time>
      </trkpt>
      <trkpt lat="50.867383" lon="0.162988">
        <ele>20.666163</ele>
        <time>2024-07-14T08:06:02.000Z</time>
      </trkpt>
      <trkpt lat="50.867062" lon="0.162545">
        <ele>20.93573</ele>
        <time>2024-07-14T08:06:07.000Z</time>
      </trkpt>
      <trkpt lat="50.866578" lon="0.161924">
        <ele>21.367683</ele>
        <time>2024-07-14T08:06:14.000Z</time>
      </trkpt>
      <trkpt lat="50.866299" lon="0.161547">
        <ele>21.616244</ele>
        <time>2024-07-14T08:06:18.000Z</time>
      </trkpt>
      <trkpt lat="50.866009" lon="0.161207">
        <ele>21.859145</ele>
        <time>2024-07-14T08:06:22.000Z</time>
      </trkpt>
      <trkpt lat="50.865411" lon="0.160526">
        <ele>22.068443</ele>
        <time>2024-07-14T08:06:30.000Z</time>
      </trkpt>
      <trkpt lat="50.864771" lon="0.159674">
        <ele>22.230835</ele>
        <time>2024-07-14T08:06:39.000Z</time>
      </trkpt>
      <trkpt lat="50.864529" lon="0.159311">
        <ele>22.294271</ele>
        <time>2024-07-14T08:06:43.000Z</time>
      </trkpt>
      <trkpt lat="50.864468" lon="0.159243">
        <ele>22.31266</ele>
        <time>2024-07-14T08:06:44.000Z</time>
      </trkpt>
      <trkpt lat="50.864375" lon="0.159296">
        <ele>22.334871</ele>
        <time>2024-07-14T08:06:45.000Z</time>
      </trkpt>
      <trkpt lat="50.864293" lon="0.159388">
        <ele>22.358175</ele>
        <time>2024-07-14T08:06:46.000Z</time>
      </trkpt>
      <trkpt lat="50.864169" lon="0.159671">
        <ele>22.41145</ele>
        <time>2024-07-14T08:06:48.000Z</time>
      </trkpt>
      <trkpt lat="50.863767" lon="0.160688">
        <ele>22.590306</ele>
        <time>2024-07-14T08:06:56.000Z</time>
      </trkpt>
      <trkpt lat="50.86361" lon="0.160847">
        <ele>22.63413</ele>
        <time>2024-07-14T08:06:58.000Z</time>
      </trkpt>
      <trkpt lat="50.863233" lon="0.161066">
        <ele>22.727532</ele>
        <time>2024-07-14T08:07:02.000Z</time>
      </trkpt>
      <trkpt lat="50.86315" lon="0.161158">
        <ele>22.693645</ele>
        <time>2024-07-14T08:07:03.000Z</time>
      </trkpt>
      <trkpt lat="50.863094" lon="0.161308">
        <ele>22.662342</ele>
        <time>2024-07-14T08:07:04.000Z</time>
      </trkpt>
      <trkpt lat="50.861665" lon="0.164608">
        <ele>21.901142</ele>
        <time>2024-07-14T08:07:32.000Z</time>
      </trkpt>
      <trkpt lat="50.861449" lon="0.165107">
        <ele>21.790385</ele>
        <time>2024-07-14T08:07:36.000Z</time>
      </trkpt>
      <trkpt lat="50.861336" lon="0.165243">
        <ele>21.749759</ele>
        <time>2024-07-14T08:07:38.000Z</time>
      </trkpt>
      <trkpt lat="50.861231" lon="0.165295">
        <ele>21.720064</ele>
        <time>2024-07-14T08:07:39.000Z</time>
      </trkpt>
      <trkpt lat="50.861125" lon="0.165255">
        <ele>21.687929</ele>
        <time>2024-07-14T08:07:40.000Z</time>
      </trkpt>
      <trkpt lat="50.860623" lon="0.164712">
        <ele>21.462995</ele>
        <time>2024-07-14T08:07:47.000Z</time>
      </trkpt>
      <trkpt lat="50.859965" lon="0.163942">
        <ele>21.149411</ele>
        <time>2024-07-14T08:07:56.000Z</time>
      </trkpt>
      <trkpt lat="50.858735" lon="0.162314">
        <ele>21.085779</ele>
        <time>2024-07-14T08:08:14.000Z</time>
      </trkpt>
      <trkpt lat="50.858728" lon="0.162302">
        <ele>21.086171</ele>
        <time>2024-07-14T08:08:14.000Z</time>
      </trkpt>
      <trkpt lat="50.8587" lon="0.162281">
        <ele>21.088976</ele>
        <time>2024-07-14T08:08:14.000Z</time>
      </trkpt>
      <trkpt lat="50.858707" lon="0.162286">
        <ele>21.088983</ele>
        <time>2024-07-14T08:08:14.000Z</time>
      </trkpt>
      <trkpt lat="50.858664" lon="0.162217">
        <ele>21.0956</ele>
        <time>2024-07-14T08:08:15.000Z</time>
      </trkpt>
      <trkpt lat="50.858037" lon="0.161508">
        <ele>21.331892</ele>
        <time>2024-07-14T08:08:24.000Z</time>
      </trkpt>
      <trkpt lat="50.857372" lon="0.160648">
        <ele>22.142967</ele>
        <time>2024-07-14T08:08:34.000Z</time>
      </trkpt>
      <trkpt lat="50.857066" lon="0.160312">
        <ele>22.497611</ele>
        <time>2024-07-14T08:08:38.000Z</time>
      </trkpt>
      <trkpt lat="50.856631" lon="0.159905">
        <ele>22.964942</ele>
        <time>2024-07-14T08:08:44.000Z</time>
      </trkpt>
      <trkpt lat="50.856274" lon="0.15957">
        <ele>23.382423</ele>
        <time>2024-07-14T08:08:49.000Z</time>
      </trkpt>
      <trkpt lat="50.855783" lon="0.158805">
        <ele>24.072677</ele>
        <time>2024-07-14T08:08:57.000Z</time>
      </trkpt>
      <trkpt lat="50.855768" lon="0.158786">
        <ele>24.100099</ele>
        <time>2024-07-14T08:08:57.000Z</time>
      </trkpt>
      <trkpt lat="50.855712" lon="0.158781">
        <ele>24.150306</ele>
        <time>2024-07-14T08:08:58.000Z</time>
      </trkpt>
      <trkpt lat="50.855594" lon="0.158831">
        <ele>24.26272</ele>
        <time>2024-07-14T08:08:59.000Z</time>
      </trkpt>
      <trkpt lat="50.855453" lon="0.158958">
        <ele>24.424368</ele>
        <time>2024-07-14T08:09:01.000Z</time>
      </trkpt>
      <trkpt lat="50.854549" lon="0.160744">
        <ele>24.044852</ele>
        <time>2024-07-14T08:09:17.000Z</time>
      </trkpt>
      <trkpt lat="50.853507" lon="0.162747">
        <ele>22.900059</ele>
        <time>2024-07-14T08:09:35.000Z</time>
      </trkpt>
      <trkpt lat="50.853492" lon="0.162924">
        <ele>22.808476</ele>
        <time>2024-07-14T08:09:36.000Z</time>
      </trkpt>
      <trkpt lat="50.85397" lon="0.163884">
        <ele>22.24187</ele>
        <time>2024-07-14T08:09:45.000Z</time>
      </trkpt>
      <trkpt lat="50.854301" lon="0.164578">
        <ele>21.976569</ele>
        <time>2024-07-14T08:09:51.000Z</time>
      </trkpt>
      <trkpt lat="50.854934" lon="0.165681">
        <ele>21.52418</ele>
        <time>2024-07-14T08:10:01.000Z</time>
      </trkpt>
      <trkpt lat="50.855449" lon="0.166349">
        <ele>20.878946</ele>
        <time>2024-07-14T08:10:08.000Z</time>
      </trkpt>
      <trkpt lat="50.855482" lon="0.166471">
        <ele>20.768608</ele>
        <time>2024-07-14T08:10:09.000Z</time>
      </trkpt>
      <trkpt lat="50.855521" lon="0.166555">
        <ele>20.701173</ele>
        <time>2024-07-14T08:10:10.000Z</time>
      </trkpt>
      <trkpt lat="50.855523" lon="0.166626">
        <ele>20.651875</ele>
        <time>2024-07-14T08:10:10.000Z</time>
      </trkpt>
      <trkpt lat="50.855527" lon="0.166658">
        <ele>20.621426</ele>
        <time>2024-07-14T08:10:10.000Z</time>
      </trkpt>
      <trkpt lat="50.855519" lon="0.166656">
        <ele>20.621433</ele>
        <time>2024-07-14T08:10:10.000Z</time>
      </trkpt>
      <trkpt lat="50.855518" lon="0.166677">
        <ele>20.60694</ele>
        <time>2024-07-14T08:10:10.000Z</time>
      </trkpt>
      <trkpt lat="50.85549" lon="0.166757">
        <ele>20.550768</ele>
        <time>2024-07-14T08:10:11.000Z</time>
      </trkpt>
      <trkpt lat="50.855497" lon="0.166788">
        <ele>20.526681</ele>
        <time>2024-07-14T08:10:11.000Z</time>
      </trkpt>
      <trkpt lat="50.855125" lon="0.167172">
        <ele>20.021793</ele>
        <time>2024-07-14T08:10:16.000Z</time>
      </trkpt>
      <trkpt lat="50.854866" lon="0.167452">
        <ele>19.65126</ele>
        <time>2024-07-14T08:10:19.000Z</time>
      </trkpt>
      <trkpt lat="50.854245" lon="0.168093">
        <ele>19.297905</ele>
        <time>2024-07-14T08:10:27.000Z</time>
      </trkpt>
      <trkpt lat="50.851673" lon="0.171023">
        <ele>19.029062</ele>
        <time>2024-07-14T08:11:02.000Z</time>
      </trkpt>
      <trkpt lat="50.851313" lon="0.171477">
        <ele>18.629273</ele>
        <time>2024-07-14T08:11:07.000Z</time>
      </trkpt>
      <trkpt lat="50.851221" lon="0.171724">
        <ele>18.476336</ele>
        <time>2024-07-14T08:11:09.000Z</time>
      </trkpt>
      <trkpt lat="50.851602" lon="0.171902">
        <ele>18.135025</ele>
        <time>2024-07-14T08:11:13.000Z</time>
      </trkpt>
      <trkpt lat="50.853361" lon="0.173099">
        <ele>16.479118</ele>
        <time>2024-07-14T08:11:34.000Z</time>
      </trkpt>
      <trkpt lat="50.853863" lon="0.173539">
        <ele>15.972467</ele>
        <time>2024-07-14T08:11:40.000Z</time>
      </trkpt>
      <trkpt lat="50.854088" lon="0.173887">
        <ele>16.125268</ele>
        <time>2024-07-14T08:11:43.000Z</time>
      </trkpt>
      <trkpt lat="50.854993" lon="0.175972">
        <ele>16.885383</ele>
        <time>2024-07-14T08:12:01.000Z</time>
      </trkpt>
      <trkpt lat="50.855283" lon="0.176711">
        <ele>16.907446</ele>
        <time>2024-07-14T08:12:07.000Z</time>
      </trkpt>
      <trkpt lat="50.855301" lon="0.176732">
        <ele>16.908542</ele>
        <time>2024-07-14T08:12:07.000Z</time>
      </trkpt>
      <trkpt lat="50.855297" lon="0.176745">
        <ele>16.908536</ele>
        <time>2024-07-14T08:12:07.000Z</time>
      </trkpt>
      <trkpt lat="50.85534" lon="0.17682">
        <ele>16.911037</ele>
        <time>2024-07-14T08:12:08.000Z</time>
      </trkpt>
      <trkpt lat="50.855519" lon="0.177299">
        <ele>16.92566</ele>
        <time>2024-07-14T08:12:12.000Z</time>
      </trkpt>
      <trkpt lat="50.855665" lon="0.177881">
        <ele>16.941876</ele>
        <time>2024-07-14T08:12:16.000Z</time>
      </trkpt>
      <trkpt lat="50.855687" lon="0.177942">
        <ele>16.943865</ele>
        <time>2024-07-14T08:12:16.000Z</time>
      </trkpt>
      <trkpt lat="50.856146" lon="0.180185">
        <ele>16.122927</ele>
        <time>2024-07-14T08:12:33.000Z</time>
      </trkpt>
      <trkpt lat="50.856362" lon="0.180794">
        <ele>15.819936</ele>
        <time>2024-07-14T08:12:38.000Z</time>
      </trkpt>
      <trkpt lat="50.856596" lon="0.181336">
        <ele>15.884145</ele>
        <time>2024-07-14T08:12:43.000Z</time>
      </trkpt>
      <trkpt lat="50.857492" lon="0.183084">
        <ele>16.586222</ele>
        <time>2024-07-14T08:12:59.000Z</time>
      </trkpt>
      <trkpt lat="50.857878" lon="0.183746">
        <ele>17.130735</ele>
        <time>2024-07-14T08:13:05.000Z</time>
      </trkpt>
      <trkpt lat="50.858158" lon="0.184394">
        <ele>17.651929</ele>
        <time>2024-07-14T08:13:11.000Z</time>
      </trkpt>
      <trkpt lat="50.8584" lon="0.185063">
        <ele>18.161581</ele>
        <time>2024-07-14T08:13:16.000Z</time>
      </trkpt>
      <trkpt lat="50.858499" lon="0.185392">
        <ele>18.405498</ele>
        <time>2024-07-14T08:13:19.000Z</time>
      </trkpt>
      <trkpt lat="50.858572" lon="0.185777">
        <ele>18.290691</ele>
        <time>2024-07-14T08:13:22.000Z</time>
      </trkpt>
      <trkpt lat="50.858726" lon="0.186224">
        <ele>17.79998</ele>
        <time>2024-07-14T08:13:26.000Z</time>
      </trkpt>
      <trkpt lat="50.859041" lon="0.1869">
        <ele>16.958301</ele>
        <time>2024-07-14T08:13:32.000Z</time>
      </trkpt>
      <trkpt lat="50.860015" lon="0.189042">
        <ele>14.679392</ele>
        <time>2024-07-14T08:13:51.000Z</time>
      </trkpt>
      <trkpt lat="50.860586" lon="0.190328">
        <ele>13.738483</ele>
        <time>2024-07-14T08:14:02.000Z</time>
      </trkpt>
      <trkpt lat="50.861179" lon="0.19144">
        <ele>16.585814</ele>
        <time>2024-07-14T08:14:12.000Z</time>
      </trkpt>
      <trkpt lat="50.8625" lon="0.193948">
        <ele>23.999959</ele>
        <time>2024-07-14T08:14:35.000Z</time>
      </trkpt>
      <trkpt lat="50.862753" lon="0.194535">
        <ele>25.741169</ele>
        <time>2024-07-14T08:14:40.000Z</time>
      </trkpt>
      <trkpt lat="50.862883" lon="0.194976">
        <ele>26.823365</ele>
        <time>2024-07-14T08:14:43.000Z</time>
      </trkpt>
      <trkpt lat="50.863263" lon="0.196235">
        <ele>29.657857</ele>
        <time>2024-07-14T08:14:53.000Z</time>
      </trkpt>
      <trkpt lat="50.863491" lon="0.196947">
        <ele>31.2518</ele>
        <time>2024-07-14T08:14:59.000Z</time>
      </trkpt>
      <trkpt lat="50.86378" lon="0.197753">
        <ele>31.859805</ele>
        <time>2024-07-14T08:15:06.000Z</time>
      </trkpt>
      <trkpt lat="50.864051" lon="0.198253">
        <ele>31.764371</ele>
        <time>2024-07-14T08:15:11.000Z</time>
      </trkpt>
      <trkpt lat="50.864747" lon="0.199178">
        <ele>31.562135</ele>
        <time>2024-07-14T08:15:21.000Z</time>
      </trkpt>
      <trkpt lat="50.864956" lon="0.199505">
        <ele>31.123903</ele>
        <time>2024-07-14T08:15:24.000Z</time>
      </trkpt>
      <trkpt lat="50.865267" lon="0.200178">
        <ele>29.940621</ele>
        <time>2024-07-14T08:15:30.000Z</time>
      </trkpt>
      <trkpt lat="50.865282" lon="0.200201">
        <ele>29.882017</ele>
        <time>2024-07-14T08:15:30.000Z</time>
      </trkpt>
      <trkpt lat="50.865288" lon="0.200214">
        <ele>29.882013</ele>
        <time>2024-07-14T08:15:30.000Z</time>
      </trkpt>
      <trkpt lat="50.865326" lon="0.200284">
        <ele>29.744345</ele>
        <time>2024-07-14T08:15:31.000Z</time>
      </trkpt>
      <trkpt lat="50.865501" lon="0.200662">
        <ele>29.078037</ele>
        <time>2024-07-14T08:15:34.000Z</time>
      </trkpt>
      <trkpt lat="50.865846" lon="0.201352">
        <ele>27.858685</ele>
        <time>2024-07-14T08:15:40.000Z</time>
      </trkpt>
      <trkpt lat="50.866458" lon="0.202663">
        <ele>26.032788</ele>
        <time>2024-07-14T08:15:51.000Z</time>
      </trkpt>
      <trkpt lat="50.866194" lon="0.202813">
        <ele>25.565419</ele>
        <time>2024-07-14T08:15:54.000Z</time>
      </trkpt>
      <trkpt lat="50.865821" lon="0.202951">
        <ele>24.939304</ele>
        <time>2024-07-14T08:15:58.000Z</time>
      </trkpt>
      <trkpt lat="50.865688" lon="0.203056">
        <ele>24.66839</ele>
        <time>2024-07-14T08:16:00.000Z</time>
      </trkpt>
      <trkpt lat="50.865564" lon="0.203139">
        <ele>24.447078</ele>
        <time>2024-07-14T08:16:01.000Z</time>
      </trkpt>
      <trkpt lat="50.865451" lon="0.203352">
        <ele>24.137374</ele>
        <time>2024-07-14T08:16:03.000Z</time>
      </trkpt>
      <trkpt lat="50.865334" lon="0.203829">
        <ele>23.568388</ele>
        <time>2024-07-14T08:16:07.000Z</time>
      </trkpt>
      <trkpt lat="50.865074" lon="0.204636">
        <ele>22.578528</ele>
        <time>2024-07-14T08:16:13.000Z</time>
      </trkpt>
      <trkpt lat="50.864819" lon="0.205457">
        <ele>21.552991</ele>
        <time>2024-07-14T08:16:19.000Z</time>
      </trkpt>
      <trkpt lat="50.864581" lon="0.206263">
        <ele>20.85323</ele>
        <time>2024-07-14T08:16:25.000Z</time>
      </trkpt>
      <trkpt lat="50.864408" lon="0.206991">
        <ele>20.302747</ele>
        <time>2024-07-14T08:16:30.000Z</time>
      </trkpt>
      <trkpt lat="50.864256" lon="0.207433">
        <ele>19.952763</ele>
        <time>2024-07-14T08:16:34.000Z</time>
      </trkpt>
      <trkpt lat="50.864248" lon="0.207471">
        <ele>19.923762</ele>
        <time>2024-07-14T08:16:34.000Z</time>
      </trkpt>
      <trkpt lat="50.86425" lon="0.207469">
        <ele>19.923759</ele>
        <time>2024-07-14T08:16:34.000Z</time>
      </trkpt>
      <trkpt lat="50.864233" lon="0.207497">
        <ele>19.911932</ele>
        <time>2024-07-14T08:16:34.000Z</time>
      </trkpt>
      <trkpt lat="50.864207" lon="0.207566">
        <ele>19.856507</ele>
        <time>2024-07-14T08:16:35.000Z</time>
      </trkpt>
      <trkpt lat="50.863855" lon="0.208502">
        <ele>18.871905</ele>
        <time>2024-07-14T08:16:43.000Z</time>
      </trkpt>
      <trkpt lat="50.863764" lon="0.208726">
        <ele>18.524916</ele>
        <time>2024-07-14T08:16:45.000Z</time>
      </trkpt>
      <trkpt lat="50.863721" lon="0.208826">
        <ele>18.356055</ele>
        <time>2024-07-14T08:16:46.000Z</time>
      </trkpt>
      <trkpt lat="50.863641" lon="0.208926">
        <ele>18.142356</ele>
        <time>2024-07-14T08:16:47.000Z</time>
      </trkpt>
      <trkpt lat="50.863444" lon="0.209095">
        <ele>17.684762</ele>
        <time>2024-07-14T08:16:49.000Z</time>
      </trkpt>
      <trkpt lat="50.862327" lon="0.209904">
        <ele>15.286243</ele>
        <time>2024-07-14T08:17:03.000Z</time>
      </trkpt>
      <trkpt lat="50.862134" lon="0.209877">
        <ele>15.055835</ele>
        <time>2024-07-14T08:17:05.000Z</time>
      </trkpt>
      <trkpt lat="50.861692" lon="0.209723">
        <ele>14.514794</ele>
        <time>2024-07-14T08:17:10.000Z</time>
      </trkpt>
      <trkpt lat="50.861176" lon="0.209635">
        <ele>13.897914</ele>
        <time>2024-07-14T08:17:16.000Z</time>
      </trkpt>
      <trkpt lat="50.860948" lon="0.209678">
        <ele>13.607808</ele>
        <time>2024-07-14T08:17:19.000Z</time>
      </trkpt>
      <trkpt lat="50.860653" lon="0.209853">
        <ele>13.459117</ele>
        <time>2024-07-14T08:17:23.000Z</time>
      </trkpt>
      <trkpt lat="50.860275" lon="0.210227">
        <ele>13.632438</ele>
        <time>2024-07-14T08:17:28.000Z</time>
      </trkpt>
      <trkpt lat="50.858815" lon="0.211578">
        <ele>14.12816</ele>
        <time>2024-07-14T08:17:47.000Z</time>
      </trkpt>
      <trkpt lat="50.858321" lon="0.212119">
        <ele>14.160797</ele>
        <time>2024-07-14T08:17:54.000Z</time>
      </trkpt>
      <trkpt lat="50.858091" lon="0.212443">
        <ele>14.177026</ele>
        <time>2024-07-14T08:17:57.000Z</time>
      </trkpt>
      <trkpt lat="50.857621" lon="0.21357">
        <ele>14.437863</ele>
        <time>2024-07-14T08:18:06.000Z</time>
      </trkpt>
      <trkpt lat="50.857266" lon="0.214375">
        <ele>14.781354</ele>
        <time>2024-07-14T08:18:13.000Z</time>
      </trkpt>
      <trkpt lat="50.857087" lon="0.214766">
        <ele>14.949437</ele>
        <time>2024-07-14T08:18:16.000Z</time>
      </trkpt>
      <trkpt lat="50.856912" lon="0.215273">
        <ele>15.152507</ele>
        <time>2024-07-14T08:18:20.000Z</time>
      </trkpt>
      <trkpt lat="50.856814" lon="0.215672">
        <ele>15.509891</ele>
        <time>2024-07-14T08:18:23.000Z</time>
      </trkpt>
      <trkpt lat="50.856754" lon="0.216474">
        <ele>16.306248</ele>
        <time>2024-07-14T08:18:29.000Z</time>
      </trkpt>
      <trkpt lat="50.856577" lon="0.21656">
        <ele>16.604724</ele>
        <time>2024-07-14T08:18:31.000Z</time>
      </trkpt>
      <trkpt lat="50.85645" lon="0.216502">
        <ele>16.810879</ele>
        <time>2024-07-14T08:18:32.000Z</time>
      </trkpt>
      <trkpt lat="50.85642" lon="0.216502">
        <ele>16.851663</ele>
        <time>2024-07-14T08:18:32.000Z</time>
      </trkpt>
      <trkpt lat="50.856412" lon="0.216502">
        <ele>16.853526</ele>
        <time>2024-07-14T08:18:32.000Z</time>
      </trkpt>
      <trkpt lat="50.856359" lon="0.216478">
        <ele>16.949864</ele>
        <time>2024-07-14T08:18:33.000Z</time>
      </trkpt>
      <trkpt lat="50.855511" lon="0.216113">
        <ele>18.496078</ele>
        <time>2024-07-14T08:18:43.000Z</time>
      </trkpt>
      <trkpt lat="50.854959" lon="0.215879">
        <ele>19.966934</ele>
        <time>2024-07-14T08:18:49.000Z</time>
      </trkpt>
      <trkpt lat="50.8543" lon="0.215601">
        <ele>21.690199</ele>
        <time>2024-07-14T08:18:57.000Z</time>
      </trkpt>
      <trkpt lat="50.853816" lon="0.215375">
        <ele>23.086916</ele>
        <time>2024-07-14T08:19:03.000Z</time>
      </trkpt>
      <trkpt lat="50.853461" lon="0.21524">
        <ele>24.305265</ele>
        <time>2024-07-14T08:19:07.000Z</time>
      </trkpt>
      <trkpt lat="50.853128" lon="0.214947">
        <ele>25.643896</ele>
        <time>2024-07-14T08:19:11.000Z</time>
      </trkpt>
      <trkpt lat="50.852753" lon="0.214513">
        <ele>27.171952</ele>
        <time>2024-07-14T08:19:16.000Z</time>
      </trkpt>
      <trkpt lat="50.852176" lon="0.213894">
        <ele>29.874389</ele>
        <time>2024-07-14T08:19:24.000Z</time>
      </trkpt>
      <trkpt lat="50.851347" lon="0.213337">
        <ele>34.082288</ele>
        <time>2024-07-14T08:19:34.000Z</time>
      </trkpt>
      <trkpt lat="50.851103" lon="0.213198">
        <ele>35.209828</ele>
        <time>2024-07-14T08:19:37.000Z</time>
      </trkpt>
      <trkpt lat="50.850757" lon="0.213088">
        <ele>36.902621</ele>
        <time>2024-07-14T08:19:41.000Z</time>
      </trkpt>
      <trkpt lat="50.850516" lon="0.212997">
        <ele>37.453396</ele>
        <time>2024-07-14T08:19:44.000Z</time>
      </trkpt>
      <trkpt lat="50.850263" lon="0.212777">
        <ele>38.032638</ele>
        <time>2024-07-14T08:19:47.000Z</time>
      </trkpt>
      <trkpt lat="50.850152" lon="0.212663">
        <ele>38.30603</ele>
        <time>2024-07-14T08:19:48.000Z</time>
      </trkpt>
      <trkpt lat="50.849902" lon="0.212513">
        <ele>38.853249</ele>
        <time>2024-07-14T08:19:51.000Z</time>
      </trkpt>
      <trkpt lat="50.849756" lon="0.212442">
        <ele>39.15374</ele>
        <time>2024-07-14T08:19:53.000Z</time>
      </trkpt>
      <trkpt lat="50.84958" lon="0.212394">
        <ele>39.527808</ele>
        <time>2024-07-14T08:19:55.000Z</time>
      </trkpt>
      <trkpt lat="50.849288" lon="0.212309">
        <ele>40.152788</ele>
        <time>2024-07-14T08:19:58.000Z</time>
      </trkpt>
      <trkpt lat="50.848904" lon="0.212117">
        <ele>40.580347</ele>
        <time>2024-07-14T08:20:02.000Z</time>
      </trkpt>
      <trkpt lat="50.848374" lon="0.211639">
        <ele>40.229387</ele>
        <time>2024-07-14T08:20:09.000Z</time>
      </trkpt>
      <trkpt lat="50.848112" lon="0.211346">
        <ele>40.046599</ele>
        <time>2024-07-14T08:20:13.000Z</time>
      </trkpt>
      <trkpt lat="50.847492" lon="0.210703">
        <ele>39.59029</ele>
        <time>2024-07-14T08:20:21.000Z</time>
      </trkpt>
      <trkpt lat="50.846982" lon="0.210146">
        <ele>37.427671</ele>
        <time>2024-07-14T08:20:28.000Z</time>
      </trkpt>
      <trkpt lat="50.846533" lon="0.209627">
        <ele>35.433836</ele>
        <time>2024-07-14T08:20:34.000Z</time>
      </trkpt>
      <trkpt lat="50.845791" lon="0.208779">
        <ele>33.054275</ele>
        <time>2024-07-14T08:20:44.000Z</time>
      </trkpt>
      <trkpt lat="50.845387" lon="0.208435">
        <ele>32.629419</ele>
        <time>2024-07-14T08:20:49.000Z</time>
      </trkpt>
      <trkpt lat="50.845291" lon="0.208376">
        <ele>32.552421</ele>
        <time>2024-07-14T08:20:50.000Z</time>
      </trkpt>
      <trkpt lat="50.844757" lon="0.208155">
        <ele>32.05326</ele>
        <time>2024-07-14T08:20:56.000Z</time>
      </trkpt>
      <trkpt lat="50.844458" lon="0.207998">
        <ele>31.76987</ele>
        <time>2024-07-14T08:21:00.000Z</time>
      </trkpt>
      <trkpt lat="50.843887" lon="0.207382">
        <ele>30.812927</ele>
        <time>2024-07-14T08:21:08.000Z</time>
      </trkpt>
      <trkpt lat="50.843412" lon="0.206803">
        <ele>29.94739</ele>
        <time>2024-07-14T08:21:15.000Z</time>
      </trkpt>
      <trkpt lat="50.843157" lon="0.206434">
        <ele>29.456869</ele>
        <time>2024-07-14T08:21:19.000Z</time>
      </trkpt>
      <trkpt lat="50.842947" lon="0.206046">
        <ele>28.889021</ele>
        <time>2024-07-14T08:21:23.000Z</time>
      </trkpt>
      <trkpt lat="50.842714" lon="0.205359">
        <ele>27.753382</ele>
        <time>2024-07-14T08:21:28.000Z</time>
      </trkpt>
      <trkpt lat="50.842325" lon="0.204359">
        <ele>26.035159</ele>
        <time>2024-07-14T08:21:36.000Z</time>
      </trkpt>
      <trkpt lat="50.842256" lon="0.204122">
        <ele>25.651938</ele>
        <time>2024-07-14T08:21:38.000Z</time>
      </trkpt>
      <trkpt lat="50.84224" lon="0.204086">
        <ele>25.591736</ele>
        <time>2024-07-14T08:21:38.000Z</time>
      </trkpt>
      <trkpt lat="50.842249" lon="0.204093">
        <ele>25.589409</ele>
        <time>2024-07-14T08:21:38.000Z</time>
      </trkpt>
      <trkpt lat="50.842212" lon="0.203994">
        <ele>25.445359</ele>
        <time>2024-07-14T08:21:39.000Z</time>
      </trkpt>
      <trkpt lat="50.841919" lon="0.203029">
        <ele>23.792766</ele>
        <time>2024-07-14T08:21:47.000Z</time>
      </trkpt>
      <trkpt lat="50.841805" lon="0.202782">
        <ele>23.31627</ele>
        <time>2024-07-14T08:21:49.000Z</time>
      </trkpt>
      <trkpt lat="50.841698" lon="0.202548">
        <ele>22.854671</ele>
        <time>2024-07-14T08:21:51.000Z</time>
      </trkpt>
      <trkpt lat="50.841444" lon="0.202155">
        <ele>21.989674</ele>
        <time>2024-07-14T08:21:55.000Z</time>
      </trkpt>
      <trkpt lat="50.841366" lon="0.202019">
        <ele>21.684052</ele>
        <time>2024-07-14T08:21:56.000Z</time>
      </trkpt>
      <trkpt lat="50.841326" lon="0.201784">
        <ele>21.327712</ele>
        <time>2024-07-14T08:21:58.000Z</time>
      </trkpt>
      <trkpt lat="50.841335" lon="0.201442">
        <ele>20.780687</ele>
        <time>2024-07-14T08:22:00.000Z</time>
      </trkpt>
      <trkpt lat="50.84143" lon="0.200965">
        <ele>20.105452</ele>
        <time>2024-07-14T08:22:04.000Z</time>
      </trkpt>
      <trkpt lat="50.842049" lon="0.198678">
        <ele>17.044426</ele>
        <time>2024-07-14T08:22:21.000Z</time>
      </trkpt>
      <trkpt lat="50.842314" lon="0.19777">
        <ele>16.484867</ele>
        <time>2024-07-14T08:22:28.000Z</time>
      </trkpt>
      <trkpt lat="50.842436" lon="0.197519">
        <ele>16.316405</ele>
        <time>2024-07-14T08:22:30.000Z</time>
      </trkpt>
      <trkpt lat="50.84252" lon="0.197435">
        <ele>16.230904</ele>
        <time>2024-07-14T08:22:31.000Z</time>
      </trkpt>
      <trkpt lat="50.842697" lon="0.197383">
        <ele>16.087649</ele>
        <time>2024-07-14T08:22:33.000Z</time>
      </trkpt>
      <trkpt lat="50.843558" lon="0.197068">
        <ele>15.405368</ele>
        <time>2024-07-14T08:22:43.000Z</time>
      </trkpt>
      <trkpt lat="50.844005" lon="0.196754">
        <ele>15.140217</ele>
        <time>2024-07-14T08:22:48.000Z</time>
      </trkpt>
      <trkpt lat="50.844912" lon="0.196061">
        <ele>14.590204</ele>
        <time>2024-07-14T08:22:59.000Z</time>
      </trkpt>
      <trkpt lat="50.845067" lon="0.195896">
        <ele>14.496677</ele>
        <time>2024-07-14T08:23:01.000Z</time>
      </trkpt>
      <trkpt lat="50.845388" lon="0.195645">
        <ele>14.314271</ele>
        <time>2024-07-14T08:23:05.000Z</time>
      </trkpt>
      <trkpt lat="50.845956" lon="0.195365">
        <ele>14.006712</ele>
        <time>2024-07-14T08:23:12.000Z</time>
      </trkpt>
      <trkpt lat="50.846048" lon="0.195259">
        <ele>13.950959</ele>
        <time>2024-07-14T08:23:13.000Z</time>
      </trkpt>
      <trkpt lat="50.846092" lon="0.195165">
        <ele>13.915711</ele>
        <time>2024-07-14T08:23:14.000Z</time>
      </trkpt>
      <trkpt lat="50.846095" lon="0.195085">
        <ele>13.88644</ele>
        <time>2024-07-14T08:23:15.000Z</time>
      </trkpt>
      <trkpt lat="50.846097" lon="0.195006">
        <ele>13.861345</ele>
        <time>2024-07-14T08:23:16.000Z</time>
      </trkpt>
      <trkpt lat="50.846074" lon="0.194964">
        <ele>13.848185</ele>
        <time>2024-07-14T08:23:16.000Z</time>
      </trkpt>
      <trkpt lat="50.846081" lon="0.19496">
        <ele>13.848189</ele>
        <time>2024-07-14T08:23:16.000Z</time>
      </trkpt>
      <trkpt lat="50.846075" lon="0.194888">
        <ele>13.823721</ele>
        <time>2024-07-14T08:23:17.000Z</time>
      </trkpt>
      <trkpt lat="50.846062" lon="0.194865">
        <ele>13.816988</ele>
        <time>2024-07-14T08:23:17.000Z</time>
      </trkpt>
      <trkpt lat="50.845979" lon="0.194463">
        <ele>13.681677</ele>
        <time>2024-07-14T08:23:20.000Z</time>
      </trkpt>
      <trkpt lat="50.845947" lon="0.194149">
        <ele>13.582348</ele>
        <time>2024-07-14T08:23:22.000Z</time>
      </trkpt>
      <trkpt lat="50.845873" lon="0.193517">
        <ele>13.39976</ele>
        <time>2024-07-14T08:23:27.000Z</time>
      </trkpt>
      <trkpt lat="50.84574" lon="0.192809">
        <ele>13.195575</ele>
        <time>2024-07-14T08:23:32.000Z</time>
      </trkpt>
      <trkpt lat="50.845657" lon="0.192394">
        <ele>13.072803</ele>
        <time>2024-07-14T08:23:35.000Z</time>
      </trkpt>
      <trkpt lat="50.845657" lon="0.192293">
        <ele>13.04448</ele>
        <time>2024-07-14T08:23:36.000Z</time>
      </trkpt>
      <trkpt lat="50.845693" lon="0.191995">
        <ele>12.957641</ele>
        <time>2024-07-14T08:23:38.000Z</time>
      </trkpt>
      <trkpt lat="50.844674" lon="0.190934">
        <ele>12.386519</ele>
        <time>2024-07-14T08:23:52.000Z</time>
      </trkpt>
      <trkpt lat="50.844231" lon="0.190488">
        <ele>12.13637</ele>
        <time>2024-07-14T08:23:58.000Z</time>
      </trkpt>
      <trkpt lat="50.843917" lon="0.190135">
        <ele>11.969115</ele>
        <time>2024-07-14T08:24:02.000Z</time>
      </trkpt>
      <trkpt lat="50.843019" lon="0.189393">
        <ele>12.909978</ele>
        <time>2024-07-14T08:24:13.000Z</time>
      </trkpt>
      <trkpt lat="50.842757" lon="0.189141">
        <ele>13.188401</ele>
        <time>2024-07-14T08:24:16.000Z</time>
      </trkpt>
      <trkpt lat="50.842478" lon="0.188814">
        <ele>13.522209</ele>
        <time>2024-07-14T08:24:20.000Z</time>
      </trkpt>
      <trkpt lat="50.842259" lon="0.188564">
        <ele>13.78398</ele>
        <time>2024-07-14T08:24:23.000Z</time>
      </trkpt>
      <trkpt lat="50.841976" lon="0.188321">
        <ele>14.102702</ele>
        <time>2024-07-14T08:24:27.000Z</time>
      </trkpt>
      <trkpt lat="50.841816" lon="0.188118">
        <ele>14.310418</ele>
        <time>2024-07-14T08:24:29.000Z</time>
      </trkpt>
      <trkpt lat="50.841618" lon="0.187761">
        <ele>14.625794</ele>
        <time>2024-07-14T08:24:32.000Z</time>
      </trkpt>
      <trkpt lat="50.841491" lon="0.187565">
        <ele>14.791673</ele>
        <time>2024-07-14T08:24:34.000Z</time>
      </trkpt>
      <trkpt lat="50.841269" lon="0.187346">
        <ele>15.068877</ele>
        <time>2024-07-14T08:24:37.000Z</time>
      </trkpt>
      <trkpt lat="50.840755" lon="0.186924">
        <ele>15.614412</ele>
        <time>2024-07-14T08:24:43.000Z</time>
      </trkpt>
      <trkpt lat="50.839495" lon="0.185933">
        <ele>16.773476</ele>
        <time>2024-07-14T08:24:59.000Z</time>
      </trkpt>
      <trkpt lat="50.839389" lon="0.185819">
        <ele>16.883328</ele>
        <time>2024-07-14T08:25:00.000Z</time>
      </trkpt>
      <trkpt lat="50.839382" lon="0.185818">
        <ele>16.883342</ele>
        <time>2024-07-14T08:25:00.000Z</time>
      </trkpt>
      <trkpt lat="50.839373" lon="0.185787">
        <ele>16.904818</ele>
        <time>2024-07-14T08:25:00.000Z</time>
      </trkpt>
      <trkpt lat="50.839372" lon="0.185773">
        <ele>16.904828</ele>
        <time>2024-07-14T08:25:00.000Z</time>
      </trkpt>
      <trkpt lat="50.839323" lon="0.185709">
        <ele>16.897569</ele>
        <time>2024-07-14T08:25:01.000Z</time>
      </trkpt>
      <trkpt lat="50.839329" lon="0.185706">
        <ele>16.896371</ele>
        <time>2024-07-14T08:25:01.000Z</time>
      </trkpt>
      <trkpt lat="50.83935" lon="0.185617">
        <ele>16.784042</ele>
        <time>2024-07-14T08:25:02.000Z</time>
      </trkpt>
      <trkpt lat="50.839385" lon="0.185465">
        <ele>16.585566</ele>
        <time>2024-07-14T08:25:03.000Z</time>
      </trkpt>
      <trkpt lat="50.839598" lon="0.184811">
        <ele>15.727918</ele>
        <time>2024-07-14T08:25:08.000Z</time>
      </trkpt>
      <trkpt lat="50.839736" lon="0.184455">
        <ele>15.215036</ele>
        <time>2024-07-14T08:25:11.000Z</time>
      </trkpt>
      <trkpt lat="50.839888" lon="0.184104">
        <ele>14.702162</ele>
        <time>2024-07-14T08:25:14.000Z</time>
      </trkpt>
      <trkpt lat="50.84021" lon="0.183455">
        <ele>13.7221</ele>
        <time>2024-07-14T08:25:20.000Z</time>
      </trkpt>
      <trkpt lat="50.840666" lon="0.182437">
        <ele>11.635561</ele>
        <time>2024-07-14T08:25:29.000Z</time>
      </trkpt>
      <trkpt lat="50.840946" lon="0.181767">
        <ele>10.223643</ele>
        <time>2024-07-14T08:25:35.000Z</time>
      </trkpt>
      <trkpt lat="50.841087" lon="0.181379">
        <ele>9.456639</ele>
        <time>2024-07-14T08:25:38.000Z</time>
      </trkpt>
      <trkpt lat="50.841156" lon="0.181089">
        <ele>8.93286</ele>
        <time>2024-07-14T08:25:40.000Z</time>
      </trkpt>
      <trkpt lat="50.841156" lon="0.180899">
        <ele>8.592674</ele>
        <time>2024-07-14T08:25:41.000Z</time>
      </trkpt>
      <trkpt lat="50.841141" lon="0.180555">
        <ele>8.408377</ele>
        <time>2024-07-14T08:25:43.000Z</time>
      </trkpt>
      <trkpt lat="50.841092" lon="0.180273">
        <ele>8.248278</ele>
        <time>2024-07-14T08:25:45.000Z</time>
      </trkpt>
      <trkpt lat="50.840936" lon="0.179939">
        <ele>8.023711</ele>
        <time>2024-07-14T08:25:48.000Z</time>
      </trkpt>
      <trkpt lat="50.840543" lon="0.179447">
        <ele>7.593377</ele>
        <time>2024-07-14T08:25:54.000Z</time>
      </trkpt>
      <trkpt lat="50.840149" lon="0.179017">
        <ele>7.175788</ele>
        <time>2024-07-14T08:25:59.000Z</time>
      </trkpt>
      <trkpt lat="50.839874" lon="0.178683">
        <ele>7.237036</ele>
        <time>2024-07-14T08:26:03.000Z</time>
      </trkpt>
      <trkpt lat="50.839596" lon="0.178249">
        <ele>7.620831</ele>
        <time>2024-07-14T08:26:07.000Z</time>
      </trkpt>
      <trkpt lat="50.839461" lon="0.177896">
        <ele>7.875387</ele>
        <time>2024-07-14T08:26:10.000Z</time>
      </trkpt>
      <trkpt lat="50.839295" lon="0.177423">
        <ele>8.203459</ele>
        <time>2024-07-14T08:26:14.000Z</time>
      </trkpt>
      <trkpt lat="50.839095" lon="0.176658">
        <ele>8.715017</ele>
        <time>2024-07-14T08:26:20.000Z</time>
      </trkpt>
      <trkpt lat="50.838982" lon="0.176009">
        <ele>9.255176</ele>
        <time>2024-07-14T08:26:25.000Z</time>
      </trkpt>
      <trkpt lat="50.838946" lon="0.175571">
        <ele>9.623656</ele>
        <time>2024-07-14T08:26:28.000Z</time>
      </trkpt>
      <trkpt lat="50.838909" lon="0.174617">
        <ele>10.43927</ele>
        <time>2024-07-14T08:26:35.000Z</time>
      </trkpt>
      <trkpt lat="50.838908" lon="0.174299">
        <ele>10.719338</ele>
        <time>2024-07-14T08:26:37.000Z</time>
      </trkpt>
      <trkpt lat="50.83894" lon="0.174009">
        <ele>10.968461</ele>
        <time>2024-07-14T08:26:39.000Z</time>
      </trkpt>
      <trkpt lat="50.839228" lon="0.172514">
        <ele>11.887505</ele>
        <time>2024-07-14T08:26:50.000Z</time>
      </trkpt>
      <trkpt lat="50.839293" lon="0.17212">
        <ele>12.106677</ele>
        <time>2024-07-14T08:26:53.000Z</time>
      </trkpt>
      <trkpt lat="50.839325" lon="0.171661">
        <ele>12.347881</ele>
        <time>2024-07-14T08:26:56.000Z</time>
      </trkpt>
      <trkpt lat="50.839296" lon="0.171286">
        <ele>12.552029</ele>
        <time>2024-07-14T08:26:59.000Z</time>
      </trkpt>
      <trkpt lat="50.839218" lon="0.17096">
        <ele>12.73787</ele>
        <time>2024-07-14T08:27:01.000Z</time>
      </trkpt>
      <trkpt lat="50.839028" lon="0.170463">
        <ele>13.289929</ele>
        <time>2024-07-14T08:27:05.000Z</time>
      </trkpt>
      <trkpt lat="50.838814" lon="0.170118">
        <ele>13.743598</ele>
        <time>2024-07-14T08:27:08.000Z</time>
      </trkpt>
      <trkpt lat="50.838432" lon="0.169647">
        <ele>14.466069</ele>
        <time>2024-07-14T08:27:13.000Z</time>
      </trkpt>
      <trkpt lat="50.838329" lon="0.169446">
        <ele>14.720331</ele>
        <time>2024-07-14T08:27:15.000Z</time>
      </trkpt>
      <trkpt lat="50.838215" lon="0.169126">
        <ele>15.06667</ele>
        <time>2024-07-14T08:27:18.000Z</time>
      </trkpt>
      <trkpt lat="50.838047" lon="0.168405">
        <ele>15.833321</ele>
        <time>2024-07-14T08:27:23.000Z</time>
      </trkpt>
      <trkpt lat="50.837812" lon="0.167847">
        <ele>16.570036</ele>
        <time>2024-07-14T08:27:28.000Z</time>
      </trkpt>
      <trkpt lat="50.837637" lon="0.167342">
        <ele>17.180676</ele>
        <time>2024-07-14T08:27:32.000Z</time>
      </trkpt>
      <trkpt lat="50.837574" lon="0.167106">
        <ele>17.453243</ele>
        <time>2024-07-14T08:27:34.000Z</time>
      </trkpt>
      <trkpt lat="50.837567" lon="0.167075">
        <ele>17.497523</ele>
        <time>2024-07-14T08:27:34.000Z</time>
      </trkpt>
      <trkpt lat="50.837558" lon="0.167073">
        <ele>17.497525</ele>
        <time>2024-07-14T08:27:34.000Z</time>
      </trkpt>
      <trkpt lat="50.837534" lon="0.166986">
        <ele>17.602582</ele>
        <time>2024-07-14T08:27:35.000Z</time>
      </trkpt>
      <trkpt lat="50.837451" lon="0.166679">
        <ele>17.963679</ele>
        <time>2024-07-14T08:27:37.000Z</time>
      </trkpt>
      <trkpt lat="50.837278" lon="0.165669">
        <ele>18.477048</ele>
        <time>2024-07-14T08:27:44.000Z</time>
      </trkpt>
      <trkpt lat="50.837285" lon="0.165595">
        <ele>18.475122</ele>
        <time>2024-07-14T08:27:45.000Z</time>
      </trkpt>
      <trkpt lat="50.837253" lon="0.165332">
        <ele>18.466308</ele>
        <time>2024-07-14T08:27:47.000Z</time>
      </trkpt>
      <trkpt lat="50.836252" lon="0.165114">
        <ele>18.414113</ele>
        <time>2024-07-14T08:27:58.000Z</time>
      </trkpt>
      <trkpt lat="50.835502" lon="0.16496">
        <ele>16.9</ele>
        <time>2024-07-14T08:28:06.000Z</time>
      </trkpt>
      <trkpt lat="50.834253" lon="0.164687">
        <ele>13.369109</ele>
        <time>2024-07-14T08:28:20.000Z</time>
      </trkpt>
      <trkpt lat="50.833878" lon="0.164527">
        <ele>13.007252</ele>
        <time>2024-07-14T08:28:24.000Z</time>
      </trkpt>
      <trkpt lat="50.833802" lon="0.164483">
        <ele>12.935071</ele>
        <time>2024-07-14T08:28:25.000Z</time>
      </trkpt>
      <trkpt lat="50.833776" lon="0.16447">
        <ele>12.911436</ele>
        <time>2024-07-14T08:28:25.000Z</time>
      </trkpt>
      <trkpt lat="50.833774" lon="0.16447">
        <ele>12.911436</ele>
        <time>2024-07-14T08:28:25.000Z</time>
      </trkpt>
      <trkpt lat="50.833717" lon="0.164446">
        <ele>12.859022</ele>
        <time>2024-07-14T08:28:26.000Z</time>
      </trkpt>
      <trkpt lat="50.833712" lon="0.164438">
        <ele>12.853851</ele>
        <time>2024-07-14T08:28:26.000Z</time>
      </trkpt>
      <trkpt lat="50.833305" lon="0.164114">
        <ele>12.434033</ele>
        <time>2024-07-14T08:28:31.000Z</time>
      </trkpt>
      <trkpt lat="50.832896" lon="0.163747">
        <ele>12.000834</ele>
        <time>2024-07-14T08:28:36.000Z</time>
      </trkpt>
      <trkpt lat="50.832286" lon="0.163239">
        <ele>11.97627</ele>
        <time>2024-07-14T08:28:44.000Z</time>
      </trkpt>
      <trkpt lat="50.831777" lon="0.162832">
        <ele>12.388976</ele>
        <time>2024-07-14T08:28:50.000Z</time>
      </trkpt>
      <trkpt lat="50.831088" lon="0.162381">
        <ele>12.921693</ele>
        <time>2024-07-14T08:28:58.000Z</time>
      </trkpt>
      <trkpt lat="50.830926" lon="0.162276">
        <ele>13.045075</ele>
        <time>2024-07-14T08:29:00.000Z</time>
      </trkpt>
      <trkpt lat="50.829698" lon="0.161719">
        <ele>13.963125</ele>
        <time>2024-07-14T08:29:14.000Z</time>
      </trkpt>
      <trkpt lat="50.829137" lon="0.16145">
        <ele>14.177038</ele>
        <time>2024-07-14T08:29:21.000Z</time>
      </trkpt>
      <trkpt lat="50.828917" lon="0.161396">
        <ele>14.004871</ele>
        <time>2024-07-14T08:29:23.000Z</time>
      </trkpt>
      <trkpt lat="50.828836" lon="0.161384">
        <ele>13.93227</ele>
        <time>2024-07-14T08:29:24.000Z</time>
      </trkpt>
      <trkpt lat="50.82867" lon="0.161449">
        <ele>13.799606</ele>
        <time>2024-07-14T08:29:26.000Z</time>
      </trkpt>
      <trkpt lat="50.828505" lon="0.161584">
        <ele>13.647296</ele>
        <time>2024-07-14T08:29:28.000Z</time>
      </trkpt>
      <trkpt lat="50.828105" lon="0.162041">
        <ele>13.251854</ele>
        <time>2024-07-14T08:29:33.000Z</time>
      </trkpt>
      <trkpt lat="50.827985" lon="0.162187">
        <ele>13.134535</ele>
        <time>2024-07-14T08:29:35.000Z</time>
      </trkpt>
      <trkpt lat="50.827832" lon="0.162296">
        <ele>13.001173</ele>
        <time>2024-07-14T08:29:37.000Z</time>
      </trkpt>
      <trkpt lat="50.827645" lon="0.162422">
        <ele>12.84136</ele>
        <time>2024-07-14T08:29:39.000Z</time>
      </trkpt>
      <trkpt lat="50.827485" lon="0.162509">
        <ele>12.913149</ele>
        <time>2024-07-14T08:29:41.000Z</time>
      </trkpt>
      <trkpt lat="50.827203" lon="0.162617">
        <ele>13.029937</ele>
        <time>2024-07-14T08:29:44.000Z</time>
      </trkpt>
      <trkpt lat="50.827041" lon="0.162655">
        <ele>13.091983</ele>
        <time>2024-07-14T08:29:46.000Z</time>
      </trkpt>
      <trkpt lat="50.826824" lon="0.162651">
        <ele>13.18104</ele>
        <time>2024-07-14T08:29:48.000Z</time>
      </trkpt>
      <trkpt lat="50.826659" lon="0.16267">
        <ele>13.253936</ele>
        <time>2024-07-14T08:29:50.000Z</time>
      </trkpt>
      <trkpt lat="50.826639" lon="0.162676">
        <ele>13.258738</ele>
        <time>2024-07-14T08:29:50.000Z</time>
      </trkpt>
      <trkpt lat="50.826636" lon="0.162711">
        <ele>13.266408</ele>
        <time>2024-07-14T08:29:50.000Z</time>
      </trkpt>
      <trkpt lat="50.826613" lon="0.162745">
        <ele>13.277559</ele>
        <time>2024-07-14T08:29:50.000Z</time>
      </trkpt>
      <trkpt lat="50.826591" lon="0.162796">
        <ele>13.295189</ele>
        <time>2024-07-14T08:29:50.000Z</time>
      </trkpt>
      <trkpt lat="50.826551" lon="0.162791">
        <ele>13.311573</ele>
        <time>2024-07-14T08:29:50.000Z</time>
      </trkpt>
      <trkpt lat="50.826506" lon="0.162796">
        <ele>13.331973</ele>
        <time>2024-07-14T08:29:51.000Z</time>
      </trkpt>
      <trkpt lat="50.826432" lon="0.1627">
        <ele>13.365428</ele>
        <time>2024-07-14T08:29:52.000Z</time>
      </trkpt>
      <trkpt lat="50.826436" lon="0.16263">
        <ele>13.383783</ele>
        <time>2024-07-14T08:29:52.000Z</time>
      </trkpt>
      <trkpt lat="50.826223" lon="0.16262">
        <ele>13.466832</ele>
        <time>2024-07-14T08:29:54.000Z</time>
      </trkpt>
      <trkpt lat="50.826194" lon="0.162617">
        <ele>13.477378</ele>
        <time>2024-07-14T08:29:54.000Z</time>
      </trkpt>
      <trkpt lat="50.826197" lon="0.162607">
        <ele>13.477769</ele>
        <time>2024-07-14T08:29:54.000Z</time>
      </trkpt>
      <trkpt lat="50.826136" lon="0.162609">
        <ele>13.502492</ele>
        <time>2024-07-14T08:29:55.000Z</time>
      </trkpt>
      <trkpt lat="50.825208" lon="0.16255">
        <ele>13.588136</ele>
        <time>2024-07-14T08:30:05.000Z</time>
      </trkpt>
      <trkpt lat="50.824466" lon="0.162552">
        <ele>13.608462</ele>
        <time>2024-07-14T08:30:13.000Z</time>
      </trkpt>
      <trkpt lat="50.824199" lon="0.162522">
        <ele>13.616186</ele>
        <time>2024-07-14T08:30:16.000Z</time>
      </trkpt>
      <trkpt lat="50.823596" lon="0.162369">
        <ele>12.948965</ele>
        <time>2024-07-14T08:30:23.000Z</time>
      </trkpt>
      <trkpt lat="50.823031" lon="0.16219">
        <ele>12.289685</ele>
        <time>2024-07-14T08:30:29.000Z</time>
      </trkpt>
      <trkpt lat="50.822784" lon="0.162166">
        <ele>12.00574</ele>
        <time>2024-07-14T08:30:32.000Z</time>
      </trkpt>
      <trkpt lat="50.822482" lon="0.162204">
        <ele>11.676105</ele>
        <time>2024-07-14T08:30:35.000Z</time>
      </trkpt>
      <trkpt lat="50.822219" lon="0.162289">
        <ele>11.301677</ele>
        <time>2024-07-14T08:30:38.000Z</time>
      </trkpt>
      <trkpt lat="50.821608" lon="0.162558">
        <ele>10.367426</ele>
        <time>2024-07-14T08:30:45.000Z</time>
      </trkpt>
      <trkpt lat="50.821131" lon="0.162717">
        <ele>9.647741</ele>
        <time>2024-07-14T08:30:50.000Z</time>
      </trkpt>
      <trkpt lat="50.820636" lon="0.162756">
        <ele>8.933578</ele>
        <time>2024-07-14T08:30:56.000Z</time>
      </trkpt>
      <trkpt lat="50.819435" lon="0.162781">
        <ele>10.022706</ele>
        <time>2024-07-14T08:31:09.000Z</time>
      </trkpt>
      <trkpt lat="50.819092" lon="0.162771">
        <ele>10.31977</ele>
        <time>2024-07-14T08:31:13.000Z</time>
      </trkpt>
      <trkpt lat="50.818858" lon="0.162736">
        <ele>10.536985</ele>
        <time>2024-07-14T08:31:16.000Z</time>
      </trkpt>
      <trkpt lat="50.81846" lon="0.162597">
        <ele>10.277598</ele>
        <time>2024-07-14T08:31:21.000Z</time>
      </trkpt>
      <trkpt lat="50.817973" lon="0.162391">
        <ele>9.935693</ele>
        <time>2024-07-14T08:31:27.000Z</time>
      </trkpt>
      <trkpt lat="50.817635" lon="0.162223">
        <ele>9.690105</ele>
        <time>2024-07-14T08:31:31.000Z</time>
      </trkpt>
      <trkpt lat="50.817111" lon="0.161891">
        <ele>9.288783</ele>
        <time>2024-07-14T08:31:37.000Z</time>
      </trkpt>
      <trkpt lat="50.816698" lon="0.161619">
        <ele>8.427238</ele>
        <time>2024-07-14T08:31:42.000Z</time>
      </trkpt>
      <trkpt lat="50.816357" lon="0.161421">
        <ele>7.727751</ele>
        <time>2024-07-14T08:31:46.000Z</time>
      </trkpt>
      <trkpt lat="50.816125" lon="0.161366">
        <ele>7.287092</ele>
        <time>2024-07-14T08:31:49.000Z</time>
      </trkpt>
      <trkpt lat="50.815212" lon="0.161352">
        <ele>5.768908</ele>
        <time>2024-07-14T08:31:59.000Z</time>
      </trkpt>
      <trkpt lat="50.814731" lon="0.161284">
        <ele>5.363923</ele>
        <time>2024-07-14T08:32:04.000Z</time>
      </trkpt>
      <trkpt lat="50.814261" lon="0.161112">
        <ele>4.968178</ele>
        <time>2024-07-14T08:32:09.000Z</time>
      </trkpt>
      <trkpt lat="50.813831" lon="0.160881">
        <ele>4.600606</ele>
        <time>2024-07-14T08:32:14.000Z</time>
      </trkpt>
      <trkpt lat="50.813579" lon="0.160714">
        <ele>4.386781</ele>
        <time>2024-07-14T08:32:17.000Z</time>
      </trkpt>
      <trkpt lat="50.813255" lon="0.160568">
        <ele>4.219134</ele>
        <time>2024-07-14T08:32:21.000Z</time>
      </trkpt>
      <trkpt lat="50.813005" lon="0.160478">
        <ele>4.086531</ele>
        <time>2024-07-14T08:32:24.000Z</time>
      </trkpt>
      <trkpt lat="50.812524" lon="0.160327">
        <ele>3.834108</ele>
        <time>2024-07-14T08:32:29.000Z</time>
      </trkpt>
      <trkpt lat="50.81248" lon="0.160385">
        <ele>3.801666</ele>
        <time>2024-07-14T08:32:30.000Z</time>
      </trkpt>
      <trkpt lat="50.812354" lon="0.160539">
        <ele>3.720342</ele>
        <time>2024-07-14T08:32:32.000Z</time>
      </trkpt>
      <trkpt lat="50.812105" lon="0.161273">
        <ele>3.566204</ele>
        <time>2024-07-14T08:32:38.000Z</time>
      </trkpt>
      <trkpt lat="50.812094" lon="0.16132">
        <ele>3.582747</ele>
        <time>2024-07-14T08:32:38.000Z</time>
      </trkpt>
      <trkpt lat="50.812103" lon="0.161312">
        <ele>3.58339</ele>
        <time>2024-07-14T08:32:38.000Z</time>
      </trkpt>
      <trkpt lat="50.812063" lon="0.161399">
        <ele>3.622629</ele>
        <time>2024-07-14T08:32:39.000Z</time>
      </trkpt>
      <trkpt lat="50.811674" lon="0.162664">
        <ele>4.195692</ele>
        <time>2024-07-14T08:32:49.000Z</time>
      </trkpt>
      <trkpt lat="50.811649" lon="0.162709">
        <ele>4.216334</ele>
        <time>2024-07-14T08:32:49.000Z</time>
      </trkpt>
      <trkpt lat="50.811516" lon="0.163063">
        <ele>4.380645</ele>
        <time>2024-07-14T08:32:52.000Z</time>
      </trkpt>
      <trkpt lat="50.811393" lon="0.163356">
        <ele>4.524557</ele>
        <time>2024-07-14T08:32:54.000Z</time>
      </trkpt>
      <trkpt lat="50.811181" lon="0.163777">
        <ele>4.754679</ele>
        <time>2024-07-14T08:32:58.000Z</time>
      </trkpt>
      <trkpt lat="50.811128" lon="0.163982">
        <ele>4.865886</ele>
        <time>2024-07-14T08:33:00.000Z</time>
      </trkpt>
      <trkpt lat="50.810953" lon="0.164025">
        <ele>4.993286</ele>
        <time>2024-07-14T08:33:02.000Z</time>
      </trkpt>
      <trkpt lat="50.810891" lon="0.164038">
        <ele>5.030637</ele>
        <time>2024-07-14T08:33:03.000Z</time>
      </trkpt>
      <trkpt lat="50.810632" lon="0.163733">
        <ele>5.269154</ele>
        <time>2024-07-14T08:33:07.000Z</time>
      </trkpt>
      <trkpt lat="50.810374" lon="0.163333">
        <ele>5.537945</ele>
        <time>2024-07-14T08:33:11.000Z</time>
      </trkpt>
      <trkpt lat="50.810207" lon="0.163137">
        <ele>5.703695</ele>
        <time>2024-07-14T08:33:13.000Z</time>
      </trkpt>
      <trkpt lat="50.809485" lon="0.162416">
        <ele>6.679019</ele>
        <time>2024-07-14T08:33:22.000Z</time>
      </trkpt>
      <trkpt lat="50.809201" lon="0.162152">
        <ele>7.186045</ele>
        <time>2024-07-14T08:33:26.000Z</time>
      </trkpt>
      <trkpt lat="50.808896" lon="0.161866">
        <ele>7.723945</ele>
        <time>2024-07-14T08:33:30.000Z</time>
      </trkpt>
      <trkpt lat="50.808417" lon="0.161506">
        <ele>8.510794</ele>
        <time>2024-07-14T08:33:36.000Z</time>
      </trkpt>
      <trkpt lat="50.808034" lon="0.161275">
        <ele>8.803486</ele>
        <time>2024-07-14T08:33:41.000Z</time>
      </trkpt>
      <trkpt lat="50.807728" lon="0.161178">
        <ele>8.928139</ele>
        <time>2024-07-14T08:33:44.000Z</time>
      </trkpt>
      <trkpt lat="50.807525" lon="0.161128">
        <ele>9.005203</ele>
        <time>2024-07-14T08:33:46.000Z</time>
      </trkpt>
      <trkpt lat="50.807334" lon="0.161079">
        <ele>9.074771</ele>
        <time>2024-07-14T08:33:48.000Z</time>
      </trkpt>
      <trkpt lat="50.807246" lon="0.161083">
        <ele>9.113142</ele>
        <time>2024-07-14T08:33:49.000Z</time>
      </trkpt>
      <trkpt lat="50.807083" lon="0.161151">
        <ele>9.176328</ele>
        <time>2024-07-14T08:33:51.000Z</time>
      </trkpt>
      <trkpt lat="50.806983" lon="0.161215">
        <ele>9.217044</ele>
        <time>2024-07-14T08:33:52.000Z</time>
      </trkpt>
      <trkpt lat="50.806833" lon="0.161246">
        <ele>9.270544</ele>
        <time>2024-07-14T08:33:54.000Z</time>
      </trkpt>
      <trkpt lat="50.806736" lon="0.161252">
        <ele>9.30869</ele>
        <time>2024-07-14T08:33:55.000Z</time>
      </trkpt>
      <trkpt lat="50.806245" lon="0.161199">
        <ele>9.216817</ele>
        <time>2024-07-14T08:34:00.000Z</time>
      </trkpt>
      <trkpt lat="50.805922" lon="0.161183">
        <ele>9.040126</ele>
        <time>2024-07-14T08:34:04.000Z</time>
      </trkpt>
      <trkpt lat="50.805519" lon="0.161281">
        <ele>8.818001</ele>
        <time>2024-07-14T08:34:09.000Z</time>
      </trkpt>
      <trkpt lat="50.805192" lon="0.161396">
        <ele>8.643348</ele>
        <time>2024-07-14T08:34:13.000Z</time>
      </trkpt>
      <trkpt lat="50.804922" lon="0.161541">
        <ele>8.488974</ele>
        <time>2024-07-14T08:34:16.000Z</time>
      </trkpt>
      <trkpt lat="50.804674" lon="0.161746">
        <ele>8.60724</ele>
        <time>2024-07-14T08:34:19.000Z</time>
      </trkpt>
      <trkpt lat="50.804549" lon="0.1619">
        <ele>8.827285</ele>
        <time>2024-07-14T08:34:21.000Z</time>
      </trkpt>
      <trkpt lat="50.803963" lon="0.162854">
        <ele>9.939489</ele>
        <time>2024-07-14T08:34:30.000Z</time>
      </trkpt>
      <trkpt lat="50.803752" lon="0.163276">
        <ele>10.400119</ele>
        <time>2024-07-14T08:34:34.000Z</time>
      </trkpt>
      <trkpt lat="50.803683" lon="0.163441">
        <ele>10.564424</ele>
        <time>2024-07-14T08:34:35.000Z</time>
      </trkpt>
      <trkpt lat="50.803389" lon="0.164016">
        <ele>11.742271</ele>
        <time>2024-07-14T08:34:40.000Z</time>
      </trkpt>
      <trkpt lat="50.802951" lon="0.163319">
        <ele>13.777352</ele>
        <time>2024-07-14T08:34:47.000Z</time>
      </trkpt>
      <trkpt lat="50.802926" lon="0.163279">
        <ele>13.889379</ele>
        <time>2024-07-14T08:34:47.000Z</time>
      </trkpt>
      <trkpt lat="50.802903" lon="0.16326">
        <ele>13.976249</ele>
        <time>2024-07-14T08:34:47.000Z</time>
      </trkpt>
      <trkpt lat="50.802915" lon="0.163252">
        <ele>13.979572</ele>
        <time>2024-07-14T08:34:47.000Z</time>
      </trkpt>
      <trkpt lat="50.802866" lon="0.163176">
        <ele>14.183805</ele>
        <time>2024-07-14T08:34:48.000Z</time>
      </trkpt>
      <trkpt lat="50.802436" lon="0.162465">
        <ele>16.239849</ele>
        <time>2024-07-14T08:34:55.000Z</time>
      </trkpt>
      <trkpt lat="50.802192" lon="0.162108">
        <ele>17.203055</ele>
        <time>2024-07-14T08:34:59.000Z</time>
      </trkpt>
      <trkpt lat="50.801933" lon="0.161859">
        <ele>17.969133</ele>
        <time>2024-07-14T08:35:02.000Z</time>
      </trkpt>
      <trkpt lat="50.801519" lon="0.161532">
        <ele>19.15272</ele>
        <time>2024-07-14T08:35:07.000Z</time>
      </trkpt>
      <trkpt lat="50.801279" lon="0.161421">
        <ele>19.751191</ele>
        <time>2024-07-14T08:35:10.000Z</time>
      </trkpt>
      <trkpt lat="50.801097" lon="0.161383">
        <ele>20.226776</ele>
        <time>2024-07-14T08:35:12.000Z</time>
      </trkpt>
      <trkpt lat="50.800698" lon="0.161421">
        <ele>21.199329</ele>
        <time>2024-07-14T08:35:16.000Z</time>
      </trkpt>
      <trkpt lat="50.800531" lon="0.161405">
        <ele>20.867478</ele>
        <time>2024-07-14T08:35:18.000Z</time>
      </trkpt>
      <trkpt lat="50.800358" lon="0.161352">
        <ele>20.289269</ele>
        <time>2024-07-14T08:35:20.000Z</time>
      </trkpt>
      <trkpt lat="50.800206" lon="0.161263">
        <ele>19.758385</ele>
        <time>2024-07-14T08:35:22.000Z</time>
      </trkpt>
      <trkpt lat="50.800022" lon="0.161129">
        <ele>19.152043</ele>
        <time>2024-07-14T08:35:24.000Z</time>
      </trkpt>
      <trkpt lat="50.799836" lon="0.160891">
        <ele>18.357876</ele>
        <time>2024-07-14T08:35:27.000Z</time>
      </trkpt>
      <trkpt lat="50.799664" lon="0.160723">
        <ele>17.7216</ele>
        <time>2024-07-14T08:35:29.000Z</time>
      </trkpt>
      <trkpt lat="50.799468" lon="0.160593">
        <ele>17.037508</ele>
        <time>2024-07-14T08:35:31.000Z</time>
      </trkpt>
      <trkpt lat="50.799294" lon="0.160522">
        <ele>16.486427</ele>
        <time>2024-07-14T08:35:33.000Z</time>
      </trkpt>
      <trkpt lat="50.798517" lon="0.160369">
        <ele>14.299511</ele>
        <time>2024-07-14T08:35:42.000Z</time>
      </trkpt>
      <trkpt lat="50.798088" lon="0.160348">
        <ele>13.176963</ele>
        <time>2024-07-14T08:35:47.000Z</time>
      </trkpt>
      <trkpt lat="50.797726" lon="0.160368">
        <ele>12.210576</ele>
        <time>2024-07-14T08:35:51.000Z</time>
      </trkpt>
      <trkpt lat="50.797275" lon="0.160455">
        <ele>11.054467</ele>
        <time>2024-07-14T08:35:56.000Z</time>
      </trkpt>
      <trkpt lat="50.797056" lon="0.160452">
        <ele>10.892674</ele>
        <time>2024-07-14T08:35:58.000Z</time>
      </trkpt>
      <trkpt lat="50.796271" lon="0.160373">
        <ele>10.900256</ele>
        <time>2024-07-14T08:36:07.000Z</time>
      </trkpt>
      <trkpt lat="50.796103" lon="0.16033">
        <ele>10.901796</ele>
        <time>2024-07-14T08:36:09.000Z</time>
      </trkpt>
      <trkpt lat="50.795821" lon="0.160185">
        <ele>10.904619</ele>
        <time>2024-07-14T08:36:12.000Z</time>
      </trkpt>
      <trkpt lat="50.795398" lon="0.159964">
        <ele>10.928539</ele>
        <time>2024-07-14T08:36:17.000Z</time>
      </trkpt>
      <trkpt lat="50.795068" lon="0.159847">
        <ele>11.027206</ele>
        <time>2024-07-14T08:36:21.000Z</time>
      </trkpt>
      <trkpt lat="50.794739" lon="0.159595">
        <ele>11.135671</ele>
        <time>2024-07-14T08:36:25.000Z</time>
      </trkpt>
      <trkpt lat="50.794462" lon="0.159452">
        <ele>11.223962</ele>
        <time>2024-07-14T08:36:28.000Z</time>
      </trkpt>
      <trkpt lat="50.794276" lon="0.159389">
        <ele>11.278885</ele>
        <time>2024-07-14T08:36:30.000Z</time>
      </trkpt>
      <trkpt lat="50.794174" lon="0.159353">
        <ele>11.312588</ele>
        <time>2024-07-14T08:36:31.000Z</time>
      </trkpt>
      <trkpt lat="50.794105" lon="0.159238">
        <ele>11.343423</ele>
        <time>2024-07-14T08:36:32.000Z</time>
      </trkpt>
      <trkpt lat="50.794059" lon="0.15909">
        <ele>11.373772</ele>
        <time>2024-07-14T08:36:33.000Z</time>
      </trkpt>
      <trkpt lat="50.794001" lon="0.158772">
        <ele>11.436006</ele>
        <time>2024-07-14T08:36:35.000Z</time>
      </trkpt>
      <trkpt lat="50.794034" lon="0.158503">
        <ele>11.651435</ele>
        <time>2024-07-14T08:36:37.000Z</time>
      </trkpt>
      <trkpt lat="50.79404" lon="0.158342">
        <ele>11.799452</ele>
        <time>2024-07-14T08:36:38.000Z</time>
      </trkpt>
      <trkpt lat="50.794039" lon="0.158209">
        <ele>11.929154</ele>
        <time>2024-07-14T08:36:39.000Z</time>
      </trkpt>
      <trkpt lat="50.79397" lon="0.158039">
        <ele>12.100424</ele>
        <time>2024-07-14T08:36:40.000Z</time>
      </trkpt>
      <trkpt lat="50.793871" lon="0.157911">
        <ele>12.271856</ele>
        <time>2024-07-14T08:36:41.000Z</time>
      </trkpt>
      <trkpt lat="50.793738" lon="0.157817">
        <ele>12.508909</ele>
        <time>2024-07-14T08:36:43.000Z</time>
      </trkpt>
      <trkpt lat="50.793514" lon="0.157741">
        <ele>12.821461</ele>
        <time>2024-07-14T08:36:46.000Z</time>
      </trkpt>
      <trkpt lat="50.793306" lon="0.157766">
        <ele>13.127458</ele>
        <time>2024-07-14T08:36:48.000Z</time>
      </trkpt>
      <trkpt lat="50.792798" lon="0.157865">
        <ele>13.890348</ele>
        <time>2024-07-14T08:36:54.000Z</time>
      </trkpt>
      <trkpt lat="50.792515" lon="0.157867">
        <ele>14.31137</ele>
        <time>2024-07-14T08:36:57.000Z</time>
      </trkpt>
      <trkpt lat="50.792302" lon="0.157841">
        <ele>14.656592</ele>
        <time>2024-07-14T08:36:59.000Z</time>
      </trkpt>
      <trkpt lat="50.792103" lon="0.157821">
        <ele>14.986233</ele>
        <time>2024-07-14T08:37:01.000Z</time>
      </trkpt>
      <trkpt lat="50.791897" lon="0.15774">
        <ele>15.34067</ele>
        <time>2024-07-14T08:37:03.000Z</time>
      </trkpt>
      <trkpt lat="50.79165" lon="0.157621">
        <ele>15.766473</ele>
        <time>2024-07-14T08:37:06.000Z</time>
      </trkpt>
      <trkpt lat="50.791356" lon="0.157442">
        <ele>16.292959</ele>
        <time>2024-07-14T08:37:10.000Z</time>
      </trkpt>
      <trkpt lat="50.791196" lon="0.157319">
        <ele>16.592974</ele>
        <time>2024-07-14T08:37:12.000Z</time>
      </trkpt>
      <trkpt lat="50.790974" lon="0.157084">
        <ele>17.006274</ele>
        <time>2024-07-14T08:37:15.000Z</time>
      </trkpt>
      <trkpt lat="50.790625" lon="0.156639">
        <ele>15.539184</ele>
        <time>2024-07-14T08:37:20.000Z</time>
      </trkpt>
      <trkpt lat="50.790435" lon="0.156368">
        <ele>14.691015</ele>
        <time>2024-07-14T08:37:23.000Z</time>
      </trkpt>
      <trkpt lat="50.790284" lon="0.156072">
        <ele>13.867016</ele>
        <time>2024-07-14T08:37:26.000Z</time>
      </trkpt>
      <trkpt lat="50.790166" lon="0.155744">
        <ele>13.067805</ele>
        <time>2024-07-14T08:37:29.000Z</time>
      </trkpt>
      <trkpt lat="50.790072" lon="0.155396">
        <ele>12.274595</ele>
        <time>2024-07-14T08:37:32.000Z</time>
      </trkpt>
      <trkpt lat="50.789979" lon="0.154814">
        <ele>11.040827</ele>
        <time>2024-07-14T08:37:36.000Z</time>
      </trkpt>
      <trkpt lat="50.789876" lon="0.154213">
        <ele>10.722835</ele>
        <time>2024-07-14T08:37:40.000Z</time>
      </trkpt>
      <trkpt lat="50.789812" lon="0.15397">
        <ele>10.591817</ele>
        <time>2024-07-14T08:37:42.000Z</time>
      </trkpt>
      <trkpt lat="50.789717" lon="0.153736">
        <ele>10.445405</ele>
        <time>2024-07-14T08:37:44.000Z</time>
      </trkpt>
      <trkpt lat="50.789541" lon="0.153509">
        <ele>10.271793</ele>
        <time>2024-07-14T08:37:47.000Z</time>
      </trkpt>
      <trkpt lat="50.789374" lon="0.153374">
        <ele>10.117892</ele>
        <time>2024-07-14T08:37:49.000Z</time>
      </trkpt>
      <trkpt lat="50.788994" lon="0.153148">
        <ele>9.791147</ele>
        <time>2024-07-14T08:37:54.000Z</time>
      </trkpt>
      <trkpt lat="50.788668" lon="0.152963">
        <ele>9.575458</ele>
        <time>2024-07-14T08:37:58.000Z</time>
      </trkpt>
      <trkpt lat="50.788361" lon="0.15286">
        <ele>9.516805</ele>
        <time>2024-07-14T08:38:01.000Z</time>
      </trkpt>
      <trkpt lat="50.788034" lon="0.152772">
        <ele>9.450835</ele>
        <time>2024-07-14T08:38:05.000Z</time>
      </trkpt>
      <trkpt lat="50.787767" lon="0.152732">
        <ele>9.395298</ele>
        <time>2024-07-14T08:38:08.000Z</time>
      </trkpt>
      <trkpt lat="50.787726" lon="0.152734">
        <ele>9.39013</ele>
        <time>2024-07-14T08:38:08.000Z</time>
      </trkpt>
      <trkpt lat="50.787731" lon="0.152735">
        <ele>9.39014</ele>
        <time>2024-07-14T08:38:08.000Z</time>
      </trkpt>
      <trkpt lat="50.787675" lon="0.152725">
        <ele>9.378032</ele>
        <time>2024-07-14T08:38:09.000Z</time>
      </trkpt>
      <trkpt lat="50.787617" lon="0.152716">
        <ele>9.365542</ele>
        <time>2024-07-14T08:38:10.000Z</time>
      </trkpt>
      <trkpt lat="50.787137" lon="0.152719">
        <ele>9.272668</ele>
        <time>2024-07-14T08:38:15.000Z</time>
      </trkpt>
      <trkpt lat="50.786876" lon="0.152762">
        <ele>9.19703</ele>
        <time>2024-07-14T08:38:18.000Z</time>
      </trkpt>
      <trkpt lat="50.786721" lon="0.152831">
        <ele>9.129324</ele>
        <time>2024-07-14T08:38:20.000Z</time>
      </trkpt>
      <trkpt lat="50.78642" lon="0.152972">
        <ele>9.001724</ele>
        <time>2024-07-14T08:38:23.000Z</time>
      </trkpt>
      <trkpt lat="50.786263" lon="0.152995">
        <ele>8.94032</ele>
        <time>2024-07-14T08:38:25.000Z</time>
      </trkpt>
      <trkpt lat="50.786022" lon="0.152873">
        <ele>8.833747</ele>
        <time>2024-07-14T08:38:28.000Z</time>
      </trkpt>
      <trkpt lat="50.785725" lon="0.152665">
        <ele>8.703649</ele>
        <time>2024-07-14T08:38:32.000Z</time>
      </trkpt>
      <trkpt lat="50.78561" lon="0.152542">
        <ele>8.64706</ele>
        <time>2024-07-14T08:38:34.000Z</time>
      </trkpt>
      <trkpt lat="50.785546" lon="0.152454">
        <ele>8.61151</ele>
        <time>2024-07-14T08:38:35.000Z</time>
      </trkpt>
      <trkpt lat="50.785518" lon="0.152342">
        <ele>8.58062</ele>
        <time>2024-07-14T08:38:36.000Z</time>
      </trkpt>
      <trkpt lat="50.785519" lon="0.152078">
        <ele>8.510857</ele>
        <time>2024-07-14T08:38:38.000Z</time>
      </trkpt>
      <trkpt lat="50.785555" lon="0.151624">
        <ele>8.828744</ele>
        <time>2024-07-14T08:38:41.000Z</time>
      </trkpt>
      <trkpt lat="50.785588" lon="0.151335">
        <ele>9.047141</ele>
        <time>2024-07-14T08:38:43.000Z</time>
      </trkpt>
      <trkpt lat="50.785575" lon="0.151236">
        <ele>9.112861</ele>
        <time>2024-07-14T08:38:44.000Z</time>
      </trkpt>
      <trkpt lat="50.785541" lon="0.151159">
        <ele>9.1862</ele>
        <time>2024-07-14T08:38:45.000Z</time>
      </trkpt>
      <trkpt lat="50.785449" lon="0.151051">
        <ele>9.320757</ele>
        <time>2024-07-14T08:38:46.000Z</time>
      </trkpt>
      <trkpt lat="50.785319" lon="0.151015">
        <ele>9.460236</ele>
        <time>2024-07-14T08:38:47.000Z</time>
      </trkpt>
      <trkpt lat="50.785005" lon="0.151015">
        <ele>9.812899</ele>
        <time>2024-07-14T08:38:50.000Z</time>
      </trkpt>
      <trkpt lat="50.784739" lon="0.151021">
        <ele>10.120342</ele>
        <time>2024-07-14T08:38:53.000Z</time>
      </trkpt>
      <trkpt lat="50.784388" lon="0.151079">
        <ele>10.531367</ele>
        <time>2024-07-14T08:38:57.000Z</time>
      </trkpt>
      <trkpt lat="50.784063" lon="0.151068">
        <ele>10.439395</ele>
        <time>2024-07-14T08:39:01.000Z</time>
      </trkpt>
      <trkpt lat="50.783626" lon="0.151002">
        <ele>10.267274</ele>
        <time>2024-07-14T08:39:06.000Z</time>
      </trkpt>
      <trkpt lat="50.783452" lon="0.151009">
        <ele>10.201102</ele>
        <time>2024-07-14T08:39:08.000Z</time>
      </trkpt>
      <trkpt lat="50.783259" lon="0.151055">
        <ele>10.121874</ele>
        <time>2024-07-14T08:39:10.000Z</time>
      </trkpt>
      <trkpt lat="50.783048" lon="0.151186">
        <ele>10.034955</ele>
        <time>2024-07-14T08:39:13.000Z</time>
      </trkpt>
      <trkpt lat="50.782833" lon="0.151345">
        <ele>9.944228</ele>
        <time>2024-07-14T08:39:16.000Z</time>
      </trkpt>
      <trkpt lat="50.782701" lon="0.151405">
        <ele>9.89445</ele>
        <time>2024-07-14T08:39:18.000Z</time>
      </trkpt>
      <trkpt lat="50.782624" lon="0.15143">
        <ele>9.86292</ele>
        <time>2024-07-14T08:39:19.000Z</time>
      </trkpt>
      <trkpt lat="50.782479" lon="0.151388">
        <ele>9.841488</ele>
        <time>2024-07-14T08:39:21.000Z</time>
      </trkpt>
      <trkpt lat="50.782309" lon="0.151236">
        <ele>9.821099</ele>
        <time>2024-07-14T08:39:23.000Z</time>
      </trkpt>
      <trkpt lat="50.782179" lon="0.15107">
        <ele>9.802989</ele>
        <time>2024-07-14T08:39:25.000Z</time>
      </trkpt>
      <trkpt lat="50.782019" lon="0.150956">
        <ele>9.785676</ele>
        <time>2024-07-14T08:39:27.000Z</time>
      </trkpt>
      <trkpt lat="50.781883" lon="0.150918">
        <ele>9.771657</ele>
        <time>2024-07-14T08:39:29.000Z</time>
      </trkpt>
      <trkpt lat="50.781792" lon="0.150928">
        <ele>9.761162</ele>
        <time>2024-07-14T08:39:30.000Z</time>
      </trkpt>
      <trkpt lat="50.781567" lon="0.151006">
        <ele>9.737505</ele>
        <time>2024-07-14T08:39:33.000Z</time>
      </trkpt>
      <trkpt lat="50.78133" lon="0.151199">
        <ele>9.709076</ele>
        <time>2024-07-14T08:39:36.000Z</time>
      </trkpt>
      <trkpt lat="50.781104" lon="0.15149">
        <ele>9.678259</ele>
        <time>2024-07-14T08:39:39.000Z</time>
      </trkpt>
      <trkpt lat="50.780873" lon="0.151753">
        <ele>9.378304</ele>
        <time>2024-07-14T08:39:42.000Z</time>
      </trkpt>
      <trkpt lat="50.780696" lon="0.151843">
        <ele>9.050906</ele>
        <time>2024-07-14T08:39:44.000Z</time>
      </trkpt>
      <trkpt lat="50.78042" lon="0.151951">
        <ele>8.558324</ele>
        <time>2024-07-14T08:39:47.000Z</time>
      </trkpt>
      <trkpt lat="50.780183" lon="0.152091">
        <ele>8.135395</ele>
        <time>2024-07-14T08:39:50.000Z</time>
      </trkpt>
      <trkpt lat="50.779953" lon="0.152299">
        <ele>7.684979</ele>
        <time>2024-07-14T08:39:53.000Z</time>
      </trkpt>
      <trkpt lat="50.779874" lon="0.152323">
        <ele>7.524549</ele>
        <time>2024-07-14T08:39:54.000Z</time>
      </trkpt>
      <trkpt lat="50.779816" lon="0.152335">
        <ele>7.438744</ele>
        <time>2024-07-14T08:39:55.000Z</time>
      </trkpt>
      <trkpt lat="50.779773" lon="0.152282">
        <ele>7.357527</ele>
        <time>2024-07-14T08:39:56.000Z</time>
      </trkpt>
      <trkpt lat="50.779655" lon="0.152002">
        <ele>6.971807</ele>
        <time>2024-07-14T08:39:58.000Z</time>
      </trkpt>
      <trkpt lat="50.779493" lon="0.151627">
        <ele>6.507907</ele>
        <time>2024-07-14T08:40:01.000Z</time>
      </trkpt>
      <trkpt lat="50.779395" lon="0.151459">
        <ele>6.284127</ele>
        <time>2024-07-14T08:40:03.000Z</time>
      </trkpt>
      <trkpt lat="50.779238" lon="0.151305">
        <ele>6.008661</ele>
        <time>2024-07-14T08:40:05.000Z</time>
      </trkpt>
      <trkpt lat="50.779059" lon="0.151175">
        <ele>5.724435</ele>
        <time>2024-07-14T08:40:07.000Z</time>
      </trkpt>
      <trkpt lat="50.778926" lon="0.151127">
        <ele>5.529752</ele>
        <time>2024-07-14T08:40:09.000Z</time>
      </trkpt>
      <trkpt lat="50.778634" lon="0.15108">
        <ele>5.119739</ele>
        <time>2024-07-14T08:40:12.000Z</time>
      </trkpt>
      <trkpt lat="50.778357" lon="0.151104">
        <ele>4.696865</ele>
        <time>2024-07-14T08:40:15.000Z</time>
      </trkpt>
      <trkpt lat="50.778219" lon="0.15109">
        <ele>4.506806</ele>
        <time>2024-07-14T08:40:17.000Z</time>
      </trkpt>
      <trkpt lat="50.778189" lon="0.151043">
        <ele>4.432618</ele>
        <time>2024-07-14T08:40:17.000Z</time>
      </trkpt>
      <trkpt lat="50.778127" lon="0.150938">
        <ele>4.315332</ele>
        <time>2024-07-14T08:40:18.000Z</time>
      </trkpt>
      <trkpt lat="50.778113" lon="0.15077">
        <ele>4.158228</ele>
        <time>2024-07-14T08:40:19.000Z</time>
      </trkpt>
      <trkpt lat="50.778099" lon="0.150306">
        <ele>4.238843</ele>
        <time>2024-07-14T08:40:22.000Z</time>
      </trkpt>
      <trkpt lat="50.778008" lon="0.149964">
        <ele>4.646234</ele>
        <time>2024-07-14T08:40:25.000Z</time>
      </trkpt>
      <trkpt lat="50.777931" lon="0.149833">
        <ele>4.846738</ele>
        <time>2024-07-14T08:40:26.000Z</time>
      </trkpt>
      <trkpt lat="50.777754" lon="0.149739">
        <ele>5.167809</ele>
        <time>2024-07-14T08:40:28.000Z</time>
      </trkpt>
      <trkpt lat="50.777528" lon="0.149684">
        <ele>5.572254</ele>
        <time>2024-07-14T08:40:31.000Z</time>
      </trkpt>
      <trkpt lat="50.777192" lon="0.149741">
        <ele>6.170254</ele>
        <time>2024-07-14T08:40:35.000Z</time>
      </trkpt>
      <trkpt lat="50.776998" lon="0.14986">
        <ele>6.540376</ele>
        <time>2024-07-14T08:40:37.000Z</time>
      </trkpt>
      <trkpt lat="50.776791" lon="0.15004">
        <ele>6.927534</ele>
        <time>2024-07-14T08:40:40.000Z</time>
      </trkpt>
      <trkpt lat="50.776144" lon="0.150896">
        <ele>8.654286</ele>
        <time>2024-07-14T08:40:49.000Z</time>
      </trkpt>
      <trkpt lat="50.775609" lon="0.151799">
        <ele>10.307511</ele>
        <time>2024-07-14T08:40:58.000Z</time>
      </trkpt>
      <trkpt lat="50.775412" lon="0.152028">
        <ele>10.799318</ele>
        <time>2024-07-14T08:41:01.000Z</time>
      </trkpt>
      <trkpt lat="50.775383" lon="0.152066">
        <ele>10.952006</ele>
        <time>2024-07-14T08:41:01.000Z</time>
      </trkpt>
      <trkpt lat="50.775358" lon="0.152067">
        <ele>11.15675</ele>
        <time>2024-07-14T08:41:01.000Z</time>
      </trkpt>
      <trkpt lat="50.775349" lon="0.152151">
        <ele>11.494582</ele>
        <time>2024-07-14T08:41:02.000Z</time>
      </trkpt>
      <trkpt lat="50.775327" lon="0.152269">
        <ele>11.977923</ele>
        <time>2024-07-14T08:41:03.000Z</time>
      </trkpt>
      <trkpt lat="50.775254" lon="0.152491">
        <ele>13.086424</ele>
        <time>2024-07-14T08:41:05.000Z</time>
      </trkpt>
      <trkpt lat="50.775085" lon="0.15287">
        <ele>15.014315</ele>
        <time>2024-07-14T08:41:08.000Z</time>
      </trkpt>
      <trkpt lat="50.775076" lon="0.152971">
        <ele>15.441846</ele>
        <time>2024-07-14T08:41:09.000Z</time>
      </trkpt>
      <trkpt lat="50.775061" lon="0.153245">
        <ele>16.583986</ele>
        <time>2024-07-14T08:41:11.000Z</time>
      </trkpt>
      <trkpt lat="50.775096" lon="0.15367">
        <ele>18.397222</ele>
        <time>2024-07-14T08:41:14.000Z</time>
      </trkpt>
      <trkpt lat="50.77511" lon="0.153713">
        <ele>18.571525</ele>
        <time>2024-07-14T08:41:14.000Z</time>
      </trkpt>
      <trkpt lat="50.775108" lon="0.153706">
        <ele>18.571522</ele>
        <time>2024-07-14T08:41:14.000Z</time>
      </trkpt>
      <trkpt lat="50.775118" lon="0.153802">
        <ele>18.984622</ele>
        <time>2024-07-14T08:41:15.000Z</time>
      </trkpt>
      <trkpt lat="50.775138" lon="0.153996">
        <ele>19.776438</ele>
        <time>2024-07-14T08:41:16.000Z</time>
      </trkpt>
      <trkpt lat="50.775113" lon="0.154693">
        <ele>22.775454</ele>
        <time>2024-07-14T08:41:21.000Z</time>
      </trkpt>
      <trkpt lat="50.775081" lon="0.155036">
        <ele>24.593999</ele>
        <time>2024-07-14T08:41:23.000Z</time>
      </trkpt>
      <trkpt lat="50.775019" lon="0.155292">
        <ele>26.199694</ele>
        <time>2024-07-14T08:41:25.000Z</time>
      </trkpt>
      <trkpt lat="50.774908" lon="0.155658">
        <ele>28.399755</ele>
        <time>2024-07-14T08:41:28.000Z</time>
      </trkpt>
      <trkpt lat="50.774667" lon="0.156158">
        <ele>31.801957</ele>
        <time>2024-07-14T08:41:32.000Z</time>
      </trkpt>
      <trkpt lat="50.774292" lon="0.156869">
        <ele>36.920255</ele>
        <time>2024-07-14T08:41:39.000Z</time>
      </trkpt>
      <trkpt lat="50.773567" lon="0.157953">
        <ele>43.475246</ele>
        <time>2024-07-14T08:41:50.000Z</time>
      </trkpt>
      <trkpt lat="50.77291" lon="0.158924">
        <ele>48.846764</ele>
        <time>2024-07-14T08:42:00.000Z</time>
      </trkpt>
      <trkpt lat="50.772111" lon="0.160258">
        <ele>52.169064</ele>
        <time>2024-07-14T08:42:13.000Z</time>
      </trkpt>
      <trkpt lat="50.771697" lon="0.161036">
        <ele>53.871211</ele>
        <time>2024-07-14T08:42:20.000Z</time>
      </trkpt>
      <trkpt lat="50.771466" lon="0.161589">
        <ele>53.913724</ele>
        <time>2024-07-14T08:42:25.000Z</time>
      </trkpt>
      <trkpt lat="50.771234" lon="0.162369">
        <ele>53.665018</ele>
        <time>2024-07-14T08:42:31.000Z</time>
      </trkpt>
      <trkpt lat="50.771113" lon="0.162918">
        <ele>53.496446</ele>
        <time>2024-07-14T08:42:35.000Z</time>
      </trkpt>
      <trkpt lat="50.771022" lon="0.163426">
        <ele>53.34419</ele>
        <time>2024-07-14T08:42:39.000Z</time>
      </trkpt>
      <trkpt lat="50.770961" lon="0.164203">
        <ele>53.220495</ele>
        <time>2024-07-14T08:42:45.000Z</time>
      </trkpt>
      <trkpt lat="50.770938" lon="0.165688">
        <ele>53.144404</ele>
        <time>2024-07-14T08:42:55.000Z</time>
      </trkpt>
      <trkpt lat="50.770926" lon="0.165727">
        <ele>53.142238</ele>
        <time>2024-07-14T08:42:55.000Z</time>
      </trkpt>
      <trkpt lat="50.770931" lon="0.165718">
        <ele>53.142233</ele>
        <time>2024-07-14T08:42:55.000Z</time>
      </trkpt>
      <trkpt lat="50.770923" lon="0.165815">
        <ele>53.137231</ele>
        <time>2024-07-14T08:42:56.000Z</time>
      </trkpt>
      <trkpt lat="50.770925" lon="0.165811">
        <ele>53.137133</ele>
        <time>2024-07-14T08:42:56.000Z</time>
      </trkpt>
      <trkpt lat="50.770923" lon="0.167067">
        <ele>53.684266</ele>
        <time>2024-07-14T08:43:05.000Z</time>
      </trkpt>
      <trkpt lat="50.770914" lon="0.167371">
        <ele>54.072344</ele>
        <time>2024-07-14T08:43:07.000Z</time>
      </trkpt>
      <trkpt lat="50.770852" lon="0.167903">
        <ele>54.7332</ele>
        <time>2024-07-14T08:43:11.000Z</time>
      </trkpt>
      <trkpt lat="50.770671" lon="0.168714">
        <ele>55.806615</ele>
        <time>2024-07-14T08:43:17.000Z</time>
      </trkpt>
      <trkpt lat="50.770468" lon="0.169635">
        <ele>57.693807</ele>
        <time>2024-07-14T08:43:24.000Z</time>
      </trkpt>
      <trkpt lat="50.770233" lon="0.170431">
        <ele>60.729457</ele>
        <time>2024-07-14T08:43:30.000Z</time>
      </trkpt>
      <trkpt lat="50.769797" lon="0.171694">
        <ele>65.701406</ele>
        <time>2024-07-14T08:43:40.000Z</time>
      </trkpt>
      <trkpt lat="50.769534" lon="0.172354">
        <ele>69.095766</ele>
        <time>2024-07-14T08:43:45.000Z</time>
      </trkpt>
      <trkpt lat="50.769305" lon="0.172846">
        <ele>71.899574</ele>
        <time>2024-07-14T08:43:49.000Z</time>
      </trkpt>
      <trkpt lat="50.768314" lon="0.174771">
        <ele>82.40165</ele>
        <time>2024-07-14T08:44:06.000Z</time>
      </trkpt>
      <trkpt lat="50.768098" lon="0.175223">
        <ele>84.459083</ele>
        <time>2024-07-14T08:44:10.000Z</time>
      </trkpt>
      <trkpt lat="50.767942" lon="0.175556">
        <ele>85.872131</ele>
        <time>2024-07-14T08:44:13.000Z</time>
      </trkpt>
      <trkpt lat="50.767555" lon="0.176508">
        <ele>89.795065</ele>
        <time>2024-07-14T08:44:21.000Z</time>
      </trkpt>
      <trkpt lat="50.767305" lon="0.177209">
        <ele>91.419838</ele>
        <time>2024-07-14T08:44:27.000Z</time>
      </trkpt>
      <trkpt lat="50.767133" lon="0.177677">
        <ele>92.531734</ele>
        <time>2024-07-14T08:44:31.000Z</time>
      </trkpt>
      <trkpt lat="50.766904" lon="0.17846">
        <ele>94.271163</ele>
        <time>2024-07-14T08:44:37.000Z</time>
      </trkpt>
      <trkpt lat="50.766738" lon="0.179017">
        <ele>95.504944</ele>
        <time>2024-07-14T08:44:41.000Z</time>
      </trkpt>
      <trkpt lat="50.766447" lon="0.179751">
        <ele>96.983274</ele>
        <time>2024-07-14T08:44:47.000Z</time>
      </trkpt>
      <trkpt lat="50.766196" lon="0.180317">
        <ele>98.188095</ele>
        <time>2024-07-14T08:44:52.000Z</time>
      </trkpt>
      <trkpt lat="50.766161" lon="0.180372">
        <ele>98.305165</ele>
        <time>2024-07-14T08:44:53.000Z</time>
      </trkpt>
      <trkpt lat="50.766137" lon="0.180402">
        <ele>98.3755</ele>
        <time>2024-07-14T08:44:53.000Z</time>
      </trkpt>
      <trkpt lat="50.766136" lon="0.180404">
        <ele>98.375515</ele>
        <time>2024-07-14T08:44:53.000Z</time>
      </trkpt>
      <trkpt lat="50.766112" lon="0.180485">
        <ele>98.549831</ele>
        <time>2024-07-14T08:44:54.000Z</time>
      </trkpt>
      <trkpt lat="50.765752" lon="0.181121">
        <ele>100.018608</ele>
        <time>2024-07-14T08:45:00.000Z</time>
      </trkpt>
      <trkpt lat="50.765438" lon="0.181653">
        <ele>100.853499</ele>
        <time>2024-07-14T08:45:05.000Z</time>
      </trkpt>
      <trkpt lat="50.764892" lon="0.182506">
        <ele>102.032842</ele>
        <time>2024-07-14T08:45:14.000Z</time>
      </trkpt>
      <trkpt lat="50.764624" lon="0.183125">
        <ele>102.785569</ele>
        <time>2024-07-14T08:45:19.000Z</time>
      </trkpt>
      <trkpt lat="50.764363" lon="0.183941">
        <ele>103.213808</ele>
        <time>2024-07-14T08:45:25.000Z</time>
      </trkpt>
      <trkpt lat="50.764013" lon="0.185258">
        <ele>103.513459</ele>
        <time>2024-07-14T08:45:35.000Z</time>
      </trkpt>
      <trkpt lat="50.763421" lon="0.187926">
        <ele>104.762083</ele>
        <time>2024-07-14T08:45:55.000Z</time>
      </trkpt>
      <trkpt lat="50.763269" lon="0.189038">
        <ele>105.458877</ele>
        <time>2024-07-14T08:46:03.000Z</time>
      </trkpt>
      <trkpt lat="50.763121" lon="0.190538">
        <ele>106.698103</ele>
        <time>2024-07-14T08:46:14.000Z</time>
      </trkpt>
      <trkpt lat="50.762968" lon="0.191397">
        <ele>107.435582</ele>
        <time>2024-07-14T08:46:20.000Z</time>
      </trkpt>
      <trkpt lat="50.762864" lon="0.19186">
        <ele>107.452748</ele>
        <time>2024-07-14T08:46:23.000Z</time>
      </trkpt>
      <trkpt lat="50.762819" lon="0.192178">
        <ele>107.374998</ele>
        <time>2024-07-14T08:46:25.000Z</time>
      </trkpt>
      <trkpt lat="50.762811" lon="0.19252">
        <ele>107.293851</ele>
        <time>2024-07-14T08:46:27.000Z</time>
      </trkpt>
      <trkpt lat="50.762844" lon="0.192924">
        <ele>107.194968</ele>
        <time>2024-07-14T08:46:30.000Z</time>
      </trkpt>
      <trkpt lat="50.762894" lon="0.193547">
        <ele>107.046424</ele>
        <time>2024-07-14T08:46:34.000Z</time>
      </trkpt>
      <trkpt lat="50.762885" lon="0.193821">
        <ele>106.979562</ele>
        <time>2024-07-14T08:46:36.000Z</time>
      </trkpt>
      <trkpt lat="50.762773" lon="0.194991">
        <ele>107.967855</ele>
        <time>2024-07-14T08:46:44.000Z</time>
      </trkpt>
      <trkpt lat="50.762712" lon="0.19593">
        <ele>109.503434</ele>
        <time>2024-07-14T08:46:51.000Z</time>
      </trkpt>
      <trkpt lat="50.762708" lon="0.197111">
        <ele>111.421529</ele>
        <time>2024-07-14T08:46:59.000Z</time>
      </trkpt>
      <trkpt lat="50.762736" lon="0.197419">
        <ele>111.358497</ele>
        <time>2024-07-14T08:47:01.000Z</time>
      </trkpt>
      <trkpt lat="50.762839" lon="0.197833">
        <ele>111.155499</ele>
        <time>2024-07-14T08:47:04.000Z</time>
      </trkpt>
      <trkpt lat="50.762922" lon="0.198131">
        <ele>111.007641</ele>
        <time>2024-07-14T08:47:06.000Z</time>
      </trkpt>
      <trkpt lat="50.762908" lon="0.198353">
        <ele>110.902102</ele>
        <time>2024-07-14T08:47:08.000Z</time>
      </trkpt>
      <trkpt lat="50.76288" lon="0.198507">
        <ele>110.830093</ele>
        <time>2024-07-14T08:47:09.000Z</time>
      </trkpt>
      <trkpt lat="50.762796" lon="0.198791">
        <ele>110.682234</ele>
        <time>2024-07-14T08:47:11.000Z</time>
      </trkpt>
      <trkpt lat="50.762724" lon="0.198936">
        <ele>110.604085</ele>
        <time>2024-07-14T08:47:12.000Z</time>
      </trkpt>
      <trkpt lat="50.762201" lon="0.200129">
        <ele>108.098662</ele>
        <time>2024-07-14T08:47:22.000Z</time>
      </trkpt>
      <trkpt lat="50.762135" lon="0.200213">
        <ele>107.49655</ele>
        <time>2024-07-14T08:47:23.000Z</time>
      </trkpt>
      <trkpt lat="50.762117" lon="0.200249">
        <ele>107.330979</ele>
        <time>2024-07-14T08:47:23.000Z</time>
      </trkpt>
      <trkpt lat="50.762116" lon="0.200255">
        <ele>107.330987</ele>
        <time>2024-07-14T08:47:23.000Z</time>
      </trkpt>
      <trkpt lat="50.762066" lon="0.200324">
        <ele>106.919409</ele>
        <time>2024-07-14T08:47:24.000Z</time>
      </trkpt>
      <trkpt lat="50.761397" lon="0.201316">
        <ele>101.023067</ele>
        <time>2024-07-14T08:47:34.000Z</time>
      </trkpt>
      <trkpt lat="50.761312" lon="0.201444">
        <ele>100.320143</ele>
        <time>2024-07-14T08:47:35.000Z</time>
      </trkpt>
      <trkpt lat="50.761126" lon="0.201864">
        <ele>97.919741</ele>
        <time>2024-07-14T08:47:39.000Z</time>
      </trkpt>
      <trkpt lat="50.761014" lon="0.202191">
        <ele>95.530347</ele>
        <time>2024-07-14T08:47:42.000Z</time>
      </trkpt>
      <trkpt lat="50.760889" lon="0.202824">
        <ele>91.460366</ele>
        <time>2024-07-14T08:47:47.000Z</time>
      </trkpt>
      <trkpt lat="50.760804" lon="0.203335">
        <ele>88.162001</ele>
        <time>2024-07-14T08:47:51.000Z</time>
      </trkpt>
      <trkpt lat="50.76077" lon="0.203608">
        <ele>86.421278</ele>
        <time>2024-07-14T08:47:53.000Z</time>
      </trkpt>
      <trkpt lat="50.760727" lon="0.204353">
        <ele>81.634062</ele>
        <time>2024-07-14T08:47:58.000Z</time>
      </trkpt>
      <trkpt lat="50.760733" lon="0.204607">
        <ele>79.985377</ele>
        <time>2024-07-14T08:48:00.000Z</time>
      </trkpt>
      <trkpt lat="50.760769" lon="0.204907">
        <ele>77.870897</ele>
        <time>2024-07-14T08:48:02.000Z</time>
      </trkpt>
      <trkpt lat="50.760777" lon="0.205613">
        <ele>73.041981</ele>
        <time>2024-07-14T08:48:07.000Z</time>
      </trkpt>
      <trkpt lat="50.760736" lon="0.205965">
        <ele>70.567336</ele>
        <time>2024-07-14T08:48:10.000Z</time>
      </trkpt>
      <trkpt lat="50.760649" lon="0.206291">
        <ele>68.06549</ele>
        <time>2024-07-14T08:48:13.000Z</time>
      </trkpt>
      <trkpt lat="50.760549" lon="0.206685">
        <ele>65.22699</ele>
        <time>2024-07-14T08:48:16.000Z</time>
      </trkpt>
      <trkpt lat="50.760509" lon="0.207064">
        <ele>62.502131</ele>
        <time>2024-07-14T08:48:19.000Z</time>
      </trkpt>
      <trkpt lat="50.760466" lon="0.207438">
        <ele>60.648779</ele>
        <time>2024-07-14T08:48:22.000Z</time>
      </trkpt>
      <trkpt lat="50.760351" lon="0.207978">
        <ele>58.904498</ele>
        <time>2024-07-14T08:48:26.000Z</time>
      </trkpt>
      <trkpt lat="50.760296" lon="0.208325">
        <ele>57.726766</ele>
        <time>2024-07-14T08:48:29.000Z</time>
      </trkpt>
      <trkpt lat="50.760221" lon="0.208678">
        <ele>56.622965</ele>
        <time>2024-07-14T08:48:32.000Z</time>
      </trkpt>
      <trkpt lat="50.759961" lon="0.208498">
        <ele>55.232045</ele>
        <time>2024-07-14T08:48:35.000Z</time>
      </trkpt>
      <trkpt lat="50.759728" lon="0.208348">
        <ele>53.920596</ele>
        <time>2024-07-14T08:48:38.000Z</time>
      </trkpt>
      <trkpt lat="50.759703" lon="0.20833">
        <ele>53.793012</ele>
        <time>2024-07-14T08:48:38.000Z</time>
      </trkpt>
      <trkpt lat="50.759697" lon="0.20832">
        <ele>53.793012</ele>
        <time>2024-07-14T08:48:38.000Z</time>
      </trkpt>
      <trkpt lat="50.759636" lon="0.20829">
        <ele>53.478064</ele>
        <time>2024-07-14T08:48:39.000Z</time>
      </trkpt>
      <trkpt lat="50.758662" lon="0.207679">
        <ele>50.423844</ele>
        <time>2024-07-14T08:48:51.000Z</time>
      </trkpt>
      <trkpt lat="50.757574" lon="0.206985">
        <ele>47.713381</ele>
        <time>2024-07-14T08:49:04.000Z</time>
      </trkpt>
      <trkpt lat="50.756932" lon="0.206536">
        <ele>46.350674</ele>
        <time>2024-07-14T08:49:12.000Z</time>
      </trkpt>
      <trkpt lat="50.755909" lon="0.205983">
        <ele>44.271396</ele>
        <time>2024-07-14T08:49:24.000Z</time>
      </trkpt>
      <trkpt lat="50.754628" lon="0.205353">
        <ele>42.075547</ele>
        <time>2024-07-14T08:49:39.000Z</time>
      </trkpt>
      <trkpt lat="50.754364" lon="0.205254">
        <ele>41.639276</ele>
        <time>2024-07-14T08:49:42.000Z</time>
      </trkpt>
      <trkpt lat="50.754187" lon="0.205247">
        <ele>41.296396</ele>
        <time>2024-07-14T08:49:44.000Z</time>
      </trkpt>
      <trkpt lat="50.753854" lon="0.205271">
        <ele>40.668312</ele>
        <time>2024-07-14T08:49:48.000Z</time>
      </trkpt>
      <trkpt lat="50.753616" lon="0.205348">
        <ele>40.223244</ele>
        <time>2024-07-14T08:49:51.000Z</time>
      </trkpt>
      <trkpt lat="50.753238" lon="0.205553">
        <ele>39.436385</ele>
        <time>2024-07-14T08:49:55.000Z</time>
      </trkpt>
      <trkpt lat="50.752796" lon="0.205855">
        <ele>38.543254</ele>
        <time>2024-07-14T08:50:00.000Z</time>
      </trkpt>
      <trkpt lat="50.752687" lon="0.205928">
        <ele>38.3041</ele>
        <time>2024-07-14T08:50:01.000Z</time>
      </trkpt>
      <trkpt lat="50.752617" lon="0.205921">
        <ele>38.249401</ele>
        <time>2024-07-14T08:50:02.000Z</time>
      </trkpt>
      <trkpt lat="50.752545" lon="0.205919">
        <ele>38.295729</ele>
        <time>2024-07-14T08:50:03.000Z</time>
      </trkpt>
      <trkpt lat="50.752049" lon="0.205358">
        <ele>38.699621</ele>
        <time>2024-07-14T08:50:10.000Z</time>
      </trkpt>
      <trkpt lat="50.751702" lon="0.205042">
        <ele>38.952649</ele>
        <time>2024-07-14T08:50:14.000Z</time>
      </trkpt>
      <trkpt lat="50.751582" lon="0.205048">
        <ele>39.038432</ele>
        <time>2024-07-14T08:50:15.000Z</time>
      </trkpt>
      <trkpt lat="50.751487" lon="0.205053">
        <ele>39.104486</ele>
        <time>2024-07-14T08:50:16.000Z</time>
      </trkpt>
      <trkpt lat="50.751087" lon="0.205511">
        <ele>39.37488</ele>
        <time>2024-07-14T08:50:21.000Z</time>
      </trkpt>
      <trkpt lat="50.751064" lon="0.205533">
        <ele>39.32328</ele>
        <time>2024-07-14T08:50:21.000Z</time>
      </trkpt>
      <trkpt lat="50.751053" lon="0.20552">
        <ele>39.322024</ele>
        <time>2024-07-14T08:50:21.000Z</time>
      </trkpt>
      <trkpt lat="50.751049" lon="0.205548">
        <ele>39.295409</ele>
        <time>2024-07-14T08:50:21.000Z</time>
      </trkpt>
      <trkpt lat="50.751006" lon="0.205602">
        <ele>39.194832</ele>
        <time>2024-07-14T08:50:22.000Z</time>
      </trkpt>
      <trkpt lat="50.750719" lon="0.206072">
        <ele>38.344514</ele>
        <time>2024-07-14T08:50:27.000Z</time>
      </trkpt>
      <trkpt lat="50.750399" lon="0.206461">
        <ele>37.539895</ele>
        <time>2024-07-14T08:50:31.000Z</time>
      </trkpt>
      <trkpt lat="50.750253" lon="0.206583">
        <ele>37.240125</ele>
        <time>2024-07-14T08:50:33.000Z</time>
      </trkpt>
      <trkpt lat="50.750199" lon="0.206616">
        <ele>37.110457</ele>
        <time>2024-07-14T08:50:34.000Z</time>
      </trkpt>
      <trkpt lat="50.749983" lon="0.206704">
        <ele>36.657947</ele>
        <time>2024-07-14T08:50:36.000Z</time>
      </trkpt>
      <trkpt lat="50.749757" lon="0.206678">
        <ele>36.216988</ele>
        <time>2024-07-14T08:50:39.000Z</time>
      </trkpt>
      <trkpt lat="50.749131" lon="0.206362">
        <ele>34.288618</ele>
        <time>2024-07-14T08:50:46.000Z</time>
      </trkpt>
      <trkpt lat="50.748775" lon="0.206233">
        <ele>33.009031</ele>
        <time>2024-07-14T08:50:50.000Z</time>
      </trkpt>
      <trkpt lat="50.747925" lon="0.205993">
        <ele>30.097735</ele>
        <time>2024-07-14T08:51:00.000Z</time>
      </trkpt>
      <trkpt lat="50.747313" lon="0.205744">
        <ele>27.850817</ele>
        <time>2024-07-14T08:51:07.000Z</time>
      </trkpt>
      <trkpt lat="50.746823" lon="0.205454">
        <ele>25.966539</ele>
        <time>2024-07-14T08:51:13.000Z</time>
      </trkpt>
      <trkpt lat="50.745902" lon="0.204853">
        <ele>22.651903</ele>
        <time>2024-07-14T08:51:24.000Z</time>
      </trkpt>
      <trkpt lat="50.745608" lon="0.204705">
        <ele>21.802139</ele>
        <time>2024-07-14T08:51:27.000Z</time>
      </trkpt>
      <trkpt lat="50.744816" lon="0.204443">
        <ele>19.683582</ele>
        <time>2024-07-14T08:51:36.000Z</time>
      </trkpt>
      <trkpt lat="50.744613" lon="0.204336">
        <ele>19.133752</ele>
        <time>2024-07-14T08:51:38.000Z</time>
      </trkpt>
      <trkpt lat="50.744403" lon="0.204213">
        <ele>18.568092</ele>
        <time>2024-07-14T08:51:40.000Z</time>
      </trkpt>
      <trkpt lat="50.74422" lon="0.204003">
        <ele>18.26493</ele>
        <time>2024-07-14T08:51:43.000Z</time>
      </trkpt>
      <trkpt lat="50.744123" lon="0.203869">
        <ele>18.095608</ele>
        <time>2024-07-14T08:51:44.000Z</time>
      </trkpt>
      <trkpt lat="50.743948" lon="0.203594">
        <ele>17.771102</ele>
        <time>2024-07-14T08:51:47.000Z</time>
      </trkpt>
      <trkpt lat="50.743843" lon="0.203386">
        <ele>17.554346</ele>
        <time>2024-07-14T08:51:49.000Z</time>
      </trkpt>
      <trkpt lat="50.743642" lon="0.202939">
        <ele>17.106091</ele>
        <time>2024-07-14T08:51:53.000Z</time>
      </trkpt>
      <trkpt lat="50.743463" lon="0.202401">
        <ele>16.594857</ele>
        <time>2024-07-14T08:51:57.000Z</time>
      </trkpt>
      <trkpt lat="50.743385" lon="0.202269">
        <ele>16.444799</ele>
        <time>2024-07-14T08:51:58.000Z</time>
      </trkpt>
      <trkpt lat="50.74329" lon="0.202185">
        <ele>16.30979</ele>
        <time>2024-07-14T08:51:59.000Z</time>
      </trkpt>
      <trkpt lat="50.743211" lon="0.202157">
        <ele>16.228271</ele>
        <time>2024-07-14T08:52:00.000Z</time>
      </trkpt>
      <trkpt lat="50.743116" lon="0.202189">
        <ele>16.311844</ele>
        <time>2024-07-14T08:52:01.000Z</time>
      </trkpt>
      <trkpt lat="50.743039" lon="0.20227">
        <ele>16.392455</ele>
        <time>2024-07-14T08:52:02.000Z</time>
      </trkpt>
      <trkpt lat="50.742944" lon="0.202453">
        <ele>16.515756</ele>
        <time>2024-07-14T08:52:04.000Z</time>
      </trkpt>
      <trkpt lat="50.742912" lon="0.202622">
        <ele>16.605567</ele>
        <time>2024-07-14T08:52:05.000Z</time>
      </trkpt>
      <trkpt lat="50.742972" lon="0.203144">
        <ele>16.878818</ele>
        <time>2024-07-14T08:52:09.000Z</time>
      </trkpt>
      <trkpt lat="50.743097" lon="0.204066">
        <ele>17.368508</ele>
        <time>2024-07-14T08:52:16.000Z</time>
      </trkpt>
      <trkpt lat="50.743144" lon="0.204868">
        <ele>17.942991</ele>
        <time>2024-07-14T08:52:22.000Z</time>
      </trkpt>
      <trkpt lat="50.743154" lon="0.205543">
        <ele>18.954534</ele>
        <time>2024-07-14T08:52:27.000Z</time>
      </trkpt>
      <trkpt lat="50.743144" lon="0.207904">
        <ele>22.526558</ele>
        <time>2024-07-14T08:52:44.000Z</time>
      </trkpt>
      <trkpt lat="50.743142" lon="0.207956">
        <ele>22.592692</ele>
        <time>2024-07-14T08:52:44.000Z</time>
      </trkpt>
      <trkpt lat="50.743146" lon="0.207952">
        <ele>22.592692</ele>
        <time>2024-07-14T08:52:44.000Z</time>
      </trkpt>
      <trkpt lat="50.743142" lon="0.208053">
        <ele>22.757236</ele>
        <time>2024-07-14T08:52:45.000Z</time>
      </trkpt>
      <trkpt lat="50.743148" lon="0.208864">
        <ele>24.075183</ele>
        <time>2024-07-14T08:52:51.000Z</time>
      </trkpt>
      <trkpt lat="50.743137" lon="0.209726">
        <ele>25.462664</ele>
        <time>2024-07-14T08:52:57.000Z</time>
      </trkpt>
      <trkpt lat="50.743129" lon="0.210407">
        <ele>26.537582</ele>
        <time>2024-07-14T08:53:02.000Z</time>
      </trkpt>
      <trkpt lat="50.743068" lon="0.210914">
        <ele>27.251208</ele>
        <time>2024-07-14T08:53:06.000Z</time>
      </trkpt>
      <trkpt lat="50.742947" lon="0.211298">
        <ele>27.815371</ele>
        <time>2024-07-14T08:53:09.000Z</time>
      </trkpt>
      <trkpt lat="50.742777" lon="0.211741">
        <ele>28.511378</ele>
        <time>2024-07-14T08:53:13.000Z</time>
      </trkpt>
      <trkpt lat="50.742525" lon="0.212169">
        <ele>29.304631</ele>
        <time>2024-07-14T08:53:17.000Z</time>
      </trkpt>
      <trkpt lat="50.742348" lon="0.212376">
        <ele>29.773426</ele>
        <time>2024-07-14T08:53:19.000Z</time>
      </trkpt>
      <trkpt lat="50.742159" lon="0.212566">
        <ele>30.264491</ele>
        <time>2024-07-14T08:53:21.000Z</time>
      </trkpt>
      <trkpt lat="50.74201" lon="0.212664">
        <ele>30.484589</ele>
        <time>2024-07-14T08:53:23.000Z</time>
      </trkpt>
      <trkpt lat="50.74172" lon="0.212792">
        <ele>30.841101</ele>
        <time>2024-07-14T08:53:26.000Z</time>
      </trkpt>
      <trkpt lat="50.741294" lon="0.212958">
        <ele>31.361898</ele>
        <time>2024-07-14T08:53:31.000Z</time>
      </trkpt>
      <trkpt lat="50.740978" lon="0.213187">
        <ele>31.777658</ele>
        <time>2024-07-14T08:53:35.000Z</time>
      </trkpt>
      <trkpt lat="50.740748" lon="0.213426">
        <ele>32.093829</ele>
        <time>2024-07-14T08:53:38.000Z</time>
      </trkpt>
      <trkpt lat="50.740522" lon="0.213704">
        <ele>32.432648</ele>
        <time>2024-07-14T08:53:41.000Z</time>
      </trkpt>
      <trkpt lat="50.740323" lon="0.21407">
        <ele>33.015814</ele>
        <time>2024-07-14T08:53:44.000Z</time>
      </trkpt>
      <trkpt lat="50.739958" lon="0.214855">
        <ele>34.236764</ele>
        <time>2024-07-14T08:53:51.000Z</time>
      </trkpt>
      <trkpt lat="50.739717" lon="0.215443">
        <ele>35.087077</ele>
        <time>2024-07-14T08:53:56.000Z</time>
      </trkpt>
      <trkpt lat="50.7394" lon="0.216492">
        <ele>36.403361</ele>
        <time>2024-07-14T08:54:04.000Z</time>
      </trkpt>
      <trkpt lat="50.739244" lon="0.217192">
        <ele>37.103985</ele>
        <time>2024-07-14T08:54:09.000Z</time>
      </trkpt>
      <trkpt lat="50.739137" lon="0.217832">
        <ele>37.715705</ele>
        <time>2024-07-14T08:54:14.000Z</time>
      </trkpt>
      <trkpt lat="50.739045" lon="0.218106">
        <ele>38.016642</ele>
        <time>2024-07-14T08:54:16.000Z</time>
      </trkpt>
      <trkpt lat="50.738848" lon="0.218385">
        <ele>38.400904</ele>
        <time>2024-07-14T08:54:19.000Z</time>
      </trkpt>
      <trkpt lat="50.738717" lon="0.218492">
        <ele>38.628139</ele>
        <time>2024-07-14T08:54:21.000Z</time>
      </trkpt>
      <trkpt lat="50.738561" lon="0.218574">
        <ele>37.879167</ele>
        <time>2024-07-14T08:54:23.000Z</time>
      </trkpt>
      <trkpt lat="50.738362" lon="0.218638">
        <ele>36.696829</ele>
        <time>2024-07-14T08:54:25.000Z</time>
      </trkpt>
      <trkpt lat="50.738115" lon="0.218686">
        <ele>35.299625</ele>
        <time>2024-07-14T08:54:28.000Z</time>
      </trkpt>
      <trkpt lat="50.737747" lon="0.218772">
        <ele>33.086971</ele>
        <time>2024-07-14T08:54:32.000Z</time>
      </trkpt>
      <trkpt lat="50.737635" lon="0.218822">
        <ele>32.415325</ele>
        <time>2024-07-14T08:54:33.000Z</time>
      </trkpt>
      <trkpt lat="50.73749" lon="0.218966">
        <ele>31.459055</ele>
        <time>2024-07-14T08:54:35.000Z</time>
      </trkpt>
      <trkpt lat="50.737377" lon="0.219173">
        <ele>30.49116</ele>
        <time>2024-07-14T08:54:37.000Z</time>
      </trkpt>
      <trkpt lat="50.737316" lon="0.219358">
        <ele>29.71553</ele>
        <time>2024-07-14T08:54:38.000Z</time>
      </trkpt>
      <trkpt lat="50.737283" lon="0.219555">
        <ele>29.000228</ele>
        <time>2024-07-14T08:54:39.000Z</time>
      </trkpt>
      <trkpt lat="50.737287" lon="0.219833">
        <ele>28.533832</ele>
        <time>2024-07-14T08:54:41.000Z</time>
      </trkpt>
      <trkpt lat="50.737298" lon="0.220264">
        <ele>29.874276</ele>
        <time>2024-07-14T08:54:44.000Z</time>
      </trkpt>
      <trkpt lat="50.737493" lon="0.221356">
        <ele>33.293624</ele>
        <time>2024-07-14T08:54:52.000Z</time>
      </trkpt>
      <trkpt lat="50.737637" lon="0.222112">
        <ele>35.728018</ele>
        <time>2024-07-14T08:54:58.000Z</time>
      </trkpt>
      <trkpt lat="50.737836" lon="0.223349">
        <ele>39.909222</ele>
        <time>2024-07-14T08:55:07.000Z</time>
      </trkpt>
      <trkpt lat="50.738697" lon="0.229104">
        <ele>59.368725</ele>
        <time>2024-07-14T08:55:49.000Z</time>
      </trkpt>
      <trkpt lat="50.739471" lon="0.234384">
        <ele>78.051661</ele>
        <time>2024-07-14T08:56:27.000Z</time>
      </trkpt>
      <trkpt lat="50.739586" lon="0.235861">
        <ele>83.677525</ele>
        <time>2024-07-14T08:56:37.000Z</time>
      </trkpt>
      <trkpt lat="50.739622" lon="0.236516">
        <ele>86.250048</ele>
        <time>2024-07-14T08:56:42.000Z</time>
      </trkpt>
      <trkpt lat="50.739625" lon="0.236818">
        <ele>87.604479</ele>
        <time>2024-07-14T08:56:44.000Z</time>
      </trkpt>
      <trkpt lat="50.739592" lon="0.237225">
        <ele>89.465288</ele>
        <time>2024-07-14T08:56:47.000Z</time>
      </trkpt>
      <trkpt lat="50.739541" lon="0.237714">
        <ele>91.759733</ele>
        <time>2024-07-14T08:56:50.000Z</time>
      </trkpt>
      <trkpt lat="50.739474" lon="0.238127">
        <ele>93.674324</ele>
        <time>2024-07-14T08:56:53.000Z</time>
      </trkpt>
      <trkpt lat="50.739275" lon="0.238814">
        <ele>97.02567</ele>
        <time>2024-07-14T08:56:58.000Z</time>
      </trkpt>
      <trkpt lat="50.739092" lon="0.23935">
        <ele>99.684975</ele>
        <time>2024-07-14T08:57:02.000Z</time>
      </trkpt>
      <trkpt lat="50.73872" lon="0.240257">
        <ele>104.261041</ele>
        <time>2024-07-14T08:57:10.000Z</time>
      </trkpt>
      <trkpt lat="50.738512" lon="0.240648">
        <ele>106.335514</ele>
        <time>2024-07-14T08:57:14.000Z</time>
      </trkpt>
      <trkpt lat="50.738307" lon="0.241004">
        <ele>108.46644</ele>
        <time>2024-07-14T08:57:17.000Z</time>
      </trkpt>
      <trkpt lat="50.738137" lon="0.241276">
        <ele>109.988613</ele>
        <time>2024-07-14T08:57:20.000Z</time>
      </trkpt>
      <trkpt lat="50.738044" lon="0.241481">
        <ele>111.115006</ele>
        <time>2024-07-14T08:57:22.000Z</time>
      </trkpt>
      <trkpt lat="50.737986" lon="0.241763">
        <ele>112.42578</ele>
        <time>2024-07-14T08:57:24.000Z</time>
      </trkpt>
      <trkpt lat="50.737962" lon="0.242194">
        <ele>114.255737</ele>
        <time>2024-07-14T08:57:27.000Z</time>
      </trkpt>
      <trkpt lat="50.737951" lon="0.242338">
        <ele>114.923173</ele>
        <time>2024-07-14T08:57:28.000Z</time>
      </trkpt>
      <trkpt lat="50.737886" lon="0.242513">
        <ele>115.806215</ele>
        <time>2024-07-14T08:57:29.000Z</time>
      </trkpt>
      <trkpt lat="50.737794" lon="0.242624">
        <ele>116.53581</ele>
        <time>2024-07-14T08:57:30.000Z</time>
      </trkpt>
      <trkpt lat="50.73771" lon="0.242685">
        <ele>117.225919</ele>
        <time>2024-07-14T08:57:31.000Z</time>
      </trkpt>
      <trkpt lat="50.737631" lon="0.242696">
        <ele>117.778014</ele>
        <time>2024-07-14T08:57:32.000Z</time>
      </trkpt>
      <trkpt lat="50.737556" lon="0.242684">
        <ele>118.330114</ele>
        <time>2024-07-14T08:57:33.000Z</time>
      </trkpt>
      <trkpt lat="50.737222" lon="0.24251">
        <ele>120.731883</ele>
        <time>2024-07-14T08:57:37.000Z</time>
      </trkpt>
      <trkpt lat="50.737114" lon="0.242494">
        <ele>121.425345</ele>
        <time>2024-07-14T08:57:38.000Z</time>
      </trkpt>
      <trkpt lat="50.737014" lon="0.242531">
        <ele>122.201898</ele>
        <time>2024-07-14T08:57:39.000Z</time>
      </trkpt>
      <trkpt lat="50.736939" lon="0.242622">
        <ele>122.857603</ele>
        <time>2024-07-14T08:57:40.000Z</time>
      </trkpt>
      <trkpt lat="50.736869" lon="0.242774">
        <ele>123.547898</ele>
        <time>2024-07-14T08:57:41.000Z</time>
      </trkpt>
      <trkpt lat="50.736856" lon="0.242999">
        <ele>124.329544</ele>
        <time>2024-07-14T08:57:43.000Z</time>
      </trkpt>
      <trkpt lat="50.736935" lon="0.243184">
        <ele>125.177845</ele>
        <time>2024-07-14T08:57:45.000Z</time>
      </trkpt>
      <trkpt lat="50.737195" lon="0.243664">
        <ele>127.494784</ele>
        <time>2024-07-14T08:57:49.000Z</time>
      </trkpt>
      <trkpt lat="50.737323" lon="0.244096">
        <ele>129.322687</ele>
        <time>2024-07-14T08:57:52.000Z</time>
      </trkpt>
      <trkpt lat="50.737398" lon="0.244312">
        <ele>130.236637</ele>
        <time>2024-07-14T08:57:54.000Z</time>
      </trkpt>
      <trkpt lat="50.737506" lon="0.244504">
        <ele>131.125612</ele>
        <time>2024-07-14T08:57:56.000Z</time>
      </trkpt>
      <trkpt lat="50.737641" lon="0.244667">
        <ele>132.187015</ele>
        <time>2024-07-14T08:57:58.000Z</time>
      </trkpt>
      <trkpt lat="50.737777" lon="0.244771">
        <ele>133.051852</ele>
        <time>2024-07-14T08:58:00.000Z</time>
      </trkpt>
      <trkpt lat="50.738224" lon="0.245141">
        <ele>134.969443</ele>
        <time>2024-07-14T08:58:06.000Z</time>
      </trkpt>
      <trkpt lat="50.738416" lon="0.245321">
        <ele>135.794068</ele>
        <time>2024-07-14T08:58:08.000Z</time>
      </trkpt>
      <trkpt lat="50.738597" lon="0.245577">
        <ele>136.700847</ele>
        <time>2024-07-14T08:58:11.000Z</time>
      </trkpt>
      <trkpt lat="50.7387" lon="0.245763">
        <ele>137.274414</ele>
        <time>2024-07-14T08:58:13.000Z</time>
      </trkpt>
      <trkpt lat="50.738788" lon="0.246027">
        <ele>137.941967</ele>
        <time>2024-07-14T08:58:15.000Z</time>
      </trkpt>
      <trkpt lat="50.738895" lon="0.246527">
        <ele>139.160282</ele>
        <time>2024-07-14T08:58:19.000Z</time>
      </trkpt>
      <trkpt lat="50.738911" lon="0.246555">
        <ele>139.257649</ele>
        <time>2024-07-14T08:58:19.000Z</time>
      </trkpt>
      <trkpt lat="50.738902" lon="0.246552">
        <ele>139.257643</ele>
        <time>2024-07-14T08:58:19.000Z</time>
      </trkpt>
      <trkpt lat="50.738911" lon="0.246584">
        <ele>139.336224</ele>
        <time>2024-07-14T08:58:19.000Z</time>
      </trkpt>
      <trkpt lat="50.738911" lon="0.246657">
        <ele>139.490121</ele>
        <time>2024-07-14T08:58:20.000Z</time>
      </trkpt>
      <trkpt lat="50.739024" lon="0.248405">
        <ele>143.310622</ele>
        <time>2024-07-14T08:58:32.000Z</time>
      </trkpt>
      <trkpt lat="50.739104" lon="0.249022">
        <ele>144.672231</ele>
        <time>2024-07-14T08:58:36.000Z</time>
      </trkpt>
      <trkpt lat="50.739327" lon="0.250109">
        <ele>146.946858</ele>
        <time>2024-07-14T08:58:44.000Z</time>
      </trkpt>
      <trkpt lat="50.739541" lon="0.251019">
        <ele>148.72167</ele>
        <time>2024-07-14T08:58:51.000Z</time>
      </trkpt>
      <trkpt lat="50.739627" lon="0.251248">
        <ele>149.217673</ele>
        <time>2024-07-14T08:58:53.000Z</time>
      </trkpt>
      <trkpt lat="50.739818" lon="0.251767">
        <ele>150.299821</ele>
        <time>2024-07-14T08:58:57.000Z</time>
      </trkpt>
      <trkpt lat="50.739965" lon="0.252006">
        <ele>150.896669</ele>
        <time>2024-07-14T08:58:59.000Z</time>
      </trkpt>
      <trkpt lat="50.740184" lon="0.252246">
        <ele>151.029708</ele>
        <time>2024-07-14T08:59:02.000Z</time>
      </trkpt>
      <trkpt lat="50.740847" lon="0.252946">
        <ele>150.253845</ele>
        <time>2024-07-14T08:59:11.000Z</time>
      </trkpt>
      <trkpt lat="50.741547" lon="0.253544">
        <ele>149.470131</ele>
        <time>2024-07-14T08:59:20.000Z</time>
      </trkpt>
      <trkpt lat="50.742088" lon="0.254007">
        <ele>148.893614</ele>
        <time>2024-07-14T08:59:27.000Z</time>
      </trkpt>
      <trkpt lat="50.742892" lon="0.254722">
        <ele>147.996</ele>
        <time>2024-07-14T08:59:37.000Z</time>
      </trkpt>
      <trkpt lat="50.743065" lon="0.254839">
        <ele>147.81785</ele>
        <time>2024-07-14T08:59:39.000Z</time>
      </trkpt>
      <trkpt lat="50.743325" lon="0.255019">
        <ele>147.370782</ele>
        <time>2024-07-14T08:59:42.000Z</time>
      </trkpt>
      <trkpt lat="50.743517" lon="0.255115">
        <ele>146.944046</ele>
        <time>2024-07-14T08:59:44.000Z</time>
      </trkpt>
      <trkpt lat="50.743797" lon="0.255214">
        <ele>146.37185</ele>
        <time>2024-07-14T08:59:47.000Z</time>
      </trkpt>
      <trkpt lat="50.744077" lon="0.255298">
        <ele>145.769825</ele>
        <time>2024-07-14T08:59:50.000Z</time>
      </trkpt>
      <trkpt lat="50.744414" lon="0.255353">
        <ele>145.066207</ele>
        <time>2024-07-14T08:59:54.000Z</time>
      </trkpt>
      <trkpt lat="50.745984" lon="0.25551">
        <ele>143.985235</ele>
        <time>2024-07-14T09:00:11.000Z</time>
      </trkpt>
      <trkpt lat="50.747528" lon="0.255656">
        <ele>145.993562</ele>
        <time>2024-07-14T09:00:28.000Z</time>
      </trkpt>
      <trkpt lat="50.748824" lon="0.255715">
        <ele>148.945905</ele>
        <time>2024-07-14T09:00:42.000Z</time>
      </trkpt>
      <trkpt lat="50.749124" lon="0.255686">
        <ele>149.394046</ele>
        <time>2024-07-14T09:00:45.000Z</time>
      </trkpt>
      <trkpt lat="50.749416" lon="0.255612">
        <ele>149.83009</ele>
        <time>2024-07-14T09:00:48.000Z</time>
      </trkpt>
      <trkpt lat="50.749756" lon="0.255506">
        <ele>150.334912</ele>
        <time>2024-07-14T09:00:52.000Z</time>
      </trkpt>
      <trkpt lat="50.750088" lon="0.255334">
        <ele>150.863807</ele>
        <time>2024-07-14T09:00:56.000Z</time>
      </trkpt>
      <trkpt lat="50.750386" lon="0.255151">
        <ele>150.979832</ele>
        <time>2024-07-14T09:01:00.000Z</time>
      </trkpt>
      <trkpt lat="50.750902" lon="0.254778">
        <ele>150.102781</ele>
        <time>2024-07-14T09:01:06.000Z</time>
      </trkpt>
      <trkpt lat="50.751293" lon="0.254511">
        <ele>149.464954</ele>
        <time>2024-07-14T09:01:11.000Z</time>
      </trkpt>
      <trkpt lat="50.751391" lon="0.254455">
        <ele>149.301212</ele>
        <time>2024-07-14T09:01:12.000Z</time>
      </trkpt>
      <trkpt lat="50.751565" lon="0.254364">
        <ele>149.014956</ele>
        <time>2024-07-14T09:01:14.000Z</time>
      </trkpt>
      <trkpt lat="50.751802" lon="0.254307">
        <ele>148.642962</ele>
        <time>2024-07-14T09:01:17.000Z</time>
      </trkpt>
      <trkpt lat="50.752496" lon="0.25418">
        <ele>146.258147</ele>
        <time>2024-07-14T09:01:25.000Z</time>
      </trkpt>
      <trkpt lat="50.752602" lon="0.254156">
        <ele>145.771388</ele>
        <time>2024-07-14T09:01:26.000Z</time>
      </trkpt>
      <trkpt lat="50.752642" lon="0.254147">
        <ele>145.665248</ele>
        <time>2024-07-14T09:01:26.000Z</time>
      </trkpt>
      <trkpt lat="50.752626" lon="0.254135">
        <ele>145.665251</ele>
        <time>2024-07-14T09:01:26.000Z</time>
      </trkpt>
      <trkpt lat="50.752708" lon="0.254124">
        <ele>145.403518</ele>
        <time>2024-07-14T09:01:27.000Z</time>
      </trkpt>
      <trkpt lat="50.753203" lon="0.253998">
        <ele>143.313647</ele>
        <time>2024-07-14T09:01:33.000Z</time>
      </trkpt>
      <trkpt lat="50.753364" lon="0.253902">
        <ele>142.627634</ele>
        <time>2024-07-14T09:01:35.000Z</time>
      </trkpt>
      <trkpt lat="50.753558" lon="0.253742">
        <ele>141.745737</ele>
        <time>2024-07-14T09:01:37.000Z</time>
      </trkpt>
      <trkpt lat="50.753743" lon="0.253546">
        <ele>140.674017</ele>
        <time>2024-07-14T09:01:39.000Z</time>
      </trkpt>
      <trkpt lat="50.754093" lon="0.253198">
        <ele>138.270734</ele>
        <time>2024-07-14T09:01:44.000Z</time>
      </trkpt>
      <trkpt lat="50.754278" lon="0.253024">
        <ele>137.028745</ele>
        <time>2024-07-14T09:01:46.000Z</time>
      </trkpt>
      <trkpt lat="50.754581" lon="0.252816">
        <ele>134.976497</ele>
        <time>2024-07-14T09:01:50.000Z</time>
      </trkpt>
      <trkpt lat="50.754884" lon="0.252674">
        <ele>133.12373</ele>
        <time>2024-07-14T09:01:54.000Z</time>
      </trkpt>
      <trkpt lat="50.755134" lon="0.252584">
        <ele>131.605031</ele>
        <time>2024-07-14T09:01:57.000Z</time>
      </trkpt>
      <trkpt lat="50.755348" lon="0.252534">
        <ele>130.330989</ele>
        <time>2024-07-14T09:01:59.000Z</time>
      </trkpt>
      <trkpt lat="50.755493" lon="0.252566">
        <ele>129.400062</ele>
        <time>2024-07-14T09:02:01.000Z</time>
      </trkpt>
      <trkpt lat="50.755546" lon="0.252571">
        <ele>128.996021</ele>
        <time>2024-07-14T09:02:02.000Z</time>
      </trkpt>
      <trkpt lat="50.755521" lon="0.252638">
        <ele>128.677238</ele>
        <time>2024-07-14T09:02:03.000Z</time>
      </trkpt>
      <trkpt lat="50.75542" lon="0.25288">
        <ele>127.479303</ele>
        <time>2024-07-14T09:02:05.000Z</time>
      </trkpt>
      <trkpt lat="50.755333" lon="0.253144">
        <ele>126.207134</ele>
        <time>2024-07-14T09:02:07.000Z</time>
      </trkpt>
      <trkpt lat="50.755024" lon="0.254092">
        <ele>121.781092</ele>
        <time>2024-07-14T09:02:15.000Z</time>
      </trkpt>
      <trkpt lat="50.754784" lon="0.254952">
        <ele>117.998101</ele>
        <time>2024-07-14T09:02:22.000Z</time>
      </trkpt>
      <trkpt lat="50.754621" lon="0.255666">
        <ele>115.403527</ele>
        <time>2024-07-14T09:02:27.000Z</time>
      </trkpt>
      <trkpt lat="50.75461" lon="0.2557">
        <ele>115.25349</ele>
        <time>2024-07-14T09:02:27.000Z</time>
      </trkpt>
      <trkpt lat="50.754559" lon="0.255857">
        <ele>114.642557</ele>
        <time>2024-07-14T09:02:28.000Z</time>
      </trkpt>
      <trkpt lat="50.754485" lon="0.256211">
        <ele>113.346044</ele>
        <time>2024-07-14T09:02:31.000Z</time>
      </trkpt>
      <trkpt lat="50.754428" lon="0.256657">
        <ele>111.796562</ele>
        <time>2024-07-14T09:02:34.000Z</time>
      </trkpt>
      <trkpt lat="50.754413" lon="0.257318">
        <ele>109.490099</ele>
        <time>2024-07-14T09:02:39.000Z</time>
      </trkpt>
      <trkpt lat="50.754462" lon="0.257686">
        <ele>108.301301</ele>
        <time>2024-07-14T09:02:42.000Z</time>
      </trkpt>
      <trkpt lat="50.75446" lon="0.25772">
        <ele>108.171807</ele>
        <time>2024-07-14T09:02:42.000Z</time>
      </trkpt>
      <trkpt lat="50.754452" lon="0.257724">
        <ele>108.171809</ele>
        <time>2024-07-14T09:02:42.000Z</time>
      </trkpt>
      <trkpt lat="50.754467" lon="0.257827">
        <ele>107.856511</ele>
        <time>2024-07-14T09:02:43.000Z</time>
      </trkpt>
      <trkpt lat="50.754534" lon="0.258529">
        <ele>105.645637</ele>
        <time>2024-07-14T09:02:48.000Z</time>
      </trkpt>
      <trkpt lat="50.754532" lon="0.258869">
        <ele>104.553083</ele>
        <time>2024-07-14T09:02:50.000Z</time>
      </trkpt>
      <trkpt lat="50.754493" lon="0.259058">
        <ele>103.941793</ele>
        <time>2024-07-14T09:02:51.000Z</time>
      </trkpt>
      <trkpt lat="50.754419" lon="0.259224">
        <ele>103.280427</ele>
        <time>2024-07-14T09:02:52.000Z</time>
      </trkpt>
      <trkpt lat="50.75432" lon="0.259342">
        <ele>102.66093</ele>
        <time>2024-07-14T09:02:53.000Z</time>
      </trkpt>
      <trkpt lat="50.754242" lon="0.259385">
        <ele>102.246928</ele>
        <time>2024-07-14T09:02:54.000Z</time>
      </trkpt>
      <trkpt lat="50.754143" lon="0.259375">
        <ele>101.801757</ele>
        <time>2024-07-14T09:02:55.000Z</time>
      </trkpt>
      <trkpt lat="50.754024" lon="0.259357">
        <ele>101.202293</ele>
        <time>2024-07-14T09:02:56.000Z</time>
      </trkpt>
      <trkpt lat="50.753828" lon="0.259213">
        <ele>100.135278</ele>
        <time>2024-07-14T09:02:58.000Z</time>
      </trkpt>
      <trkpt lat="50.753604" lon="0.259064">
        <ele>99.424484</ele>
        <time>2024-07-14T09:03:01.000Z</time>
      </trkpt>
      <trkpt lat="50.753392" lon="0.258889">
        <ele>98.851892</ele>
        <time>2024-07-14T09:03:04.000Z</time>
      </trkpt>
      <trkpt lat="50.753104" lon="0.258641">
        <ele>98.004064</ele>
        <time>2024-07-14T09:03:08.000Z</time>
      </trkpt>
      <trkpt lat="50.752946" lon="0.258594">
        <ele>97.592824</ele>
        <time>2024-07-14T09:03:10.000Z</time>
      </trkpt>
      <trkpt lat="50.752767" lon="0.258622">
        <ele>97.137839</ele>
        <time>2024-07-14T09:03:12.000Z</time>
      </trkpt>
      <trkpt lat="50.752519" lon="0.258773">
        <ele>96.481038</ele>
        <time>2024-07-14T09:03:15.000Z</time>
      </trkpt>
      <trkpt lat="50.752277" lon="0.258985">
        <ele>95.774525</ele>
        <time>2024-07-14T09:03:18.000Z</time>
      </trkpt>
      <trkpt lat="50.752074" lon="0.259168">
        <ele>94.98298</ele>
        <time>2024-07-14T09:03:21.000Z</time>
      </trkpt>
      <trkpt lat="50.751998" lon="0.259253">
        <ele>94.542394</ele>
        <time>2024-07-14T09:03:22.000Z</time>
      </trkpt>
      <trkpt lat="50.751954" lon="0.25942">
        <ele>94.015199</ele>
        <time>2024-07-14T09:03:23.000Z</time>
      </trkpt>
      <trkpt lat="50.751984" lon="0.259605">
        <ele>93.436669</ele>
        <time>2024-07-14T09:03:24.000Z</time>
      </trkpt>
      <trkpt lat="50.752014" lon="0.259676">
        <ele>93.186899</ele>
        <time>2024-07-14T09:03:25.000Z</time>
      </trkpt>
      <trkpt lat="50.752072" lon="0.259719">
        <ele>92.893049</ele>
        <time>2024-07-14T09:03:26.000Z</time>
      </trkpt>
      <trkpt lat="50.752239" lon="0.259686">
        <ele>92.140703</ele>
        <time>2024-07-14T09:03:28.000Z</time>
      </trkpt>
      <trkpt lat="50.752544" lon="0.259563">
        <ele>90.650388</ele>
        <time>2024-07-14T09:03:32.000Z</time>
      </trkpt>
      <trkpt lat="50.752863" lon="0.259462">
        <ele>89.132697</ele>
        <time>2024-07-14T09:03:36.000Z</time>
      </trkpt>
      <trkpt lat="50.753183" lon="0.259369">
        <ele>87.603543</ele>
        <time>2024-07-14T09:03:40.000Z</time>
      </trkpt>
      <trkpt lat="50.753377" lon="0.259383">
        <ele>86.650046</ele>
        <time>2024-07-14T09:03:42.000Z</time>
      </trkpt>
      <trkpt lat="50.753477" lon="0.259492">
        <ele>85.903955</ele>
        <time>2024-07-14T09:03:43.000Z</time>
      </trkpt>
      <trkpt lat="50.753523" lon="0.259615">
        <ele>85.455886</ele>
        <time>2024-07-14T09:03:44.000Z</time>
      </trkpt>
      <trkpt lat="50.753522" lon="0.25968">
        <ele>85.202433</ele>
        <time>2024-07-14T09:03:44.000Z</time>
      </trkpt>
      <trkpt lat="50.753512" lon="0.259723">
        <ele>85.012559</ele>
        <time>2024-07-14T09:03:44.000Z</time>
      </trkpt>
      <trkpt lat="50.753517" lon="0.259756">
        <ele>84.931183</ele>
        <time>2024-07-14T09:03:44.000Z</time>
      </trkpt>
      <trkpt lat="50.753501" lon="0.259767">
        <ele>84.865451</ele>
        <time>2024-07-14T09:03:44.000Z</time>
      </trkpt>
      <trkpt lat="50.753497" lon="0.259761">
        <ele>84.865464</ele>
        <time>2024-07-14T09:03:44.000Z</time>
      </trkpt>
      <trkpt lat="50.753455" lon="0.259821">
        <ele>84.506094</ele>
        <time>2024-07-14T09:03:45.000Z</time>
      </trkpt>
      <trkpt lat="50.753414" lon="0.259875">
        <ele>84.273907</ele>
        <time>2024-07-14T09:03:46.000Z</time>
      </trkpt>
      <trkpt lat="50.752809" lon="0.260343">
        <ele>80.485723</ele>
        <time>2024-07-14T09:03:53.000Z</time>
      </trkpt>
      <trkpt lat="50.752443" lon="0.260649">
        <ele>78.164403</ele>
        <time>2024-07-14T09:03:58.000Z</time>
      </trkpt>
      <trkpt lat="50.752008" lon="0.261022">
        <ele>75.274105</ele>
        <time>2024-07-14T09:04:04.000Z</time>
      </trkpt>
      <trkpt lat="50.751955" lon="0.261374">
        <ele>73.936171</ele>
        <time>2024-07-14T09:04:07.000Z</time>
      </trkpt>
      <trkpt lat="50.752075" lon="0.262449">
        <ele>69.88414</ele>
        <time>2024-07-14T09:04:15.000Z</time>
      </trkpt>
      <trkpt lat="50.752152" lon="0.263667">
        <ele>65.104301</ele>
        <time>2024-07-14T09:04:24.000Z</time>
      </trkpt>
      <trkpt lat="50.752217" lon="0.264257">
        <ele>62.427027</ele>
        <time>2024-07-14T09:04:28.000Z</time>
      </trkpt>
      <trkpt lat="50.752389" lon="0.265022">
        <ele>58.874232</ele>
        <time>2024-07-14T09:04:34.000Z</time>
      </trkpt>
      <trkpt lat="50.752537" lon="0.265778">
        <ele>55.352824</ele>
        <time>2024-07-14T09:04:40.000Z</time>
      </trkpt>
      <trkpt lat="50.752542" lon="0.265822">
        <ele>55.167946</ele>
        <time>2024-07-14T09:04:40.000Z</time>
      </trkpt>
      <trkpt lat="50.752558" lon="0.265831">
        <ele>55.167939</ele>
        <time>2024-07-14T09:04:40.000Z</time>
      </trkpt>
      <trkpt lat="50.752568" lon="0.26592">
        <ele>54.722481</ele>
        <time>2024-07-14T09:04:41.000Z</time>
      </trkpt>
      <trkpt lat="50.752609" lon="0.26607">
        <ele>54.020714</ele>
        <time>2024-07-14T09:04:42.000Z</time>
      </trkpt>
      <trkpt lat="50.752605" lon="0.266295">
        <ele>53.231988</ele>
        <time>2024-07-14T09:04:44.000Z</time>
      </trkpt>
      <trkpt lat="50.752591" lon="0.266431">
        <ele>52.773693</ele>
        <time>2024-07-14T09:04:45.000Z</time>
      </trkpt>
      <trkpt lat="50.752559" lon="0.266552">
        <ele>52.306297</ele>
        <time>2024-07-14T09:04:46.000Z</time>
      </trkpt>
      <trkpt lat="50.752285" lon="0.266839">
        <ele>50.645959</ele>
        <time>2024-07-14T09:04:50.000Z</time>
      </trkpt>
      <trkpt lat="50.752055" lon="0.267117">
        <ele>49.213897</ele>
        <time>2024-07-14T09:04:53.000Z</time>
      </trkpt>
      <trkpt lat="50.752015" lon="0.267273">
        <ele>48.623903</ele>
        <time>2024-07-14T09:04:54.000Z</time>
      </trkpt>
      <trkpt lat="50.752026" lon="0.267415">
        <ele>48.165594</ele>
        <time>2024-07-14T09:04:55.000Z</time>
      </trkpt>
      <trkpt lat="50.752584" lon="0.268454">
        <ele>43.729202</ele>
        <time>2024-07-14T09:05:05.000Z</time>
      </trkpt>
      <trkpt lat="50.753243" lon="0.269781">
        <ele>38.324299</ele>
        <time>2024-07-14T09:05:17.000Z</time>
      </trkpt>
      <trkpt lat="50.753733" lon="0.270911">
        <ele>34.306415</ele>
        <time>2024-07-14T09:05:27.000Z</time>
      </trkpt>
      <trkpt lat="50.753905" lon="0.271285">
        <ele>33.240895</ele>
        <time>2024-07-14T09:05:30.000Z</time>
      </trkpt>
      <trkpt lat="50.754191" lon="0.271896">
        <ele>31.462932</ele>
        <time>2024-07-14T09:05:35.000Z</time>
      </trkpt>
      <trkpt lat="50.754666" lon="0.272756">
        <ele>28.838812</ele>
        <time>2024-07-14T09:05:43.000Z</time>
      </trkpt>
      <trkpt lat="50.75543" lon="0.274231">
        <ele>27.744613</ele>
        <time>2024-07-14T09:05:56.000Z</time>
      </trkpt>
      <trkpt lat="50.75617" lon="0.275706">
        <ele>26.439783</ele>
        <time>2024-07-14T09:06:09.000Z</time>
      </trkpt>
      <trkpt lat="50.756283" lon="0.275931">
        <ele>26.186648</ele>
        <time>2024-07-14T09:06:11.000Z</time>
      </trkpt>
      <trkpt lat="50.756781" lon="0.277207">
        <ele>24.948855</ele>
        <time>2024-07-14T09:06:22.000Z</time>
      </trkpt>
      <trkpt lat="50.757253" lon="0.278329">
        <ele>22.647646</ele>
        <time>2024-07-14T09:06:31.000Z</time>
      </trkpt>
      <trkpt lat="50.757275" lon="0.278357">
        <ele>22.573418</ele>
        <time>2024-07-14T09:06:31.000Z</time>
      </trkpt>
      <trkpt lat="50.757274" lon="0.27836">
        <ele>22.573428</ele>
        <time>2024-07-14T09:06:31.000Z</time>
      </trkpt>
      <trkpt lat="50.757247" lon="0.278382">
        <ele>22.513078</ele>
        <time>2024-07-14T09:06:31.000Z</time>
      </trkpt>
      <trkpt lat="50.757483" lon="0.278971">
        <ele>21.257365</ele>
        <time>2024-07-14T09:06:36.000Z</time>
      </trkpt>
      <trkpt lat="50.757515" lon="0.279">
        <ele>21.182465</ele>
        <time>2024-07-14T09:06:36.000Z</time>
      </trkpt>
      <trkpt lat="50.758789" lon="0.281842">
        <ele>15.055832</ele>
        <time>2024-07-14T09:07:01.000Z</time>
      </trkpt>
      <trkpt lat="50.758776" lon="0.281832">
        <ele>15.055828</ele>
        <time>2024-07-14T09:07:01.000Z</time>
      </trkpt>
      <trkpt lat="50.759397" lon="0.282881">
        <ele>14.7823121349</ele>
        <time>2024-07-14T09:07:11.000Z</time>
      </trkpt>
      <trkpt lat="50.75958" lon="0.283101">
        <ele>14.713121518</ele>
        <time>2024-07-14T09:07:14.000Z</time>
      </trkpt>
      <trkpt lat="50.759823" lon="0.28341">
        <ele>14.6192668568</ele>
        <time>2024-07-14T09:07:17.000Z</time>
      </trkpt>
      <trkpt lat="50.760347" lon="0.28404">
        <ele>14.4211419043</ele>
        <time>2024-07-14T09:07:24.000Z</time>
      </trkpt>
      <trkpt lat="50.760569" lon="0.284332">
        <ele>14.3342289244</ele>
        <time>2024-07-14T09:07:27.000Z</time>
      </trkpt>
      <trkpt lat="50.760899" lon="0.2847">
        <ele>14.2126918918</ele>
        <time>2024-07-14T09:07:31.000Z</time>
      </trkpt>
    </trkseg>
  </trk>
</gpx>

<!--
Performance optimized by W3 Total Cache. Learn more: https://www.boldgrid.com/w3-total-cache/?utm_source=w3tc&utm_medium=footer_comment&utm_campaign=free_plugin

Page Caching using Disk: Enhanced{w3tc_pagecache_reject_reason} 

Served from: www.aquabike.world @ 2026-05-10 12:22:05 by W3 Total Cache
-->